GFSGBSN_sfc_dewp_000.txt.gz
Dewpoint
56 55 55 54 54 55 55 54 54 55 55 55 55 55 55 54 55 56 55 55 55 55 54 54 55 55 48 35 31 31 54 46 31 32 29 25 27 27 25 25 23 19 20 21 21 20 19
56 56 56 55 55 55 55 55 54 55 55 54 55 55 55 55 55 56 56 55 55 55 54 54 55 55 42 30 30 30 32 31 29 28 26 25 26 27 28 25 24 28 24 23 22 21 22
55 56 56 56 56 56 56 55 55 54 54 54 54 54 54 55 55 55 55 55 55 55 54 54 54 51 48 28 29 32 32 30 30 32 27 27 29 26 27 28 29 28 23 23 23 22 20
55 55 56 56 56 56 56 55 55 54 54 54 54 54 54 54 54 54 54 54 54 54 54 53 54 50 32 32 33 31 31 32 32 32 31 27 28 28 30 29 29 25 23 20 20 22 18
55 55 55 56 56 56 56 55 55 54 54 54 54 54 53 53 53 53 53 53 54 54 55 54 50 46 33 38 31 30 31 31 31 34 34 30 33 29 27 24 20 21 16 19 18 18 18
54 54 55 56 56 56 56 55 55 54 54 54 54 54 53 53 53 52 52 53 54 54 52 51 47 37 32 30 31 30 27 27 29 33 32 33 29 25 23 20 16 18 16 18 18 20 25
53 53 55 56 56 57 57 56 55 54 54 54 54 53 53 53 53 52 50 47 44 35 40 27 28 30 26 27 31 26 27 27 29 33 28 26 23 20 21 24 24 21 20 21 22 24 26
52 52 55 56 57 56 57 56 55 54 54 54 54 53 53 52 52 52 53 45 46 45 35 30 28 27 28 28 28 26 26 26 29 23 21 24 23 24 22 25 23 21 24 23 25 26 28
51 52 54 56 56 56 56 56 55 54 54 53 53 53 53 52 51 51 47 49 55 53 42 27 30 29 27 28 28 26 25 27 28 24 21 23 23 24 22 23 22 21 25 25 25 28 28
50 51 54 55 55 55 55 55 55 54 54 53 53 53 53 52 45 50 48 49 53 54 35 27 29 30 28 28 30 27 27 28 27 24 23 25 23 20 24 23 24 21 24 27 27 27 24
50 51 53 54 54 54 54 54 54 54 54 53 52 53 52 53 52 47 49 53 55 51 26 30 27 30 28 26 25 25 28 29 25 23 23 22 20 20 23 22 26 23 28 30 30 28 27
50 52 53 54 54 54 54 54 53 53 53 53 52 53 52 53 51 50 55 56 52 39 28 29 28 28 29 28 25 28 34 34 34 32 30 23 23 23 24 27 30 30 31 32 32 28 24
51 52 53 53 54 54 54 53 53 53 53 53 52 52 52 55 49 54 57 50 39 28 33 27 29 28 29 26 27 30 32 31 30 25 29 30 26 26 30 28 31 30 30 25 23 23 23
53 53 52 53 54 54 53 53 53 52 52 52 52 51 55 56 57 55 52 43 28 33 29 29 28 28 28 27 27 31 30 30 32 32 31 31 28 31 30 30 28 30 31 26 21 21 24
54 53 52 53 54 53 53 53 53 52 52 52 52 55 53 53 56 57 46 34 29 31 28 28 28 27 28 28 25 30 31 31 32 32 30 31 30 34 31 32 31 30 29 32 27 23 23
54 53 52 53 53 53 53 53 52 52 52 52 50 53 48 54 55 52 40 31 29 29 32 34 29 30 29 30 30 29 30 33 33 35 35 35 31 35 35 35 33 31 32 28 29 19 25
52 53 53 53 53 53 52 52 52 52 52 51 56 44 46 54 53 45 33 29 29 29 33 33 33 33 33 33 33 31 33 34 35 34 37 35 34 32 33 33 32 29 31 32 32 30 27
52 52 52 53 53 53 52 52 52 52 51 50 52 37 44 51 40 42 32 32 34 32 36 36 36 35 34 35 34 34 35 35 36 37 36 36 32 28 30 34 35 33 33 33 27 28 28
51 52 52 53 53 53 52 52 52 52 51 49 46 45 50 49 32 33 35 35 37 35 35 36 35 36 36 35 31 35 36 38 37 37 34 34 30 26 26 28 34 33 33 34 33 29 27
51 51 52 53 53 53 52 52 52 52 51 51 43 38 45 46 44 35 34 36 34 37 36 36 36 36 35 36 36 32 35 39 39 38 41 38 34 29 26 27 34 32 33 32 31 23 28
51 51 52 52 52 52 52 52 52 51 51 51 45 38 42 35 38 36 38 38 36 36 37 36 36 36 35 31 32 35 37 38 39 41 38 36 30 32 33 34 35 34 34 34 32 30 28
52 51 52 52 52 52 52 50 50 51 51 47 42 43 43 41 40 36 36 35 35 34 36 35 36 39 38 36 35 34 37 37 36 38 37 38 30 32 32 35 36 34 34 33 32 31 30
52 52 52 52 52 52 51 50 51 51 52 48 49 46 43 38 36 34 35 36 36 38 38 36 36 36 32 39 39 39 40 39 39 37 34 34 30 28 28 33 33 30 30 30 29 30 29
51 52 52 52 52 52 50 50 51 51 51 52 50 46 37 33 32 35 39 37 37 37 37 38 37 33 39 43 41 38 35 36 39 38 39 31 29 29 28 31 25 30 32 31 30 31 32
51 51 52 52 52 52 49 50 50 50 51 51 52 48 40 33 37 39 38 38 37 38 38 38 41 41 43 39 32 27 27 26 26 37 39 38 34 29 27 29 29 30 31 30 29 30 37
51 51 51 51 51 51 51 51 51 50 51 52 53 50 43 35 36 42 38 39 34 33 35 39 44 44 42 35 28 21 20 25 27 29 39 36 32 26 29 26 24 26 29 36 36 28 38
50 51 51 51 50 50 51 51 51 50 51 52 52 53 48 38 44 42 38 37 40 37 36 36 40 36 40 35 30 29 25 32 27 23 22 27 30 25 19 23 25 30 32 36 23 26 35
50 50 50 50 50 50 50 51 50 50 50 51 52 54 50 42 45 46 46 42 43 39 34 37 37 36 35 33 31 29 32 29 29 30 27 25 23 28 26 27 25 35 35 31 34 36 37
50 50 50 50 50 50 50 50 50 50 50 51 49 54 54 47 44 50 51 51 48 44 43 40 38 37 37 34 33 29 32 33 28 29 33 30 30 28 28 28 33 35 36 37 39 37 37

GFSGBSN_sfc_dewp_003.txt.gz
Dewpoint
55 54 54 54 55 55 55 54 54 54 55 55 55 55 55 54 54 54 55 55 55 55 55 55 55 56 47 30 30 31 54 46 32 32 25 25 25 25 25 24 23 20 19 20 21 20 19
55 54 55 55 56 56 55 54 54 54 54 54 54 55 55 55 55 55 56 55 55 55 55 55 55 56 40 26 30 30 32 31 29 29 27 24 25 27 26 25 23 27 24 22 22 22 22
54 55 56 56 56 56 56 55 54 54 54 54 54 54 54 55 55 55 55 55 55 55 55 54 55 50 41 27 27 32 31 30 31 31 28 27 29 24 27 26 27 25 21 23 23 22 22
54 55 55 56 56 56 56 55 54 54 54 54 54 54 54 54 54 54 54 54 55 55 54 54 54 49 31 31 32 30 31 31 32 32 33 31 30 28 26 27 27 21 21 17 19 23 20
54 54 55 56 56 56 56 55 54 54 54 54 54 53 53 53 53 53 53 54 54 54 54 53 49 42 32 39 31 32 29 26 27 31 33 32 30 27 25 19 19 21 15 17 17 22 22
53 54 56 56 56 56 56 56 54 54 54 54 53 53 53 53 53 53 53 54 54 53 51 48 46 33 31 28 30 28 27 27 27 30 31 29 27 21 22 19 14 18 16 21 17 21 27
52 53 55 56 57 57 57 56 55 54 54 54 54 53 53 52 52 52 52 49 43 33 40 28 27 28 26 26 30 26 27 28 29 27 25 27 22 18 20 23 23 21 21 23 22 24 27
51 52 55 56 56 56 56 56 55 54 54 53 53 53 53 52 52 52 49 46 45 43 33 34 28 28 28 28 25 26 26 25 27 22 22 25 21 23 23 24 22 24 23 21 25 26 28
50 51 54 55 55 55 55 55 55 54 54 53 53 53 53 52 51 49 49 50 55 50 32 28 29 28 28 27 27 26 25 27 25 21 23 23 23 22 23 23 21 20 23 23 24 27 28
49 50 53 55 55 55 55 55 54 54 54 53 52 53 52 52 49 49 46 49 52 48 29 27 27 29 27 28 26 27 26 29 25 22 23 24 21 22 22 22 23 21 23 26 27 27 23
49 50 52 54 54 54 54 54 54 54 54 53 52 52 52 53 48 45 49 54 55 46 21 28 25 30 28 23 24 28 33 27 26 27 23 24 18 22 22 23 26 25 30 29 30 27 28
49 50 52 53 54 54 54 53 53 53 53 53 52 52 52 53 48 49 54 53 50 37 25 28 28 27 26 27 27 32 34 34 34 31 30 28 24 24 25 28 30 30 31 30 30 28 23
50 51 52 53 54 54 53 53 53 53 53 52 52 52 52 55 45 54 55 47 36 25 32 26 27 27 27 25 28 31 32 32 30 21 28 32 30 31 30 28 31 31 30 23 20 22 22
52 52 52 53 54 53 53 53 52 52 52 52 52 51 55 55 55 54 48 40 25 31 29 29 27 27 25 25 28 32 31 30 32 31 31 30 25 32 32 30 28 30 30 25 18 20 24
54 53 52 52 53 53 53 52 52 52 52 52 52 55 50 51 55 54 41 31 27 29 28 29 29 27 29 30 28 30 31 31 33 32 29 31 29 34 34 35 31 31 29 31 27 22 22
53 53 52 52 53 53 52 52 52 52 52 51 53 49 45 53 54 45 38 31 28 29 31 33 28 31 28 32 31 30 31 33 33 36 35 34 31 34 34 34 34 31 32 28 29 18 22
52 53 53 53 53 52 52 52 52 52 52 51 55 38 43 54 49 40 31 28 28 30 34 34 33 33 34 32 33 32 33 34 34 34 35 34 33 29 31 31 31 31 31 31 31 29 24
51 52 52 53 53 52 52 52 52 52 51 53 47 35 43 48 40 38 30 31 36 35 37 36 36 35 34 34 34 34 34 34 35 36 33 36 31 28 29 33 35 33 32 31 29 25 27
51 51 52 53 53 52 52 52 52 52 51 49 45 43 48 43 33 30 34 35 36 34 35 35 34 36 37 35 31 34 35 37 36 36 35 34 29 25 23 27 30 32 33 33 31 28 27
51 51 52 52 53 52 52 52 52 51 51 51 40 36 43 43 40 34 33 34 33 36 35 36 35 36 35 35 35 33 36 38 40 38 41 37 32 27 25 24 31 32 33 33 31 22 27
51 51 51 52 53 52 52 50 50 51 51 49 42 36 41 34 37 37 37 36 34 34 35 36 36 37 34 31 32 34 37 37 38 40 38 35 30 32 32 32 34 34 34 34 33 32 30
51 51 51 52 52 52 49 49 51 51 51 45 42 41 41 41 40 33 35 33 35 35 35 35 36 37 37 34 34 34 37 37 36 37 36 37 29 31 30 34 35 34 34 34 34 33 32
51 51 51 52 52 52 49 49 51 51 51 46 47 45 40 36 33 33 33 34 35 37 37 36 37 35 31 38 39 39 39 39 37 36 34 34 29 28 23 32 30 25 29 32 31 29 28
51 52 52 52 52 52 49 49 50 50 51 50 48 42 37 32 30 34 37 36 36 36 36 37 36 32 36 41 39 36 34 34 36 37 38 31 29 28 23 31 21 27 31 30 29 30 30
51 51 52 52 52 52 48 50 50 50 51 52 50 44 38 32 36 37 37 36 36 37 36 37 40 39 41 36 31 26 27 24 25 39 37 35 33 30 30 28 27 30 29 29 28 27 33
51 51 51 51 51 51 51 51 50 50 51 52 51 45 41 35 35 39 37 38 33 32 33 38 43 43 40 31 28 21 19 25 28 28 37 35 29 27 28 26 24 27 27 32 35 29 36
51 51 51 51 50 51 51 51 51 50 50 51 51 49 45 36 40 41 36 36 38 35 35 34 38 36 38 34 30 23 25 31 26 21 22 26 30 27 28 26 26 30 31 34 28 28 34
50 50 50 50 50 50 51 51 51 50 50 51 50 52 48 40 43 45 44 41 41 38 33 37 36 35 35 32 28 29 20 28 28 29 26 25 26 24 27 25 23 33 35 32 35 36 36
50 50 50 50 50 50 50 50 50 50 50 51 49 52 51 45 42 49 50 48 45 42 41 38 37 36 37 35 33 29 29 32 26 29 31 30 30 27 29 28 32 33 36 37 38 37 37

GFSGBSN_sfc_dewp_006.txt.gz
Dewpoint
55 54 55 55 56 56 56 55 55 55 54 55 55 55 54 53 53 53 53 53 55 55 55 55 55 56 51 29 29 31 53 46 34 29 25 25 25 25 23 23 23 19 19 19 20 18 18
54 54 55 56 56 56 56 55 55 54 54 54 54 55 55 55 54 53 53 55 55 55 55 55 55 56 39 26 29 31 31 30 30 30 28 25 25 26 25 24 21 25 24 23 23 21 22
53 54 56 56 56 56 56 55 54 54 54 54 54 54 55 55 55 55 55 55 55 55 55 55 55 53 32 28 29 32 32 30 32 31 30 29 28 24 26 25 27 25 22 21 21 22 22
53 54 55 56 56 56 56 55 54 54 54 54 54 54 53 54 54 55 55 54 54 55 55 55 55 48 29 32 34 31 29 26 28 32 32 33 31 27 25 28 23 19 19 16 18 22 19
54 54 56 57 56 56 56 55 54 54 53 54 53 53 53 53 53 53 53 53 54 54 55 54 48 39 28 38 29 31 26 25 26 29 32 31 29 26 24 17 17 19 16 17 17 25 27
53 54 56 57 56 57 57 56 55 54 54 53 53 53 53 52 53 53 53 53 54 53 51 46 42 28 28 26 29 28 27 27 26 31 28 26 24 19 22 17 10 20 14 22 18 22 27
51 52 56 57 57 57 57 55 55 54 53 53 53 53 52 52 53 53 52 49 36 31 36 25 26 28 25 26 28 26 27 28 28 25 22 26 21 18 20 22 22 20 19 22 28 25 27
51 52 55 56 56 56 56 55 55 54 54 53 53 53 53 52 52 53 49 46 43 44 27 31 27 26 28 28 25 27 26 26 25 21 22 24 20 22 24 23 21 21 22 19 23 26 28
51 50 54 55 56 55 55 55 54 54 54 53 53 53 53 52 51 49 49 50 55 48 26 27 28 27 27 26 26 26 25 28 23 20 23 22 22 24 23 23 23 23 20 21 23 26 29
50 49 53 54 55 55 54 54 54 54 53 53 52 52 52 52 48 48 45 50 54 42 28 25 26 27 26 26 24 27 32 27 25 21 23 23 21 23 25 23 24 23 23 25 26 27 23
50 49 52 53 54 54 53 54 54 54 53 53 52 52 53 50 49 45 49 54 54 41 17 26 25 28 27 23 25 32 35 27 28 28 25 21 21 25 26 25 27 26 31 30 29 28 27
50 50 52 53 54 53 53 53 53 53 53 53 52 52 52 51 48 49 54 51 48 33 21 27 27 27 25 27 29 32 34 34 34 30 31 30 27 26 26 28 30 31 31 27 29 27 23
51 51 52 53 53 53 53 53 53 52 52 52 52 53 53 53 41 52 52 46 33 25 31 25 26 26 25 26 31 32 32 32 30 19 29 31 30 33 30 30 32 31 26 20 20 21 22
53 52 52 52 53 53 53 53 52 52 52 52 51 53 54 54 54 53 46 38 24 29 28 29 27 28 26 26 30 32 31 30 32 31 31 30 22 31 32 30 28 29 29 23 15 19 23
53 53 52 52 53 53 53 52 52 52 52 51 53 52 48 51 54 49 40 29 26 28 28 28 29 27 28 31 29 30 31 31 33 33 28 31 28 34 34 35 31 30 29 31 26 21 21
52 53 53 52 53 52 52 52 52 52 52 52 53 43 46 53 52 42 37 30 27 31 31 32 27 30 27 32 30 29 31 33 32 36 34 34 30 32 33 33 33 31 32 26 28 18 20
52 52 52 52 53 52 52 52 52 52 52 52 51 36 43 53 45 37 30 27 28 35 35 33 32 32 33 32 32 31 32 33 34 34 35 33 32 26 30 30 31 31 30 30 30 28 21
51 51 52 52 53 52 52 52 52 52 51 51 42 33 45 48 36 35 30 31 36 35 37 35 35 34 33 34 33 33 33 33 35 36 33 35 30 26 26 31 35 33 31 30 24 22 26
51 51 51 52 52 52 51 52 51 51 52 48 43 41 45 43 32 29 34 35 35 34 35 34 34 36 36 34 30 33 35 38 38 36 35 34 29 23 19 26 30 32 33 32 29 28 26
51 51 51 52 52 52 52 50 50 51 52 46 40 37 42 43 39 33 32 32 33 36 35 37 35 35 35 34 35 34 35 37 39 38 41 37 31 25 21 22 28 30 33 33 31 29 27
51 51 51 51 52 52 50 49 51 51 51 46 41 37 40 34 37 37 36 34 34 33 34 36 35 35 33 31 32 33 36 36 36 40 38 35 30 31 31 31 32 32 33 33 32 31 30
51 51 50 50 51 51 49 49 51 50 51 44 42 40 41 40 38 33 34 32 35 34 34 34 35 36 36 33 33 32 36 35 34 36 35 36 28 30 30 33 33 32 33 34 34 33 33
51 51 50 50 52 51 50 48 49 50 50 46 45 43 41 36 32 32 32 33 34 36 36 36 37 34 30 36 38 39 38 38 37 35 32 33 28 28 23 30 29 22 25 30 31 31 30
51 51 51 51 52 52 48 49 50 50 51 48 46 40 36 32 29 34 36 35 35 35 35 36 35 32 35 40 37 35 32 29 34 36 38 31 28 28 24 30 23 27 30 29 29 29 29
50 51 51 52 52 52 49 50 50 50 51 50 47 42 37 32 34 36 36 36 36 36 36 36 41 40 39 35 30 26 26 23 26 37 35 34 32 28 29 28 28 30 29 28 28 26 30
50 50 51 51 51 51 51 51 50 50 51 52 49 44 40 35 35 37 37 37 32 30 32 37 42 42 37 30 27 20 19 25 27 28 35 34 29 26 29 26 23 27 28 31 35 27 35
50 50 50 50 50 50 51 51 50 50 51 52 50 47 43 35 39 40 35 35 37 34 34 33 37 35 37 29 28 22 25 30 26 21 19 26 29 31 30 28 27 30 31 34 28 28 35
50 50 50 50 50 50 50 51 50 50 50 51 50 50 46 38 41 44 42 40 39 37 33 36 36 34 35 32 28 29 19 27 27 29 25 23 22 21 26 26 22 31 34 31 34 38 37
50 50 50 50 50 50 50 50 50 50 50 50 49 50 49 43 40 47 47 46 42 40 39 36 36 35 35 33 32 29 27 28 28 29 30 28 29 29 32 28 32 33 37 36 37 38 38

GFSGBSN_sfc_dewp_009.txt.gz
Dewpoint
55 54 55 56 56 56 56 55 56 55 55 54 55 55 54 53 53 53 53 52 53 55 55 56 56 56 51 34 31 31 53 45 35 33 26 27 27 27 24 24 24 20 19 19 19 18 18
54 54 55 56 56 56 56 55 55 55 55 54 54 55 55 53 53 53 53 53 54 55 55 55 56 56 43 30 30 32 31 30 30 31 29 28 27 27 28 24 24 25 23 23 23 21 22
54 54 56 56 56 56 55 55 55 54 54 54 54 54 55 55 55 54 54 54 55 55 55 55 55 53 36 34 31 32 30 32 30 33 30 28 29 27 28 26 28 25 20 20 22 22 20
53 54 56 56 56 56 55 56 54 54 54 54 54 54 54 54 55 55 55 55 54 55 55 55 55 50 36 34 36 31 28 28 28 31 33 33 32 31 28 28 23 20 22 19 20 25 22
54 54 56 56 56 56 55 56 55 54 54 53 53 53 53 53 53 53 53 53 54 54 55 55 50 43 35 38 31 31 28 27 28 33 34 29 31 28 25 22 19 22 13 18 20 26 27
52 54 56 56 56 56 56 56 55 54 53 53 53 53 53 52 53 53 53 53 54 53 51 50 39 35 29 26 29 29 29 31 31 35 32 30 26 24 24 17 11 19 16 20 20 23 28
51 52 55 56 56 56 56 55 55 54 53 53 53 53 52 52 53 53 51 49 35 37 37 30 32 29 25 26 28 28 28 32 29 29 26 29 23 21 22 23 22 21 20 21 22 26 28
51 52 54 56 56 56 55 55 55 54 54 53 53 53 53 53 52 53 51 47 42 45 29 33 30 29 28 29 27 28 30 28 29 23 24 25 23 22 24 24 21 22 21 19 24 26 28
51 50 54 55 56 55 55 55 55 54 53 53 53 53 53 52 53 51 52 52 55 49 31 29 31 30 29 29 29 30 29 32 24 26 25 25 20 25 24 25 26 25 21 22 23 26 28
50 49 53 54 55 55 54 54 54 54 53 53 52 53 53 51 48 50 49 51 55 49 30 27 27 27 28 29 27 33 35 30 29 23 26 22 24 27 28 26 26 25 25 29 27 28 23
50 50 52 53 54 54 53 53 53 54 53 53 52 52 52 49 49 47 50 54 57 44 21 26 28 29 29 27 29 32 36 34 30 29 27 21 26 28 29 26 29 29 31 30 29 29 27
50 51 52 53 53 53 53 53 53 53 53 53 52 53 51 49 51 52 55 54 49 34 21 29 28 28 28 30 32 33 35 36 33 32 33 30 30 28 28 29 31 32 31 28 29 29 26
52 52 52 52 53 53 53 53 53 53 52 52 52 54 53 52 44 54 53 47 33 27 31 26 26 28 27 29 32 33 33 34 31 25 31 31 30 33 32 30 33 32 27 24 28 28 26
53 53 52 52 53 53 53 52 52 52 52 52 52 52 53 54 55 54 48 39 27 30 29 30 28 30 28 30 31 33 32 31 35 32 32 29 24 31 34 31 29 32 30 28 19 24 25
52 53 53 52 53 53 52 52 52 52 52 52 53 50 50 53 55 49 42 33 29 29 28 28 30 28 30 32 31 31 32 31 34 35 30 31 27 33 35 35 32 30 31 31 28 25 29
52 52 52 52 53 52 52 52 52 52 52 52 51 46 48 53 52 44 40 31 30 31 32 32 29 32 29 32 31 31 31 33 32 36 35 34 30 32 33 33 34 32 32 28 31 25 21
52 51 52 52 52 52 52 52 52 51 52 52 46 42 47 53 46 38 33 30 32 36 36 34 33 33 33 33 32 32 31 33 34 35 36 33 32 28 30 32 31 32 31 31 31 30 28
51 51 51 51 52 52 51 52 51 51 51 48 42 40 49 49 37 36 32 31 36 36 37 36 37 36 34 35 34 33 33 33 36 37 34 35 32 28 27 32 35 33 31 29 27 23 29
51 51 51 51 52 52 51 50 50 51 51 48 43 43 47 46 35 34 37 36 36 35 36 35 36 38 37 35 33 35 36 40 39 38 36 35 32 24 18 27 30 32 33 31 31 31 29
51 51 51 51 52 52 50 50 51 51 51 46 40 40 43 42 39 36 34 35 35 37 36 38 36 37 36 35 37 35 36 39 40 39 41 39 32 27 22 20 28 30 33 32 33 32 28
51 51 51 51 50 51 50 50 50 51 51 46 42 40 41 36 39 37 37 35 34 33 37 37 36 35 35 33 35 36 37 36 37 40 39 37 34 32 31 32 32 31 31 32 32 33 31
51 51 50 50 50 49 49 49 50 51 51 45 42 41 41 39 38 36 35 37 35 35 35 36 36 38 37 33 33 34 37 36 35 37 37 36 33 34 32 33 32 32 32 33 33 33 33
51 51 50 49 51 49 49 50 50 50 50 46 46 44 42 36 34 35 35 35 35 37 38 38 37 35 33 37 39 39 40 39 38 36 36 36 34 32 27 31 31 27 26 30 31 32 31
51 51 51 51 52 51 49 50 50 50 50 48 47 41 39 35 33 35 37 37 36 37 36 38 37 35 37 41 38 36 31 32 35 38 38 34 33 32 31 31 24 28 30 30 31 30 30
50 51 51 51 52 51 51 50 50 50 51 50 47 42 38 33 36 36 37 37 37 38 38 38 42 40 40 37 34 30 29 27 30 37 37 36 35 32 29 28 29 29 30 29 30 27 31
50 50 51 51 51 51 51 51 50 50 51 52 49 45 40 36 37 38 37 37 35 35 36 41 43 42 39 34 33 28 26 26 27 29 35 35 33 34 31 28 26 30 28 32 34 29 36
50 50 50 50 50 51 51 51 50 50 51 52 51 48 42 38 40 40 38 38 38 37 36 36 40 38 39 34 32 31 32 30 28 25 24 30 31 30 30 29 31 32 32 33 30 33 38
49 50 50 50 50 50 50 51 50 50 50 52 51 51 46 39 42 45 42 39 40 38 37 38 38 38 37 34 33 33 31 31 30 29 27 28 29 28 28 28 25 31 33 34 38 41 39
49 49 50 49 50 49 50 51 50 50 50 50 50 50 49 45 42 48 50 47 44 41 40 38 38 37 39 35 33 33 31 29 30 32 31 31 32 31 32 32 33 34 36 40 40 40 40

GFSGBSN_sfc_dewp_012.txt.gz
Dewpoint
55 55 55 56 56 56 55 55 55 56 55 55 55 55 54 54 54 53 53 53 53 53 54 55 56 56 52 32 28 30 53 48 35 28 26 25 20 20 14 15 16 16 17 18 17 15 15
55 55 55 56 56 56 55 54 55 55 55 55 54 55 55 54 54 53 53 53 53 53 55 56 56 56 40 26 29 31 29 27 29 28 27 25 24 24 23 22 20 24 21 22 22 20 22
54 54 56 57 57 56 54 54 55 54 54 54 54 54 55 55 54 54 53 53 53 55 55 55 56 51 32 29 31 30 27 27 28 30 28 30 27 25 27 27 27 25 22 22 23 22 21
54 54 56 57 56 56 54 55 55 54 54 54 54 54 54 55 55 55 55 55 55 55 55 55 55 50 29 32 32 28 25 25 29 31 32 31 29 28 27 28 22 19 20 16 23 22 25
54 54 56 57 56 56 55 56 55 54 53 53 53 54 54 53 54 54 54 54 54 54 55 54 51 39 25 37 28 29 27 25 29 31 32 28 28 27 24 21 16 17 10 15 19 25 25
52 53 56 57 56 56 56 55 55 54 54 54 53 53 53 53 53 53 53 53 54 53 50 47 36 30 25 24 27 27 27 29 28 30 28 27 26 21 19 11 9 13 12 15 15 21 22
51 52 55 56 56 56 56 55 55 54 54 54 54 52 52 52 53 53 53 50 38 36 32 28 27 25 24 26 28 27 27 28 26 26 23 26 21 21 23 24 21 19 17 17 17 24 27
51 51 54 55 56 55 55 55 55 54 54 53 54 54 53 53 53 53 53 42 44 41 28 29 27 27 27 28 25 29 30 24 25 21 25 21 23 23 25 23 21 21 19 18 22 25 28
51 50 53 55 55 55 55 54 54 54 54 53 53 54 53 53 53 54 52 51 55 49 27 28 29 26 26 30 31 31 30 27 23 22 22 21 21 24 25 26 25 25 22 25 25 26 27
51 50 52 54 55 54 54 54 54 54 54 53 52 53 53 52 49 50 48 51 56 50 27 24 24 26 26 26 28 33 33 28 26 23 22 23 27 27 26 27 28 23 27 29 27 26 18
51 51 52 53 54 54 53 53 53 54 53 53 52 53 52 52 52 43 50 55 58 50 25 25 25 28 31 27 28 31 35 30 27 26 27 23 27 27 27 27 30 29 32 30 30 27 26
51 52 52 53 54 53 53 53 53 53 53 53 52 53 52 50 56 54 57 56 55 39 23 26 26 27 29 31 30 30 32 33 32 28 28 28 30 30 30 30 30 32 31 30 31 30 27
52 52 52 53 53 53 53 53 52 52 52 52 54 54 54 53 48 58 58 50 33 30 30 23 25 28 29 30 31 31 33 34 29 26 28 27 29 32 34 28 32 30 27 27 29 29 27
52 53 52 53 53 53 53 52 52 52 52 53 53 53 54 55 57 58 53 43 27 29 27 27 27 28 27 30 31 32 30 29 33 30 27 25 26 32 34 33 30 31 30 31 21 25 24
52 53 52 53 53 53 52 52 52 52 52 52 53 54 55 57 59 56 44 41 33 28 27 26 27 25 28 30 30 31 32 30 33 34 29 29 27 32 33 33 33 30 31 32 30 31 31
52 52 52 52 53 52 52 52 52 52 52 52 49 50 52 57 57 51 45 33 29 30 31 28 25 29 27 29 29 30 31 33 32 35 36 33 28 30 31 34 34 32 32 30 31 29 17
52 51 52 52 52 52 52 52 51 52 52 52 51 41 52 56 53 42 40 34 32 34 35 31 31 31 32 31 31 31 31 33 34 34 34 31 31 28 31 31 30 32 32 30 29 31 25
51 51 51 52 52 52 52 50 51 51 52 52 51 41 53 55 40 39 35 33 36 35 36 36 36 35 33 34 34 33 33 34 37 36 32 36 34 27 24 33 34 32 30 29 29 21 30
51 51 51 51 52 52 50 50 51 51 52 51 46 45 51 52 44 45 37 35 35 34 35 35 36 36 36 35 34 35 35 39 39 36 35 36 32 22 23 31 32 31 31 32 32 33 29
51 51 51 51 51 50 50 50 51 51 52 50 45 48 46 44 41 37 36 35 35 36 37 37 36 37 36 36 37 36 36 38 39 38 41 40 33 27 18 19 26 25 25 29 30 32 27
51 51 51 50 50 49 50 50 51 51 51 50 46 45 44 45 42 39 37 36 34 34 37 37 35 35 35 36 35 36 36 36 37 40 40 38 30 32 29 28 28 28 27 26 26 29 30
51 51 50 50 50 49 50 50 50 51 51 49 46 45 43 41 41 38 39 36 33 35 34 34 34 36 34 32 29 33 31 31 29 38 36 37 33 34 30 30 28 29 27 26 28 30 30
51 51 49 50 51 50 50 50 50 51 51 49 49 46 45 39 39 42 39 36 35 38 39 37 37 36 37 35 36 40 40 40 37 35 36 37 37 34 33 31 31 32 30 26 27 30 30
51 51 50 51 52 50 50 51 50 50 51 51 49 46 50 44 43 38 37 37 37 37 38 38 37 41 39 42 41 39 37 37 39 39 40 39 38 36 35 34 29 28 29 29 30 29 28
50 51 51 52 52 52 51 50 50 50 51 52 49 46 46 38 42 38 39 39 39 40 39 38 41 42 43 41 41 40 34 37 36 37 37 39 39 35 32 28 28 28 29 30 29 29 32
50 50 51 52 52 51 51 50 50 50 51 53 51 49 46 40 45 38 39 39 41 41 42 43 43 44 43 45 41 35 32 27 26 30 36 36 38 40 34 30 28 31 30 32 34 29 36
50 50 50 51 51 51 51 50 50 50 51 55 54 53 47 50 41 41 41 41 41 41 42 43 43 43 43 43 38 39 35 31 28 33 32 34 34 34 32 32 31 32 32 35 32 36 40
49 50 50 50 50 51 51 51 50 50 50 54 54 54 50 47 44 45 43 42 41 42 45 44 43 44 44 37 37 38 36 36 33 30 31 31 36 33 34 30 29 33 32 36 37 40 41
49 49 49 50 50 50 50 51 50 50 50 52 52 54 53 50 47 51 51 48 47 42 43 45 42 42 45 43 39 38 34 34 39 34 33 32 33 32 32 34 34 36 37 38 41 41 40

GFSGBSN_sfc_dewp_015.txt.gz
Dewpoint
54 55 55 55 56 57 56 56 56 55 55 56 56 55 55 54 54 54 54 53 54 53 54 54 56 57 54 38 24 29 51 52 41 28 23 20 17 13 8 6 5 8 9 6 7 8 9
55 55 55 55 57 57 56 56 55 55 56 55 55 55 55 56 54 54 54 54 54 53 54 55 56 56 49 27 28 27 27 25 27 24 19 18 16 15 10 9 14 16 17 17 17 17 17
55 54 55 57 57 57 57 55 55 55 55 55 55 55 55 55 54 54 54 53 53 53 55 56 56 51 42 28 27 26 25 25 26 28 22 24 21 16 19 21 21 20 19 21 21 21 19
54 54 54 57 57 57 56 55 55 55 54 54 54 55 55 55 55 54 53 53 54 55 55 55 56 49 31 29 28 24 23 23 26 30 29 28 26 26 24 26 20 18 20 18 20 21 23
54 53 54 57 57 56 56 56 55 54 54 53 54 55 54 54 54 55 55 55 55 55 55 55 52 49 25 36 26 24 25 21 26 31 29 26 28 23 26 21 18 18 14 14 19 21 21
53 52 54 56 57 56 57 56 55 54 53 52 53 53 54 54 54 54 54 54 54 54 51 46 40 32 23 21 24 24 25 28 28 30 27 26 24 21 17 15 13 12 8 10 11 19 16
53 51 53 55 56 56 56 55 55 54 54 52 52 53 53 53 53 53 52 47 39 41 35 28 23 23 21 22 25 24 27 27 27 28 24 24 20 20 22 21 17 13 12 12 14 21 21
53 51 52 55 56 55 55 55 54 54 54 53 52 53 53 53 54 54 55 42 43 39 27 27 27 27 27 26 21 25 28 26 26 20 22 18 22 22 22 21 18 18 17 17 19 22 22
53 51 52 54 55 55 55 55 54 54 54 53 53 53 54 53 54 55 49 48 49 46 27 26 26 25 26 27 27 27 27 23 19 17 14 21 22 22 23 21 21 22 21 25 23 22 23
52 50 52 54 55 55 54 54 54 54 54 54 53 53 53 53 51 51 47 50 54 52 26 20 22 25 25 27 27 30 32 26 21 16 18 22 26 24 22 24 26 23 26 26 25 23 18
51 50 52 53 54 54 53 53 53 53 53 53 53 54 53 53 50 42 49 55 58 55 26 24 24 30 26 27 28 29 32 27 21 23 25 24 24 25 25 26 28 27 31 28 27 25 23
51 51 52 53 54 54 53 53 53 53 53 53 53 54 53 51 55 51 53 56 57 39 24 24 24 26 27 28 28 29 29 30 30 23 24 26 28 29 29 28 28 31 30 29 30 26 25
51 52 52 53 54 53 53 53 53 53 52 54 54 54 52 52 47 57 59 52 29 32 26 23 24 26 27 27 29 29 29 31 27 27 27 26 28 30 31 29 31 29 27 29 29 28 27
52 52 52 53 54 53 53 53 52 52 53 53 53 54 56 56 56 59 54 39 32 26 22 24 24 26 26 27 30 29 27 28 30 28 24 23 28 29 31 31 29 28 30 32 21 24 23
52 52 52 53 53 53 53 52 52 52 52 53 53 57 55 59 61 58 42 39 32 24 24 24 24 24 26 27 27 30 31 29 31 33 29 26 27 30 32 32 31 29 29 30 30 32 31
52 51 52 53 53 53 52 52 51 52 52 54 46 46 48 59 60 55 45 36 30 29 26 25 24 28 25 26 27 28 29 32 30 32 33 30 28 28 30 32 33 31 30 30 31 28 17
52 51 52 52 53 52 52 51 51 52 52 54 49 39 55 59 56 43 40 34 30 32 32 29 27 27 28 29 28 29 29 32 32 31 30 28 27 28 28 29 27 30 30 29 25 28 25
51 51 51 52 53 52 51 51 51 52 52 52 49 39 55 57 39 42 37 32 36 33 35 34 33 31 31 32 31 31 31 34 35 35 31 33 31 28 21 30 33 31 29 27 29 22 27
51 51 51 52 52 51 50 51 50 51 52 52 40 44 53 54 44 47 38 35 34 33 33 33 35 35 35 34 33 34 35 39 38 36 35 34 32 24 22 30 31 28 28 26 28 32 26
51 51 51 51 50 50 51 51 51 51 52 53 43 47 44 45 42 37 36 34 35 36 36 36 36 36 36 34 35 35 36 38 40 38 41 39 30 25 23 20 21 22 21 22 26 30 29
51 51 51 50 50 50 51 51 51 51 51 53 46 45 44 43 41 39 37 35 33 33 35 35 34 33 35 35 34 34 35 37 37 39 38 36 29 29 27 23 22 22 23 23 21 23 27
51 51 50 50 50 50 50 51 51 51 51 50 42 43 44 44 40 38 38 34 31 33 34 33 33 34 33 36 30 33 31 28 28 35 34 34 33 34 30 26 23 25 23 22 22 24 25
51 51 50 50 50 50 50 51 50 51 51 48 49 49 45 41 41 40 38 35 33 38 38 33 35 33 36 33 37 38 39 37 34 34 34 35 37 32 31 32 32 33 30 22 23 25 28
51 50 50 51 51 50 51 51 50 51 51 51 50 47 50 45 43 38 35 35 36 35 37 36 35 39 40 41 40 39 38 37 37 38 38 40 36 39 36 35 30 28 28 27 26 27 27
51 51 51 52 52 52 51 50 50 50 52 52 49 48 48 42 41 38 37 37 39 39 39 39 41 42 43 40 41 37 35 37 37 35 36 38 40 36 34 29 27 27 29 30 30 30 29
50 51 52 52 52 51 51 50 50 50 52 53 52 53 49 43 47 38 40 40 42 42 42 43 44 45 44 46 42 36 32 26 29 32 36 37 41 39 36 31 29 31 30 32 33 30 37
50 51 51 51 51 51 51 51 50 50 51 55 54 57 48 52 43 42 42 42 41 41 41 43 44 45 45 45 39 40 34 30 27 34 32 36 37 37 33 34 31 29 32 34 30 34 39
50 50 50 51 51 51 51 51 50 50 50 54 54 56 52 49 45 44 43 43 43 41 46 45 44 45 47 39 40 41 38 36 33 28 33 33 35 33 35 33 29 32 32 35 38 41 40
49 49 50 50 50 51 51 51 50 50 50 52 51 53 54 49 49 52 50 50 48 45 43 47 41 44 44 44 43 44 39 37 39 33 30 31 34 34 33 33 32 35 36 39 40 41 41

GFSGBSN_sfc_dewp_021.txt.gz
Dewpoint
54 54 56 56 56 56 57 57 57 54 54 54 54 54 55 56 56 56 53 53 53 54 55 55 54 55 54 50 41 28 61 59 50 43 39 37 30 20 18 14 9 5 5 5 6 9 10
55 56 56 56 56 56 57 57 57 54 54 54 55 56 56 56 56 56 54 53 53 55 55 54 55 56 53 38 32 28 29 45 37 39 35 33 23 16 16 16 10 11 6 5 7 11 13
55 56 56 56 55 57 57 57 56 54 55 56 56 56 55 55 55 55 54 53 54 54 54 54 56 54 50 45 29 25 26 24 25 27 27 25 25 21 20 19 24 17 13 14 15 14 15
55 55 55 55 55 56 56 56 56 56 56 56 56 55 55 55 55 55 53 53 54 54 54 55 56 53 44 38 26 23 22 23 25 26 29 28 28 25 29 21 18 16 19 16 18 17 18
55 55 55 54 55 56 56 56 56 56 55 55 55 55 55 54 54 55 54 54 54 55 56 56 53 52 41 38 27 25 23 23 27 29 32 24 28 28 21 19 18 21 15 19 18 20 20
55 55 54 54 55 56 56 56 56 55 55 55 54 54 54 54 54 54 54 55 55 55 54 51 49 44 43 26 27 23 24 27 31 33 33 31 26 23 21 20 17 18 15 20 18 18 16
54 54 53 53 55 56 56 56 55 55 55 55 54 54 54 54 54 54 52 50 45 45 48 38 36 39 24 20 22 21 24 27 29 31 27 27 24 23 21 21 17 16 16 19 19 20 20
55 54 52 53 55 56 56 56 55 55 54 54 54 53 54 54 54 54 51 50 42 40 36 39 33 30 28 24 21 23 26 31 33 27 27 25 24 22 23 22 22 18 20 24 21 22 19
54 54 52 52 54 55 55 55 54 54 54 54 54 53 53 54 53 52 51 51 50 52 32 30 30 25 31 29 28 24 28 29 25 24 26 24 23 24 21 26 24 26 26 25 24 23 22
54 53 51 53 54 55 54 54 54 54 54 54 53 53 53 53 50 54 49 48 54 56 27 25 26 27 28 30 29 27 27 29 25 25 27 25 25 23 23 26 25 27 30 29 26 24 22
54 52 51 53 53 54 53 53 54 54 54 54 53 54 53 54 51 52 50 52 55 53 23 24 27 28 26 31 28 29 28 30 26 24 26 26 26 29 29 27 27 30 33 30 29 26 26
54 52 51 53 53 53 53 53 53 53 53 54 53 53 52 51 52 55 57 58 52 42 23 28 26 27 23 30 29 25 28 32 30 24 26 26 29 29 28 29 29 28 31 31 31 28 26
53 52 52 53 53 53 53 53 53 53 53 54 53 54 52 54 55 58 59 52 36 32 29 22 25 27 27 28 28 27 26 29 29 25 27 27 29 31 31 30 33 30 30 28 27 28 27
52 52 53 53 53 53 53 53 52 52 53 54 54 52 55 59 61 60 57 43 32 29 25 23 26 28 27 29 28 30 28 28 31 34 31 28 27 29 31 30 28 31 29 27 24 25 26
52 52 52 52 53 53 53 51 51 52 52 53 54 57 58 60 60 58 49 38 36 30 24 25 26 27 27 29 30 30 30 29 29 30 31 32 28 30 30 30 30 30 27 28 30 29 26
52 52 52 52 53 52 51 50 50 52 52 53 53 55 53 59 60 55 46 41 37 30 28 26 25 28 26 25 28 30 31 33 31 32 32 29 28 29 29 30 32 29 28 29 30 22 21
52 52 52 51 52 52 50 50 50 52 52 54 55 44 55 60 57 47 40 43 33 30 36 34 31 28 30 27 28 30 31 33 34 33 30 32 32 29 29 27 27 30 30 29 27 28 24
51 51 51 52 52 50 50 50 50 52 52 52 53 40 57 59 40 43 40 40 35 33 37 37 37 31 33 31 33 33 35 35 36 38 32 32 32 26 28 29 29 29 30 30 26 25 28
51 51 50 51 50 50 50 50 51 52 52 55 48 50 57 57 36 38 41 37 37 33 34 36 35 36 35 36 33 38 39 41 41 38 38 36 30 27 28 32 31 26 27 27 35 30 24
51 50 50 51 49 50 50 50 51 52 52 53 52 42 48 50 48 43 39 36 37 38 38 36 35 37 36 35 36 38 38 42 41 37 41 40 30 28 26 24 24 23 23 22 29 27 27
51 50 50 49 49 50 50 51 51 51 51 52 51 45 42 37 38 41 41 37 36 37 38 38 37 36 35 33 35 37 39 39 41 40 39 36 30 32 30 27 25 24 23 23 22 24 23
51 50 50 50 49 50 50 51 51 51 50 52 50 48 45 41 37 39 40 36 36 35 36 35 35 35 37 36 37 36 37 36 36 35 36 37 32 30 28 31 29 26 27 28 25 27 27
51 51 50 50 49 50 52 51 50 51 52 52 52 51 49 45 39 40 38 38 38 39 40 40 37 39 37 38 39 40 39 37 38 35 36 37 31 29 28 32 31 25 29 27 27 28 28
51 50 50 51 49 52 52 50 50 51 52 57 55 54 46 38 43 40 39 39 39 37 37 42 42 38 40 40 38 38 35 36 39 37 41 34 33 31 24 24 9 30 30 30 30 29 29
50 49 50 52 52 52 51 50 50 50 51 56 55 55 46 36 45 41 38 38 40 43 42 42 42 41 41 43 35 26 30 25 32 36 37 40 33 25 25 25 25 28 32 31 30 29 37
49 49 51 52 51 51 50 50 50 50 51 55 55 56 52 41 40 45 38 41 41 41 42 43 45 46 46 38 30 25 25 27 30 33 37 40 35 28 28 18 14 28 33 34 34 27 40
50 51 52 52 52 51 51 50 50 50 50 56 55 56 55 45 46 46 42 41 45 43 41 43 43 41 46 34 33 30 28 33 29 29 27 31 32 24 23 18 27 34 34 35 25 26 40
50 51 51 51 52 52 51 50 50 50 50 55 53 55 54 46 47 50 50 45 45 46 38 43 39 39 36 35 33 32 29 31 30 33 31 27 27 24 28 26 22 35 33 28 33 41 41
50 50 50 51 51 52 51 50 50 50 50 52 52 54 56 52 50 51 50 50 50 50 46 44 38 44 44 38 34 35 33 35 32 26 35 29 33 30 30 29 34 36 35 39 41 41 39

GFSGBSN_sfc_dewp_024.txt.gz
Dewpoint
56 55 55 56 56 56 56 57 58 57 55 54 54 53 53 54 55 57 56 54 53 53 53 54 54 54 53 49 40 38 58 60 55 45 38 34 34 25 17 16 8 5 6 5 11 11 8
56 55 56 56 56 55 56 57 57 56 54 54 53 54 55 56 56 56 56 53 53 53 54 54 54 54 51 41 37 32 42 49 40 39 37 38 32 25 21 15 7 8 6 5 7 13 14
56 56 56 56 56 56 56 57 56 56 54 55 56 56 56 56 56 55 55 53 53 54 54 54 54 54 51 44 40 37 31 31 34 38 30 29 29 25 25 19 14 11 7 11 12 13 14
56 56 56 56 55 55 56 56 56 57 56 56 56 55 55 55 55 55 55 52 53 54 54 55 56 53 43 41 38 24 25 23 25 28 32 32 29 29 22 21 17 15 17 14 16 16 18
56 56 56 56 54 55 55 56 56 56 56 55 55 55 54 54 54 54 54 53 53 54 54 56 52 52 33 43 25 22 25 24 27 29 27 22 27 26 21 18 16 19 13 18 19 18 17
56 56 56 55 54 55 56 56 56 55 55 54 54 54 54 54 53 53 54 54 55 54 54 52 50 44 41 35 26 23 24 25 29 30 27 24 26 23 21 18 14 15 16 24 16 18 20
56 56 55 54 53 55 56 56 55 54 54 54 54 54 54 54 53 53 52 49 42 43 48 30 35 40 33 30 22 22 25 24 29 29 26 28 23 20 18 20 18 17 20 19 19 21 18
56 56 55 53 53 55 56 55 54 54 54 54 53 53 53 54 53 53 50 48 40 42 28 38 41 38 37 21 23 22 26 28 31 26 29 24 22 22 22 24 26 23 22 22 22 23 18
55 54 54 52 54 55 55 54 54 54 54 53 53 52 53 53 53 51 47 49 51 50 40 29 34 30 27 29 26 22 28 31 27 26 26 24 22 24 27 26 25 29 26 26 24 24 23
55 54 53 51 53 54 54 54 54 54 53 53 52 53 52 53 47 49 44 43 48 48 26 25 27 26 28 30 29 27 28 30 28 27 26 24 24 26 28 26 27 29 30 28 26 24 17
54 53 52 51 53 53 53 53 53 53 53 53 52 53 52 52 48 51 49 56 54 48 18 23 27 27 27 30 28 27 28 31 27 25 25 26 29 29 28 28 28 28 31 29 29 25 26
53 53 51 51 52 53 52 53 52 53 52 52 52 53 52 50 50 51 57 58 44 37 20 27 27 25 24 29 28 26 28 30 31 27 26 26 30 29 29 30 29 30 31 33 31 29 25
53 52 51 52 52 52 53 52 52 52 52 52 52 53 51 54 53 58 58 43 34 29 28 23 25 26 25 27 28 26 28 31 31 24 25 28 30 30 31 30 31 28 31 26 26 26 25
53 52 51 52 52 52 52 51 51 51 52 53 52 52 52 55 60 58 50 37 31 31 27 26 27 29 26 28 29 30 30 30 30 34 27 27 26 29 30 30 28 30 30 26 24 22 24
52 52 52 52 52 52 51 50 51 50 52 52 52 52 57 58 58 55 44 35 34 31 26 25 27 27 29 29 27 30 30 29 29 31 29 29 27 31 30 30 31 30 25 29 28 28 24
52 52 52 51 52 52 50 50 50 52 52 52 52 51 48 57 57 49 44 38 38 32 33 27 25 29 26 26 28 30 31 33 31 32 33 31 27 30 29 31 31 25 28 27 27 20 20
52 52 52 51 52 50 50 50 50 52 52 52 52 39 46 59 50 43 38 41 36 34 37 32 31 27 29 27 28 31 32 34 35 33 29 33 30 27 32 27 27 28 28 29 27 27 22
51 51 51 51 51 49 50 50 50 52 52 51 49 37 53 48 31 41 38 40 36 33 35 35 36 35 30 31 35 36 35 36 39 40 29 33 30 25 29 28 29 28 29 29 24 21 26
51 51 51 51 49 49 50 50 51 51 52 51 45 48 55 45 29 33 39 36 36 34 34 34 36 37 37 34 35 39 38 42 38 37 36 32 28 25 27 31 31 26 28 33 31 28 23
51 50 50 49 49 49 49 50 51 51 51 53 49 40 45 48 43 36 40 35 36 38 37 37 35 36 35 35 39 37 38 40 38 35 41 39 31 26 25 26 25 21 23 29 29 25 25
50 50 50 49 49 49 50 51 51 51 51 50 49 42 39 33 35 41 40 36 36 35 37 36 34 35 35 33 37 37 39 39 38 38 36 34 29 31 29 27 26 24 24 24 22 25 24
50 50 49 49 49 49 50 51 51 51 50 49 49 46 43 36 35 37 40 37 35 36 36 35 34 37 37 35 35 36 37 36 34 34 35 37 29 29 23 32 31 24 25 27 27 25 25
50 50 49 49 49 50 51 50 50 51 50 49 51 51 43 42 34 36 38 36 38 38 38 39 39 37 36 38 39 39 38 38 38 34 37 35 29 25 21 31 28 23 27 28 26 28 27
50 50 49 50 49 52 51 50 50 50 52 56 55 51 43 36 39 36 40 38 38 38 39 42 40 36 40 42 35 32 33 36 38 39 38 33 32 27 20 20 4 24 30 29 29 31 34
50 49 50 51 51 51 50 50 49 50 51 54 55 51 42 34 43 40 38 42 42 43 42 43 44 41 42 39 29 24 27 28 32 39 41 37 29 26 16 23 19 26 31 29 27 28 37
49 49 51 51 51 50 50 49 49 50 51 53 53 54 44 39 38 45 40 41 40 40 40 42 45 46 42 34 27 24 22 20 29 32 36 37 31 24 28 11 7 20 33 33 32 27 39
49 51 51 51 51 50 50 50 49 50 51 53 52 54 50 42 45 46 40 40 43 41 39 41 41 40 40 29 31 23 28 31 29 27 25 29 26 24 16 15 24 28 34 34 25 25 40
50 50 51 51 51 50 50 49 49 50 50 51 51 54 49 44 47 49 48 44 45 42 37 41 37 37 37 29 26 33 25 29 29 32 30 28 27 24 23 17 19 33 34 28 32 39 40
50 50 50 50 51 50 50 50 49 50 50 53 47 54 54 48 47 49 49 50 49 46 45 42 35 40 39 35 34 35 27 34 28 27 34 25 28 28 29 28 31 35 34 36 41 40 39

GFSGBSN_sfc_dewp_030.txt.gz
Dewpoint
59 58 57 57 57 57 56 56 57 56 56 57 56 56 54 53 53 53 53 54 56 53 52 52 52 53 51 47 38 49 61 60 44 34 30 31 30 28 24 21 17 13 6 11 8 8 14
58 58 57 57 57 56 55 56 56 56 56 56 56 55 53 53 53 53 54 55 55 52 52 51 53 53 49 33 32 48 51 44 39 34 33 32 32 31 27 18 9 10 7 9 11 9 13
59 58 57 56 56 56 56 56 56 55 56 56 56 55 54 55 54 55 56 55 54 52 51 52 52 52 50 37 36 40 43 38 40 37 35 35 33 28 27 19 14 12 6 9 11 12 15
58 58 57 56 56 55 56 55 55 55 56 56 56 56 55 55 55 55 55 54 53 51 52 54 53 52 43 38 41 40 35 28 37 38 35 32 36 31 23 19 19 14 15 7 11 14 17
57 57 57 56 56 56 55 55 54 55 56 56 56 55 55 54 54 54 54 54 52 51 53 55 51 50 34 38 33 30 26 23 27 34 34 26 28 24 21 16 14 16 11 16 16 16 16
58 57 57 56 56 56 55 55 54 55 55 55 55 55 54 54 54 53 53 53 54 53 52 53 52 42 34 25 33 23 24 26 29 31 27 27 25 20 20 12 10 10 14 22 14 22 16
58 57 56 56 56 56 56 55 54 55 55 54 54 54 54 54 54 53 52 49 43 42 48 35 32 32 36 36 27 21 23 27 29 27 25 27 22 18 18 18 16 17 16 15 18 19 18
57 56 56 56 56 56 55 54 54 55 54 54 54 54 54 54 54 53 49 43 36 40 38 42 41 40 39 36 28 20 26 26 27 24 27 24 21 22 28 27 24 22 20 20 23 24 21
56 56 56 56 56 56 55 54 55 54 54 54 54 53 53 53 53 51 47 45 49 45 39 35 39 33 27 33 27 21 27 29 25 24 24 22 23 27 28 28 27 28 23 24 22 22 22
56 55 55 55 56 55 54 54 55 54 53 53 53 53 53 53 48 46 40 41 51 44 26 24 27 28 27 29 27 26 29 27 26 23 23 26 30 27 25 25 28 25 29 26 24 19 19
55 54 54 55 55 54 52 53 54 54 53 53 53 53 53 51 47 46 42 56 53 39 18 23 25 25 27 25 23 23 30 28 23 25 25 27 28 27 25 26 27 27 30 27 26 25 24
55 54 54 54 53 53 52 52 53 53 53 53 52 53 52 50 48 49 54 49 40 33 18 24 25 23 25 27 26 25 31 32 29 29 29 29 30 28 27 30 28 29 31 31 31 28 24
54 54 54 53 53 52 51 52 52 52 52 53 52 53 51 50 51 56 52 37 28 27 28 23 23 24 25 26 26 29 30 30 25 25 27 29 29 30 31 29 30 30 29 25 25 24 24
52 53 53 53 52 51 52 52 52 50 52 52 52 52 51 50 54 54 41 29 22 29 26 26 25 25 24 28 29 30 30 28 29 28 27 26 24 28 29 28 27 28 28 26 21 23 24
49 53 53 52 51 51 52 52 51 50 51 52 52 49 51 56 52 48 35 26 26 32 26 26 25 24 27 28 28 29 29 27 28 30 26 27 25 29 28 29 30 29 25 28 27 27 24
50 53 52 51 51 51 52 51 50 50 52 52 50 49 50 55 53 46 34 29 35 38 30 27 22 27 25 26 28 29 30 32 29 31 32 30 26 28 27 30 29 26 30 25 25 18 18
54 52 51 51 51 51 52 50 49 50 52 52 44 39 44 54 42 36 27 30 41 38 34 27 27 28 28 26 30 30 30 34 36 34 32 30 27 25 29 26 26 28 26 26 27 24 19
52 51 51 50 51 52 50 50 50 50 52 51 40 34 52 40 32 37 36 40 41 31 34 35 33 30 29 32 33 32 32 34 38 37 27 32 28 26 27 28 31 28 26 24 19 17 24
52 50 50 51 51 50 50 49 50 51 52 49 46 48 53 37 29 32 34 38 36 31 34 33 34 35 37 36 32 36 36 38 35 34 30 29 27 25 23 24 27 26 29 29 26 26 23
50 50 50 51 50 49 49 49 50 51 52 49 45 41 44 43 37 31 30 35 33 36 35 35 35 36 36 36 38 36 36 38 35 33 40 35 29 25 22 21 25 21 27 28 25 22 22
50 50 50 50 49 49 49 49 51 51 51 50 44 39 41 37 39 32 34 34 33 32 35 34 33 34 34 33 35 35 37 36 33 38 36 30 26 27 28 29 25 21 21 28 24 23 21
50 50 49 49 49 49 49 50 51 51 51 48 47 40 37 35 41 37 37 35 33 34 35 33 32 37 35 33 32 34 36 33 27 34 34 34 27 23 28 30 28 24 23 23 24 23 26
50 49 48 48 48 49 50 50 51 51 50 46 48 47 39 37 36 36 37 37 36 37 39 38 36 35 33 36 38 39 38 38 34 33 34 30 27 23 19 26 21 16 22 23 24 27 24
49 48 48 49 49 50 50 50 50 50 50 50 50 47 40 32 32 37 38 38 37 36 37 40 38 35 37 38 35 32 33 38 39 39 35 29 26 21 16 18 6 17 26 27 26 27 27
48 48 49 49 50 50 50 50 50 50 51 53 52 45 40 32 34 35 39 41 41 41 40 41 42 40 38 29 29 27 26 27 30 37 33 32 26 23 15 17 15 14 25 28 27 24 32
48 49 49 50 49 49 49 49 50 50 51 54 52 47 44 39 38 40 40 40 37 37 37 40 44 41 35 29 25 21 21 23 24 32 36 30 27 22 20 9 4 16 25 31 29 25 32
49 50 50 50 49 49 49 49 50 50 51 53 51 50 46 42 44 42 39 39 39 38 37 39 39 37 35 26 21 21 21 24 23 23 26 27 24 19 16 12 19 22 30 31 22 23 36
50 50 50 50 49 49 49 49 50 51 51 54 52 51 46 43 45 47 46 42 41 39 36 39 36 36 31 27 25 25 21 28 28 28 31 29 29 28 23 15 18 28 32 27 30 32 37
49 49 50 50 48 48 48 49 50 51 51 52 52 52 50 47 46 48 47 47 46 41 42 39 37 37 36 30 25 29 28 31 26 23 32 26 27 26 26 27 29 30 34 34 34 34 37

GFSGBSN_sfc_dewp_033.txt.gz
Dewpoint
59 59 59 58 58 57 57 57 56 56 56 56 57 57 56 54 53 54 53 53 53 54 53 52 51 52 51 46 39 48 61 60 47 33 31 30 29 28 29 27 19 17 10 10 10 17 27
59 59 58 58 58 57 57 57 56 56 56 56 56 56 56 54 53 53 52 52 53 53 52 51 52 52 49 33 32 52 49 43 38 33 32 31 28 30 28 19 17 17 9 10 10 14 14
59 59 58 57 57 57 57 56 56 56 56 55 56 56 56 56 55 54 53 54 55 54 51 51 52 51 50 37 35 47 43 41 38 34 33 33 33 30 28 21 16 11 11 12 14 14 16
59 59 58 57 57 56 56 55 55 56 55 55 56 56 55 55 55 55 55 55 54 52 50 51 53 51 43 41 43 40 39 35 38 37 34 36 35 32 27 20 20 14 17 10 12 14 16
58 59 58 58 57 56 55 55 55 55 55 55 56 55 55 54 54 54 54 54 53 51 51 54 52 51 36 41 33 32 30 24 35 37 38 31 35 29 21 19 18 20 10 15 13 16 16
54 59 58 57 57 56 55 55 55 55 54 55 55 55 55 54 54 53 53 53 53 52 52 52 52 45 35 27 34 26 27 28 35 32 31 29 27 23 21 16 13 15 14 15 14 16 20
54 55 58 57 57 56 56 56 55 54 54 55 55 54 54 54 54 53 52 51 45 44 49 38 35 35 32 36 33 23 26 32 33 31 28 28 22 19 20 21 14 16 16 16 18 20 31
53 53 58 57 56 56 56 56 55 54 54 55 54 54 54 54 54 53 50 45 39 42 40 44 42 40 40 38 30 22 30 30 31 27 26 26 24 23 29 23 24 22 21 22 23 23 28
52 52 57 57 56 56 56 55 55 53 54 54 53 54 54 53 53 52 49 48 49 48 43 37 41 37 30 34 28 25 30 31 27 25 24 26 23 27 29 27 27 27 25 24 22 23 25
52 51 55 56 56 56 55 55 55 54 54 53 53 53 53 53 49 49 46 45 46 50 30 28 29 29 30 30 30 26 30 30 28 25 27 28 30 27 26 27 27 26 28 25 23 21 19
51 51 50 55 55 55 54 54 54 54 54 53 53 53 53 52 46 43 42 54 50 44 22 26 26 28 29 26 26 28 34 29 27 27 27 28 29 27 27 27 28 29 31 28 26 26 26
51 49 50 53 54 54 54 53 52 53 53 53 53 53 53 52 50 50 54 51 46 35 23 25 25 24 27 29 27 28 34 33 31 32 32 30 30 29 28 31 29 33 32 32 32 29 25
50 49 49 50 54 54 53 52 52 52 52 52 53 53 52 50 48 57 54 43 31 29 30 24 24 26 27 28 29 31 31 32 27 29 29 29 29 30 32 30 31 32 30 27 28 29 26
49 50 49 49 54 53 53 52 51 52 52 52 52 52 52 51 53 55 44 33 26 28 28 27 25 26 27 28 31 31 30 29 31 29 28 26 25 27 30 29 29 29 30 31 21 25 26
48 48 48 49 53 53 52 51 52 52 50 52 52 50 50 54 53 51 37 30 28 28 29 26 26 26 28 30 30 30 29 28 29 30 27 29 26 28 29 30 30 29 25 29 29 27 26
48 48 48 50 53 52 51 51 52 51 49 52 49 48 49 57 55 45 35 30 30 36 31 26 23 29 28 28 29 29 30 32 30 32 33 32 28 28 28 30 31 28 30 27 28 22 16
47 47 48 50 50 51 50 51 51 50 50 52 48 45 49 56 47 38 32 30 38 42 35 27 28 29 29 29 30 30 30 34 35 32 33 31 30 28 30 27 28 29 28 28 27 25 18
47 47 49 48 50 50 50 51 50 49 51 51 43 37 54 45 35 37 34 34 41 35 36 36 33 32 31 33 33 32 32 33 38 38 31 32 31 29 27 28 31 28 28 27 25 19 26
47 48 48 50 51 50 51 50 49 50 52 49 41 49 54 41 33 35 35 38 37 34 36 35 36 37 38 37 34 36 37 39 38 34 34 33 31 28 25 25 28 28 29 26 27 28 25
47 47 47 49 50 51 50 49 49 51 52 50 47 43 46 41 38 34 35 34 35 38 37 36 36 38 38 37 38 37 37 38 38 35 40 37 30 29 26 23 26 26 29 26 27 27 23
47 48 48 50 50 50 49 49 49 50 52 50 44 42 44 37 36 33 33 36 34 34 37 36 36 36 36 35 36 36 37 35 34 39 37 33 29 28 28 28 26 21 25 28 24 25 25
48 48 49 50 50 49 49 49 49 50 52 50 44 40 38 38 40 35 37 36 34 36 37 35 35 38 37 35 35 36 37 34 28 35 35 34 30 27 28 29 27 25 24 24 27 25 25
49 48 50 49 49 49 49 49 50 51 50 48 50 45 39 37 38 34 35 37 35 39 41 39 37 37 35 38 39 39 39 39 36 35 34 31 31 27 24 25 21 24 25 25 24 26 27
49 49 49 49 48 48 49 49 50 51 50 50 50 45 38 33 37 33 37 39 37 38 38 40 39 37 39 41 37 36 36 38 38 36 34 30 27 25 26 22 17 21 27 26 26 26 26
49 49 48 48 48 48 50 50 50 50 51 53 52 45 39 34 34 36 40 41 41 42 41 41 43 40 40 34 35 31 31 32 33 34 31 31 28 25 27 20 17 14 21 27 28 23 28
48 49 49 48 49 50 49 50 50 50 51 53 52 49 43 37 35 39 41 40 39 39 39 42 43 41 36 32 32 29 29 28 25 32 35 30 29 31 24 22 18 20 21 32 30 28 29
48 48 49 50 49 49 49 50 50 50 51 53 52 50 47 43 46 43 40 40 41 39 39 40 39 40 37 32 32 30 28 25 24 25 31 33 31 30 21 26 24 24 25 32 26 28 34
49 49 49 49 49 49 49 49 49 50 51 53 52 52 48 44 47 48 47 41 41 41 39 41 39 39 35 34 35 30 32 30 28 28 32 31 31 30 25 25 24 28 32 32 34 34 35
49 49 49 48 48 48 49 50 49 49 51 52 52 53 50 47 47 49 48 49 49 43 42 41 40 39 39 35 32 31 32 32 29 29 32 29 31 30 28 30 32 30 36 35 35 35 36

GFSGBSN_sfc_dewp_036.txt.gz
Dewpoint
61 60 60 59 59 58 58 58 57 56 56 56 56 56 56 56 55 54 53 53 53 53 55 52 51 52 51 45 33 46 60 59 44 32 32 29 25 21 16 19 21 20 16 11 13 24 32
56 60 59 59 58 58 58 58 57 56 56 56 56 56 56 56 55 53 53 53 53 54 54 51 51 53 49 36 28 45 47 42 33 30 31 31 23 24 27 23 21 18 11 9 11 19 30
56 56 59 58 58 58 58 57 57 56 56 56 55 55 56 56 56 54 53 54 54 55 52 50 52 50 48 37 33 43 41 36 36 32 30 31 29 27 29 25 11 13 11 15 19 24 25
56 56 58 58 58 57 57 57 56 56 56 55 55 55 55 55 55 55 55 55 55 53 51 51 53 51 41 36 36 37 36 37 37 35 33 33 33 29 29 21 15 10 12 13 18 22 18
55 55 55 59 57 57 56 56 56 56 56 55 55 55 55 55 54 54 54 54 54 51 51 54 52 51 35 41 31 29 33 28 34 36 36 34 33 29 25 18 12 15 6 10 12 15 20
54 54 54 57 58 57 56 56 55 55 55 55 54 55 55 54 54 54 54 54 53 52 52 52 51 48 40 25 30 30 26 26 32 34 32 31 28 21 19 14 8 12 6 8 8 13 15
53 54 54 54 58 58 57 56 55 55 54 54 54 55 54 54 54 53 52 50 46 45 48 38 32 36 29 31 32 23 22 29 32 29 23 28 22 15 15 15 13 11 15 13 14 20 18
52 53 54 54 55 58 57 56 55 55 54 54 54 54 54 54 54 53 52 42 38 46 35 40 38 37 35 35 28 22 24 23 25 20 27 25 20 23 24 21 19 18 17 20 21 20 23
51 52 53 53 54 58 57 56 55 55 54 54 54 54 54 54 53 52 49 43 48 47 43 34 37 32 28 33 24 21 23 26 23 21 24 20 24 28 23 22 21 23 21 23 20 22 25
51 51 52 53 52 55 56 56 55 55 54 53 54 53 53 53 49 49 46 44 46 49 33 24 27 27 27 30 24 24 28 25 26 21 26 26 27 26 25 23 25 22 26 23 22 21 16
50 51 52 52 52 54 55 55 55 55 54 53 53 53 53 52 48 43 41 43 50 50 18 21 25 27 28 26 22 26 32 27 21 25 26 26 26 25 23 25 27 27 27 25 24 22 23
49 50 51 51 51 52 55 54 54 54 53 53 53 53 53 51 51 49 54 56 52 37 21 23 24 24 25 25 23 27 29 30 30 28 28 28 30 28 28 30 28 32 30 30 29 26 22
49 50 50 50 51 50 55 54 53 53 53 53 53 53 53 50 42 59 56 51 35 28 25 22 22 23 22 23 25 26 28 27 23 26 27 27 28 29 31 29 32 30 26 22 24 25 21
48 49 49 50 50 50 53 54 53 52 52 52 52 52 53 49 50 57 54 42 27 19 23 24 22 22 21 24 26 29 29 25 29 27 24 21 24 26 29 29 25 27 24 22 11 19 21
47 48 49 50 50 50 51 53 52 51 52 52 52 52 51 52 54 55 45 36 26 26 25 23 23 21 24 25 23 28 29 25 28 30 21 24 23 28 29 30 29 28 25 30 28 30 29
46 47 48 49 49 50 49 53 51 52 51 52 50 49 47 53 55 50 43 33 28 33 28 24 20 22 23 24 22 25 28 30 29 31 34 30 26 27 28 30 31 30 29 26 29 22 13
46 47 47 49 49 49 49 52 51 51 51 52 49 42 51 58 55 47 37 32 29 38 33 25 20 25 24 27 23 22 26 31 32 31 33 31 27 29 30 27 25 29 28 26 25 26 16
45 46 47 48 48 49 49 52 51 51 51 50 47 39 58 56 46 46 35 31 38 33 38 30 28 26 27 29 29 25 26 28 36 33 30 33 32 31 27 29 30 29 28 26 22 19 28
45 45 46 47 47 47 48 50 51 50 51 49 42 47 55 50 41 41 36 33 38 31 33 33 31 31 34 32 30 32 34 37 37 34 34 33 31 29 27 28 29 28 29 26 27 29 24
44 45 46 47 46 49 48 49 50 50 51 49 42 45 52 47 39 37 34 32 33 36 35 35 36 38 37 35 37 36 36 36 36 35 40 36 32 28 25 23 26 28 28 27 25 25 19
45 46 46 47 47 49 49 51 50 50 51 52 44 42 44 42 37 37 34 31 32 34 35 36 36 34 34 36 35 36 37 33 35 39 38 35 30 29 27 26 25 23 24 26 22 22 24
45 46 46 46 47 47 49 50 50 50 51 55 43 42 42 40 37 35 36 33 31 35 35 33 35 37 37 35 33 36 36 33 33 36 36 34 32 31 29 28 27 25 24 22 25 23 24
46 45 45 47 47 47 50 49 49 50 51 49 53 45 40 40 36 35 33 34 32 40 40 38 38 38 38 38 40 40 40 37 34 36 36 35 35 30 23 25 24 32 28 24 23 27 27
46 45 46 47 47 50 49 49 49 50 51 50 52 44 44 39 36 29 33 37 36 38 39 39 39 39 41 41 40 39 38 37 36 36 34 34 32 33 31 28 29 15 22 23 25 24 23
46 47 48 48 50 49 48 48 49 49 51 56 53 47 44 41 37 33 36 40 41 42 42 41 42 41 42 38 39 36 38 41 37 35 32 31 32 32 36 22 18 12 17 19 22 16 22
47 48 49 49 49 48 48 48 49 50 51 57 56 52 47 45 41 32 39 42 41 42 42 42 41 41 37 40 41 38 34 31 31 33 34 30 33 35 31 34 33 22 26 31 30 23 25
47 49 49 48 48 48 48 49 49 50 51 57 55 55 48 49 41 44 38 42 43 42 42 41 40 41 39 43 44 40 35 28 28 31 34 37 37 37 33 36 28 23 23 32 24 24 31
48 48 48 48 49 49 49 49 49 50 51 56 55 55 52 50 48 48 45 44 42 44 44 42 40 42 43 45 44 39 41 32 29 27 31 33 36 37 33 35 30 27 32 31 34 35 33
48 49 49 48 48 49 49 49 49 50 51 53 54 55 53 50 49 50 50 50 48 45 45 44 43 41 42 43 43 42 39 37 35 33 33 31 33 34 31 31 30 31 35 35 37 37 37

GFSGBSN_sfc_dewp_039.txt.gz
Dewpoint
56 57 59 60 60 59 59 59 58 57 57 57 57 57 56 56 56 56 54 53 53 53 53 54 52 52 51 43 30 46 61 61 43 36 29 23 19 19 15 11 14 15 17 14 18 23 29
56 56 56 59 59 59 59 59 58 57 57 56 56 56 56 56 56 56 53 54 52 54 54 53 52 53 49 35 26 36 40 40 28 31 26 26 21 19 22 20 19 19 17 14 23 27 29
54 56 57 56 59 59 59 58 58 57 57 56 56 55 55 56 56 56 56 53 53 54 53 51 51 50 45 37 29 37 39 33 32 29 27 27 26 25 26 25 17 14 13 15 15 23 27
55 54 56 56 57 58 58 57 57 57 57 56 56 55 55 55 55 55 55 55 55 54 51 51 52 50 39 34 33 32 36 35 35 34 31 32 31 29 30 26 15 13 14 17 19 24 25
53 54 55 55 55 57 57 57 57 57 57 56 55 55 54 55 55 55 55 54 54 52 51 52 52 49 36 41 29 28 30 29 32 33 33 31 33 30 28 24 12 13 10 15 19 21 21
51 53 54 55 54 55 57 57 56 56 56 55 55 55 54 55 54 54 54 54 53 51 51 50 48 47 43 26 26 28 28 28 32 34 34 31 31 28 24 19 14 13 13 11 10 13 16
50 50 53 54 54 55 57 57 56 55 55 55 55 54 55 55 54 54 52 49 46 46 45 35 33 31 27 29 29 26 23 25 31 31 27 30 25 20 18 19 16 12 9 6 8 9 12
50 51 51 53 54 54 55 58 56 55 55 55 54 54 55 54 54 54 53 42 37 46 40 35 32 33 33 31 26 23 22 24 28 24 21 24 21 20 17 15 14 11 15 14 15 12 15
50 50 51 52 53 54 54 57 57 55 55 55 54 54 54 54 54 52 48 43 45 48 43 31 28 29 29 28 24 21 22 22 24 24 21 25 24 24 17 15 15 15 17 22 17 18 15
49 50 51 52 52 53 53 55 57 55 55 54 53 54 53 53 50 47 46 45 45 49 38 27 28 26 26 28 25 21 23 22 25 23 23 30 29 22 18 15 17 20 23 20 18 19 15
49 49 50 51 51 52 51 53 56 55 55 54 53 53 53 53 52 44 44 41 48 54 27 20 20 26 23 24 20 21 26 23 21 20 23 22 23 20 17 21 24 27 25 21 18 16 20
49 48 50 50 51 52 51 52 55 55 54 53 53 53 53 52 51 49 50 48 51 41 29 19 22 24 24 23 20 19 23 24 26 21 19 31 28 24 25 26 25 28 26 24 22 19 21
48 48 49 50 51 51 51 51 54 54 54 53 53 53 53 50 44 50 53 55 39 31 21 18 21 23 22 22 20 20 20 22 18 20 23 24 23 28 27 24 27 25 24 25 24 22 22
45 48 48 50 50 51 51 51 54 54 53 53 52 52 53 50 50 57 54 49 33 24 23 19 19 21 20 20 20 19 18 17 18 21 18 19 24 25 27 26 24 25 23 24 16 17 17
44 48 48 49 50 50 50 50 53 53 52 52 52 52 51 52 54 56 49 41 32 23 20 21 19 20 19 19 19 20 22 17 18 22 22 25 21 26 27 28 25 25 21 27 24 33 26
44 47 47 48 49 50 50 50 53 53 52 52 48 50 48 54 56 53 48 37 32 24 21 21 20 20 19 20 19 19 20 19 22 28 30 24 24 24 27 28 29 27 27 24 24 20 15
44 45 47 48 48 49 50 50 50 53 52 51 48 44 48 54 53 49 42 37 33 26 30 23 21 20 19 20 19 18 19 26 27 29 31 23 24 28 28 26 19 28 26 24 23 25 21
44 45 47 48 48 49 50 50 49 52 51 50 49 40 54 56 38 44 40 36 34 29 35 28 27 22 23 23 23 20 19 22 29 29 26 29 26 25 24 28 28 27 25 26 27 20 25
41 44 46 47 47 48 49 50 48 51 51 48 46 47 57 50 37 45 39 36 31 29 34 29 25 24 26 26 26 25 23 38 36 34 28 32 24 24 24 28 29 26 24 24 25 28 24
42 44 45 46 46 48 48 48 49 51 51 50 46 46 50 51 38 41 39 34 31 34 31 29 25 26 27 25 27 28 28 36 38 34 40 38 25 24 24 21 25 28 26 25 25 28 24
44 44 45 46 46 48 48 48 48 51 50 52 47 39 44 42 41 43 39 33 30 32 34 33 30 30 29 29 28 31 32 36 37 38 34 35 30 27 24 25 25 24 22 23 23 23 26
43 44 45 45 46 47 48 48 48 49 50 50 48 37 42 39 41 42 39 34 28 30 33 33 27 30 30 30 33 31 34 34 33 37 36 34 31 31 30 28 27 25 24 22 19 21 19
44 44 44 45 46 47 48 48 48 48 50 48 52 44 43 43 42 39 37 32 29 36 40 34 30 29 33 36 40 40 38 36 35 37 37 36 34 32 25 25 24 31 27 22 20 21 22
43 44 45 46 46 47 47 48 47 49 50 49 51 47 45 43 42 35 33 32 31 37 37 38 36 36 42 42 41 40 37 36 36 37 37 37 36 35 31 30 28 17 18 17 21 21 19
43 44 45 46 46 47 47 47 47 50 50 53 58 48 43 46 39 33 33 34 34 40 39 41 42 42 43 40 39 38 40 40 34 32 30 32 34 33 37 24 21 17 13 18 18 16 20
44 45 46 45 45 47 47 47 49 49 50 51 55 55 46 48 42 32 32 34 39 42 43 42 44 43 41 43 43 34 32 29 32 34 31 30 33 34 30 33 31 26 24 27 26 23 23
45 46 46 46 47 46 49 49 49 49 50 52 55 58 45 41 35 36 34 38 36 40 40 43 43 42 42 46 44 40 36 31 31 34 36 38 39 36 34 36 32 25 24 29 25 30 31
45 45 46 48 48 49 48 48 49 49 50 52 56 58 49 47 47 47 40 38 42 39 44 43 42 43 44 43 45 41 42 36 32 28 33 34 38 37 37 36 31 25 28 26 36 32 33
46 47 48 48 48 48 48 48 48 49 50 51 55 55 55 49 49 52 51 51 49 48 43 45 41 43 42 42 47 48 42 40 39 33 31 32 33 36 32 33 30 29 28 31 33 34 34

GFSGBSN_sfc_dewp_042.txt.gz
Dewpoint
55 57 57 56 57 60 60 59 59 58 57 57 57 57 56 56 56 57 56 54 53 52 53 54 53 53 50 44 36 45 61 58 42 32 29 26 20 17 15 14 13 13 13 15 17 20 30
54 55 56 57 56 58 60 59 59 58 57 57 56 56 56 56 56 56 56 55 53 53 53 54 52 52 49 36 25 35 40 47 29 28 29 25 19 18 17 19 12 16 14 17 20 25 27
52 54 55 56 56 56 59 59 58 58 57 57 56 56 56 56 56 56 56 56 54 53 55 53 52 49 44 37 29 32 37 34 28 28 27 24 24 22 23 25 23 19 16 16 21 25 31
52 53 54 55 55 55 57 58 58 58 57 57 56 56 55 55 55 55 55 55 55 54 54 52 52 50 41 34 33 31 33 36 34 32 30 29 31 27 27 30 22 12 16 19 23 22 24
51 52 53 54 55 54 54 57 58 58 58 57 56 56 55 54 54 55 55 55 55 54 53 52 52 49 37 41 31 30 30 28 29 32 33 30 31 30 29 26 20 18 14 20 22 20 23
51 51 52 53 54 55 54 55 57 57 57 56 56 55 55 54 55 54 54 54 54 52 51 48 46 43 43 29 24 25 27 27 30 32 32 31 29 28 27 24 15 19 14 16 18 18 18
51 51 51 51 52 54 55 55 56 57 56 56 56 55 54 54 55 54 52 50 47 48 46 34 33 29 25 27 27 26 26 25 29 32 31 32 27 26 25 25 22 19 16 15 11 13 14
51 51 51 51 51 53 54 54 55 56 56 56 55 55 54 55 54 54 52 48 39 45 42 42 30 31 30 32 28 23 24 23 29 26 36 34 24 24 27 23 21 15 20 18 9 9 12
50 51 51 51 51 52 53 54 54 56 56 56 55 54 54 54 54 52 49 43 43 46 43 36 36 20 27 29 27 22 22 21 23 28 28 29 27 32 20 18 14 16 27 26 23 14 7
49 50 51 51 51 51 52 53 54 55 56 55 54 54 54 53 50 48 46 46 46 49 41 29 28 22 25 27 25 23 21 20 24 22 29 32 34 29 25 15 16 22 29 24 22 20 13
47 48 50 50 50 51 52 53 53 53 56 55 54 53 53 53 51 46 43 44 46 50 33 22 25 24 27 25 23 21 22 21 25 23 24 35 35 28 26 22 22 28 31 28 20 17 28
47 47 49 49 50 50 51 52 52 51 55 55 54 53 53 52 51 50 52 55 52 43 28 18 19 21 22 22 22 19 20 24 22 23 27 33 34 29 23 23 22 31 29 25 22 23 26
48 47 48 49 49 50 50 52 52 51 54 54 53 53 52 49 46 51 54 51 40 32 22 18 19 22 22 22 20 18 20 22 19 22 22 24 22 25 27 22 25 23 21 27 31 32 27
44 46 46 49 49 49 50 51 51 51 53 54 53 52 52 49 51 56 54 50 33 25 27 17 18 21 21 20 20 17 20 16 19 18 16 19 23 22 24 22 32 29 22 32 26 29 25
44 45 46 47 49 49 50 51 51 51 53 53 52 52 50 52 55 56 51 41 32 28 22 21 18 20 20 18 18 18 18 16 16 18 19 26 26 32 25 22 29 28 23 26 23 37 34
43 45 45 46 48 48 49 51 50 51 53 52 51 48 47 54 56 53 48 38 35 31 24 21 18 19 19 17 18 18 18 19 16 17 31 33 32 35 28 26 25 23 22 25 26 24 21
43 44 44 45 45 48 48 50 50 51 53 52 49 44 47 54 55 49 40 39 38 33 29 24 19 19 19 18 18 18 16 16 18 22 26 32 36 34 28 24 16 26 25 21 18 28 29
44 44 44 44 44 48 47 50 50 51 52 51 47 40 52 55 44 38 39 37 37 35 30 28 26 22 21 22 20 17 17 19 23 26 26 27 28 31 26 25 25 24 25 24 35 25 31
43 43 43 44 44 47 47 48 50 51 52 50 44 45 55 53 37 37 37 37 36 34 32 29 28 25 23 23 22 22 22 38 36 27 27 30 29 29 22 24 26 24 21 20 25 34 29
42 42 43 44 45 46 46 48 49 49 52 51 46 43 50 51 40 34 37 35 35 36 29 30 29 25 25 26 27 26 24 36 38 34 41 40 28 24 25 19 23 26 25 21 24 36 31
42 42 43 43 44 46 47 48 49 49 51 51 49 41 46 42 43 36 40 35 34 32 30 30 28 24 26 27 26 25 26 36 36 38 34 34 26 23 19 20 22 25 24 22 21 24 28
41 42 43 42 44 46 47 48 48 49 51 48 46 43 45 40 42 38 38 38 33 30 29 31 29 27 28 27 25 25 28 35 32 37 35 35 32 32 30 27 25 24 23 20 20 20 18
41 42 44 43 44 44 47 48 47 48 49 47 47 48 44 42 41 36 39 38 37 34 33 30 31 31 32 32 35 39 38 38 34 37 37 35 38 36 34 28 25 29 27 23 21 21 22
42 43 44 44 44 45 47 48 48 48 48 48 45 51 48 40 37 36 39 40 39 34 38 34 36 35 40 42 41 40 38 37 38 38 37 38 39 41 37 32 28 22 19 16 17 15 15
43 43 45 44 45 46 47 47 47 47 48 46 49 52 51 43 36 36 38 40 40 38 42 38 42 42 44 44 42 39 41 39 37 33 33 36 40 38 36 30 25 22 18 19 20 19 21
43 44 44 44 45 46 46 47 47 47 47 47 46 49 51 47 40 38 39 40 37 43 45 43 45 48 46 47 47 38 36 31 31 31 29 30 39 41 36 35 29 29 24 24 23 29 27
43 43 44 45 46 46 46 46 47 47 47 46 47 49 49 50 43 41 36 38 43 47 47 43 42 44 46 49 41 44 39 29 33 35 36 38 41 37 35 37 35 27 25 27 29 33 33
43 43 44 45 46 46 46 46 46 46 46 47 48 52 50 50 44 44 42 39 43 45 45 45 44 44 49 46 47 45 43 41 36 31 37 37 39 37 40 35 32 26 25 28 37 37 35
44 44 45 45 45 45 45 46 47 47 47 49 48 52 54 53 51 54 52 51 49 51 48 48 45 44 45 45 48 50 40 40 42 37 30 35 36 39 37 37 35 30 31 33 36 36 38

GFSGBSN_sfc_dewp_045.txt.gz
Dewpoint
54 54 56 57 57 57 59 60 59 58 58 57 57 56 57 56 56 56 56 56 56 55 54 53 54 54 51 46 44 43 60 58 45 37 30 29 29 24 17 16 16 14 14 16 37 39 38
53 54 55 56 57 57 57 59 59 58 58 57 56 56 56 56 56 56 56 56 56 54 54 55 54 54 50 40 36 52 50 45 37 31 30 29 27 20 20 20 24 19 15 18 22 29 34
52 53 53 55 56 56 56 56 59 59 58 57 56 56 56 56 55 55 56 55 55 55 54 55 53 50 47 40 35 33 37 41 36 28 27 30 27 26 26 26 31 21 16 19 23 31 35
53 53 53 54 55 55 55 54 57 59 58 57 57 56 55 55 54 54 55 54 55 55 55 55 53 50 46 42 39 38 36 35 35 28 29 31 32 32 29 29 29 24 18 18 24 28 36
52 52 53 53 54 55 54 54 54 57 58 58 57 56 55 54 54 54 54 54 54 55 55 54 50 49 45 46 40 35 31 30 35 35 34 31 33 32 31 28 27 21 15 21 24 25 35
52 51 52 52 53 54 55 55 54 55 57 57 57 56 55 54 53 54 54 54 54 54 52 49 48 43 43 36 35 31 30 31 32 34 36 33 31 29 29 27 22 21 18 16 20 22 29
52 52 51 51 52 53 54 55 54 54 56 57 57 56 55 54 54 54 53 51 48 48 47 42 39 37 25 29 30 24 28 28 31 36 34 42 30 27 27 28 24 21 20 17 18 20 23
50 52 51 51 51 51 52 53 54 54 55 57 56 56 55 54 54 54 51 48 47 45 44 44 41 38 34 32 31 31 27 26 28 34 40 36 34 32 28 28 26 24 22 21 22 16 13
48 50 51 51 51 51 52 53 53 54 54 56 56 55 54 54 54 52 50 46 45 45 45 41 41 41 35 30 31 30 25 25 26 35 35 36 34 34 27 28 25 29 28 27 27 29 20
48 47 51 48 48 49 51 51 53 54 53 55 56 55 53 53 49 49 48 49 48 47 42 37 34 37 27 23 31 29 27 22 26 28 34 34 34 32 30 29 27 28 28 29 26 27 22
48 48 46 50 51 49 50 50 52 54 52 55 55 54 53 52 50 48 49 51 48 49 30 35 33 28 22 27 29 27 26 24 25 25 31 34 35 32 31 30 28 26 30 29 30 27 27
47 48 48 47 47 49 50 50 52 53 52 53 54 54 53 52 51 49 49 49 51 42 31 29 27 24 27 28 27 25 24 27 27 28 32 29 33 33 32 32 30 31 31 31 35 33 24
47 47 47 48 47 49 50 50 51 52 51 52 54 53 53 50 47 51 50 50 39 36 29 22 22 23 24 25 25 23 23 22 21 23 30 28 26 33 33 31 31 30 28 27 27 28 27
44 45 45 46 48 48 49 49 50 51 51 52 53 53 52 49 51 53 53 46 36 32 31 26 23 24 23 24 24 23 22 22 23 22 24 26 26 31 33 29 29 28 30 27 25 28 27
45 45 45 45 46 49 49 49 49 51 51 51 53 52 51 49 51 52 50 40 33 33 27 28 21 22 23 22 24 22 21 22 21 21 19 31 30 36 33 35 30 34 31 32 31 33 27
44 44 43 44 45 47 48 49 49 51 50 52 50 50 49 51 53 51 47 36 38 36 33 31 24 24 23 22 22 21 21 21 22 22 30 35 31 37 35 36 30 30 28 26 28 18 17
44 43 43 44 45 46 47 48 49 51 50 52 50 47 48 50 53 49 38 39 38 38 36 34 26 24 24 24 22 20 23 21 23 27 35 36 33 35 35 34 27 27 27 27 25 29 23
43 42 42 43 44 45 46 48 49 50 51 51 48 41 49 52 43 42 39 38 40 37 38 38 33 32 26 26 26 21 22 23 24 30 28 35 35 34 34 34 31 24 27 32 27 22 27
42 42 42 42 43 45 45 47 48 49 50 48 45 44 50 49 33 37 38 38 38 37 36 37 32 33 33 28 28 27 27 40 38 31 31 34 29 29 29 30 31 26 26 24 28 33 26
41 41 41 40 43 45 46 46 48 49 50 49 46 40 47 47 32 32 36 34 35 38 37 36 35 33 33 29 29 30 37 41 41 37 40 38 32 28 24 22 25 27 27 26 26 27 26
40 41 40 39 44 45 45 45 48 48 49 49 46 38 44 41 40 34 35 34 34 35 37 38 36 32 31 29 29 29 38 39 39 40 37 34 28 29 25 27 27 26 27 26 24 28 26
40 40 40 39 44 44 44 45 46 47 49 46 44 42 46 43 42 40 35 33 34 34 35 35 34 33 31 29 30 29 35 37 35 38 34 35 31 30 30 31 27 26 26 25 24 23 24
40 41 41 43 43 44 44 45 46 47 47 44 47 47 44 42 41 40 36 34 33 37 38 36 34 35 32 33 33 40 34 38 37 37 35 36 33 31 28 27 25 22 25 24 25 25 24
42 42 42 43 43 42 42 44 46 47 46 47 45 47 45 38 42 39 35 33 36 38 38 36 35 36 38 43 42 42 40 40 41 40 39 37 35 33 28 26 15 26 23 18 20 22 22
42 42 43 43 43 43 45 47 46 47 47 46 47 48 47 35 40 39 34 34 37 39 39 40 44 43 44 43 41 36 36 32 35 38 38 41 36 31 24 25 27 25 24 26 23 24 27
42 43 43 43 43 44 45 47 47 47 48 45 44 47 44 44 40 39 33 34 38 40 42 46 49 48 45 45 38 31 31 32 32 30 37 37 38 29 29 24 17 29 25 28 26 26 32
42 42 41 44 44 44 44 46 47 47 48 45 43 46 44 43 46 37 33 37 43 45 43 45 48 47 48 35 35 30 30 34 31 30 29 30 30 27 25 24 30 32 28 31 20 27 35
42 43 43 45 44 45 45 46 47 47 47 45 43 48 45 44 46 47 40 41 46 45 40 46 45 46 44 37 36 32 32 32 33 37 34 30 31 26 31 30 26 29 28 27 36 35 36
42 43 44 44 44 46 46 46 47 47 47 46 43 47 51 46 47 51 51 51 47 47 47 47 47 46 46 42 40 38 37 35 32 28 37 32 37 34 33 33 38 33 38 40 40 38 38

GFSGBSN_sfc_dewp_048.txt.gz
Dewpoint
54 55 55 56 57 57 57 58 60 58 58 57 57 56 56 56 57 56 55 55 56 56 55 54 55 55 50 45 43 44 60 60 46 36 31 29 31 30 23 18 18 17 18 16 33 40 41
53 53 54 55 56 57 57 57 58 59 58 57 56 56 56 56 56 56 55 55 55 55 55 55 55 53 50 41 37 51 47 44 38 33 29 29 29 29 22 21 25 28 26 24 36 39 40
53 53 53 54 55 56 57 56 55 58 59 58 57 56 56 56 56 55 55 54 55 55 55 55 54 50 47 37 37 39 38 42 37 29 28 31 31 27 26 25 31 29 18 20 34 37 40
53 53 53 53 54 55 55 55 54 55 58 58 57 56 56 55 55 54 54 54 54 55 55 55 53 49 44 45 44 41 38 35 37 30 29 30 32 32 30 29 29 27 18 17 22 33 37
52 52 53 53 53 54 55 55 54 54 55 58 58 56 56 55 54 53 53 54 54 55 55 54 49 48 45 48 43 43 38 32 35 33 29 28 34 32 30 27 26 24 14 22 24 29 34
52 51 52 52 52 53 54 55 54 54 54 56 58 57 56 55 54 53 53 53 53 54 53 50 48 39 41 31 38 35 33 33 32 35 34 34 31 29 29 27 23 21 19 16 20 24 33
51 51 51 51 51 52 53 54 55 54 54 55 57 57 56 54 53 53 51 49 46 47 47 39 36 37 28 33 34 30 31 31 32 36 30 40 31 30 30 30 28 24 21 20 20 21 31
51 51 52 52 52 51 52 53 53 54 54 54 56 56 56 54 53 53 50 45 45 42 39 44 44 42 39 37 33 31 29 26 30 33 40 33 28 32 34 30 29 27 26 24 21 25 24
51 50 51 52 52 51 51 51 51 53 53 53 55 56 55 53 53 51 49 47 46 45 42 44 44 43 42 42 34 31 27 26 33 35 35 31 29 33 34 27 28 27 27 26 25 27 19
49 50 49 50 52 52 50 51 51 53 53 53 54 56 54 53 48 48 48 50 49 47 39 39 40 40 37 28 25 31 29 25 29 32 33 31 30 31 32 31 29 26 29 28 28 24 18
48 49 49 49 50 50 50 50 51 52 53 53 53 55 53 51 49 47 49 48 48 48 18 30 36 39 31 22 29 28 30 27 21 31 33 30 33 32 31 29 29 28 31 29 29 27 27
49 47 48 49 48 49 50 50 50 51 53 52 53 55 53 52 50 49 49 49 51 38 24 34 34 26 21 22 26 27 26 27 26 26 31 29 35 31 31 34 33 31 29 34 34 31 24
46 48 46 48 48 47 48 49 49 49 52 52 52 54 52 51 45 51 52 49 40 33 33 28 25 22 25 24 27 27 25 22 19 23 26 28 30 34 36 30 30 29 28 25 24 26 24
44 47 47 46 47 48 47 48 49 49 51 51 51 53 53 49 50 51 51 45 33 33 33 32 24 24 24 26 26 24 23 20 24 24 28 25 24 32 35 31 29 30 28 25 19 25 25
44 44 48 46 47 48 48 47 48 48 50 51 51 53 52 51 51 50 48 38 32 36 31 28 23 24 24 25 24 24 23 22 21 22 20 30 29 35 35 35 34 32 29 31 30 31 28
44 44 46 46 46 46 47 48 47 48 49 51 47 49 50 51 50 49 45 36 37 38 37 34 24 25 23 23 23 23 22 23 23 24 25 30 30 37 37 33 32 28 29 28 30 20 19
43 44 45 46 44 45 46 47 47 48 49 51 45 45 49 52 50 45 37 36 37 36 38 38 35 28 25 24 23 24 23 22 24 23 30 33 32 31 36 34 28 27 25 27 26 27 22
43 44 44 46 44 44 45 45 47 48 49 49 44 38 49 52 41 40 38 37 38 37 39 39 40 37 29 28 26 24 23 22 29 34 30 34 35 31 28 33 34 33 31 31 26 20 26
43 44 45 46 44 43 45 45 47 47 48 45 39 41 50 48 36 35 38 37 38 36 38 37 37 37 31 27 25 27 26 37 40 32 31 34 32 29 29 29 33 32 30 28 32 29 25
43 44 46 46 44 44 45 44 46 46 48 45 41 37 45 47 41 33 34 36 37 37 35 36 37 39 37 30 29 27 34 40 41 37 41 37 31 29 26 24 26 26 27 25 26 26 25
43 44 45 44 43 43 45 45 46 46 48 45 42 36 40 38 40 36 33 35 36 34 35 38 36 36 36 29 28 30 38 37 39 38 37 33 27 28 26 27 28 27 26 26 24 27 24
42 44 44 43 43 43 44 45 45 46 48 43 39 39 42 40 38 38 34 32 33 32 33 31 36 37 37 31 29 28 36 35 32 36 32 34 27 28 28 29 26 25 24 24 25 24 25
44 44 43 42 41 42 44 43 46 45 47 42 42 45 42 37 38 37 35 32 32 32 33 30 35 36 37 35 32 32 37 38 36 33 33 34 33 29 26 26 26 24 26 24 24 25 25
44 43 41 41 42 41 42 44 46 46 48 45 40 45 44 36 39 37 36 35 33 32 30 36 31 34 37 42 41 39 38 40 40 39 38 35 33 29 26 24 18 28 28 26 25 25 23
42 42 42 41 41 40 42 44 45 45 46 45 46 45 44 35 39 39 38 35 35 34 36 33 41 41 43 42 38 34 33 33 35 36 38 38 34 29 23 24 26 26 20 22 24 26 29
41 41 41 41 41 43 44 44 44 44 45 45 45 47 43 41 37 41 40 37 34 35 35 42 48 48 47 42 34 29 29 33 32 33 37 37 35 31 28 21 18 27 26 27 29 26 32
41 42 42 43 43 43 43 43 44 44 44 45 45 47 44 40 44 43 40 38 36 38 38 44 45 43 46 34 32 29 29 34 30 29 26 30 30 26 23 21 25 31 28 29 18 23 34
42 43 42 43 43 43 43 44 44 44 47 45 43 47 43 40 43 47 46 37 36 39 38 43 43 43 40 34 35 33 28 32 32 33 30 28 28 25 28 22 21 35 29 25 30 36 36
42 42 42 43 43 43 44 45 46 46 47 44 41 47 49 44 44 47 47 45 46 40 46 45 42 44 45 41 38 37 35 32 31 30 37 30 30 30 31 30 36 38 37 38 38 38 39

GFSGBSN_sfc_dewp_051.txt.gz
Dewpoint
54 54 55 56 56 56 57 58 57 59 58 58 57 57 57 57 57 57 56 55 55 55 55 55 55 55 49 40 35 43 59 60 51 35 30 27 29 29 24 20 19 15 21 23 30 40 39
52 54 54 54 55 55 54 56 57 56 58 58 57 57 56 56 56 56 55 54 54 55 55 55 55 54 48 31 33 46 45 40 38 35 30 29 27 28 27 23 25 27 28 37 40 40 40
53 53 53 53 54 54 55 56 56 55 56 58 58 57 56 56 56 56 55 54 54 54 55 55 54 50 47 29 38 39 38 39 38 33 27 31 31 29 30 25 29 29 18 35 38 39 38
53 52 53 53 53 54 54 54 55 55 55 57 58 57 56 56 55 54 54 53 53 54 55 55 53 48 38 41 46 45 40 37 37 36 29 30 31 31 30 29 28 26 19 24 31 37 38
52 52 52 53 52 53 53 54 55 55 54 54 57 57 56 55 54 54 53 53 54 54 55 54 48 46 42 47 42 43 40 33 35 36 32 29 33 31 30 27 26 25 12 22 24 33 36
52 52 52 52 52 52 53 53 54 54 54 54 54 57 56 55 54 53 53 53 53 53 52 51 48 39 33 28 38 35 39 33 32 35 35 35 32 29 30 27 22 23 20 18 19 25 32
51 52 52 52 52 52 52 52 53 54 54 54 54 55 57 56 54 53 51 48 41 45 47 39 32 31 30 33 39 32 33 31 33 34 30 39 29 27 30 30 29 28 23 20 21 22 29
51 51 52 51 52 52 52 52 52 53 54 54 54 55 56 56 54 53 50 43 41 43 39 43 42 40 40 39 39 37 30 26 29 28 37 30 27 30 32 33 29 28 25 23 24 25 26
49 50 51 51 51 52 52 51 51 52 53 53 53 54 56 55 53 51 48 45 45 44 37 40 43 42 41 42 40 39 28 28 31 34 34 30 27 33 31 29 29 27 26 25 25 26 22
47 49 50 51 51 51 51 52 50 51 51 53 52 53 55 53 49 48 48 50 49 46 33 32 43 42 42 40 29 33 29 25 34 29 34 31 32 30 31 30 28 26 29 28 28 24 15
45 47 50 50 50 49 50 51 51 50 51 52 52 52 54 52 47 47 48 48 48 46 13 23 39 40 38 27 28 27 31 26 25 32 31 27 31 29 29 28 29 28 31 30 29 26 26
45 46 47 49 49 49 49 50 51 50 50 52 52 52 54 52 50 48 49 50 49 33 17 29 34 35 25 23 23 28 27 27 26 32 31 28 34 30 29 33 31 32 30 31 32 29 22
45 44 45 46 49 49 49 49 50 50 50 51 52 51 53 51 45 50 51 48 38 28 27 29 31 27 24 20 21 27 23 23 21 24 26 27 29 32 35 29 31 29 27 23 23 24 23
45 44 45 44 45 49 49 48 49 50 49 50 51 51 53 51 50 49 51 45 33 31 33 36 26 25 19 24 24 27 24 20 22 24 26 24 24 30 34 31 29 31 27 24 17 22 22
46 45 44 44 44 46 48 48 48 49 50 49 51 50 51 53 52 49 49 38 31 32 34 28 25 22 23 25 24 23 23 21 21 23 21 27 26 36 35 35 31 31 28 29 29 30 27
46 45 44 44 44 44 48 47 47 48 49 49 46 46 47 52 52 47 43 35 35 37 38 37 23 25 23 24 24 23 23 24 23 24 28 29 24 35 36 35 33 29 30 25 27 19 20
46 45 44 44 44 43 48 47 47 47 49 49 44 42 46 52 51 44 36 35 37 37 36 38 36 30 25 24 24 24 23 23 25 25 26 32 26 28 34 30 25 27 26 26 27 25 20
46 45 44 44 44 43 46 47 47 46 47 47 41 35 49 51 43 40 35 36 38 36 38 38 39 39 35 27 26 24 24 24 24 32 26 32 30 27 27 31 33 30 29 29 25 21 25
46 45 44 43 43 43 47 47 46 46 47 45 36 38 50 47 36 37 36 35 38 36 37 36 37 39 37 30 24 27 28 31 36 31 32 34 30 26 24 26 33 32 32 31 31 28 24
47 45 44 43 43 43 47 45 44 45 47 44 39 34 44 46 40 35 35 35 36 37 37 37 36 38 37 33 30 28 28 38 38 34 40 36 32 27 24 23 27 27 28 28 29 26 24
47 45 44 43 44 43 47 45 44 45 47 44 40 32 37 36 38 39 35 35 35 34 36 36 34 35 36 33 29 28 37 37 37 38 36 33 27 28 27 25 24 23 24 27 26 26 24
46 45 43 43 44 45 46 45 44 43 46 43 36 37 40 38 36 37 36 34 34 35 34 33 32 38 34 34 33 29 35 34 33 34 33 33 27 25 29 29 27 25 24 24 24 25 27
46 45 43 43 43 44 45 44 43 43 45 42 37 42 40 36 35 35 34 32 33 36 36 35 32 32 33 37 38 35 36 36 34 34 32 31 31 27 23 26 25 24 26 25 24 25 25
45 44 43 43 44 45 45 44 43 43 44 45 37 42 40 32 35 34 32 34 33 34 34 33 32 33 36 42 40 39 39 39 39 38 36 33 30 27 24 24 16 25 29 27 25 25 24
44 43 43 44 44 44 43 43 44 43 45 44 40 43 42 30 37 35 34 34 35 34 35 34 34 35 38 41 36 33 33 32 33 38 39 37 32 27 24 24 24 26 24 25 23 23 28
43 43 43 44 44 43 43 43 44 44 44 44 44 45 43 39 37 38 36 36 34 34 34 34 37 43 46 40 33 30 30 33 33 31 37 35 34 30 25 21 20 28 28 26 28 24 30
44 43 43 43 41 42 42 42 43 43 45 44 45 47 44 39 42 41 39 38 37 36 35 35 42 44 45 34 31 30 29 34 30 29 29 31 31 29 24 23 26 29 29 28 19 22 33
42 42 42 42 42 42 41 42 43 42 44 44 43 48 44 40 40 45 45 40 38 37 35 39 42 42 39 35 33 31 27 33 30 32 30 31 30 25 26 21 22 32 28 22 28 35 36
42 41 41 41 41 41 42 43 43 44 46 44 42 47 47 41 42 44 44 44 44 43 40 43 40 42 42 39 36 34 31 29 31 29 34 27 32 31 30 29 34 38 32 37 37 36 37

GFSGBSN_sfc_dewp_057.txt.gz
Dewpoint
51 52 53 53 53 53 50 51 54 55 56 56 56 57 59 59 58 57 56 55 55 55 54 55 55 55 49 34 29 34 60 60 50 43 29 27 29 28 25 24 21 16 17 24 24 33 40
52 52 52 53 53 53 52 53 50 54 55 55 55 55 57 58 58 57 56 55 55 54 54 54 55 54 46 28 28 41 46 44 38 33 31 28 28 28 27 27 23 24 24 33 40 39 40
52 53 52 52 51 52 53 52 52 52 53 54 55 55 56 57 58 57 56 55 55 54 54 54 55 50 44 32 39 39 42 37 37 34 27 29 28 29 29 28 28 28 26 31 39 39 39
51 52 52 52 51 51 52 52 52 52 53 54 55 54 53 55 57 56 56 55 54 54 54 54 53 49 37 37 42 42 43 39 39 36 30 30 32 30 30 32 28 25 19 23 32 38 38
49 50 51 53 51 51 50 51 52 52 52 53 54 54 53 53 55 56 55 54 54 54 54 54 48 45 35 42 32 35 40 29 36 37 34 29 32 32 31 28 25 27 18 20 27 37 37
46 48 50 51 53 51 51 50 51 52 51 51 53 53 53 53 53 55 54 53 53 53 53 52 49 40 39 26 32 37 42 37 33 36 36 34 33 30 31 28 20 24 25 24 21 26 35
48 47 48 49 51 51 51 51 50 51 51 50 52 53 53 53 54 55 52 47 36 42 49 41 37 36 25 35 41 36 39 34 35 34 32 37 31 29 29 31 28 27 25 23 22 23 33
49 49 49 48 49 50 52 51 50 50 51 51 49 52 53 53 53 54 51 45 39 44 41 43 43 41 38 40 38 37 34 31 32 27 35 31 31 32 30 31 30 28 25 25 25 26 27
49 49 49 48 47 48 50 52 50 50 50 51 50 51 52 52 54 52 49 46 46 48 42 40 40 39 39 39 36 35 32 30 27 28 33 32 29 31 32 29 28 27 26 26 26 26 23
49 49 49 49 48 48 49 50 52 50 50 51 50 50 50 51 51 50 47 48 48 49 37 30 35 39 41 40 34 38 30 31 32 26 32 30 32 30 29 29 28 24 28 28 28 26 21
48 48 49 48 48 48 46 48 50 51 50 51 50 50 50 52 48 46 46 50 49 46 17 24 41 42 42 34 30 35 32 30 31 31 32 28 30 30 29 29 30 27 30 30 29 27 26
48 48 48 48 48 47 47 47 49 50 49 50 50 50 50 50 51 49 50 51 50 36 24 22 38 37 37 35 26 29 30 31 33 33 32 28 32 30 29 31 30 31 31 30 30 28 24
49 48 48 48 48 48 47 47 48 49 50 49 50 50 50 52 46 52 52 48 38 30 30 24 34 33 32 28 23 27 28 28 26 27 28 27 28 30 33 29 31 29 27 25 26 26 23
49 48 48 48 48 48 47 47 46 48 49 49 49 49 49 49 53 50 51 43 30 29 31 31 30 32 25 23 23 26 26 25 25 25 26 23 22 29 33 30 28 29 28 28 17 21 21
49 49 48 48 48 48 48 47 46 48 49 48 49 49 47 48 51 50 47 35 29 31 32 30 24 27 26 21 23 25 27 25 25 28 24 27 23 32 34 34 30 31 28 29 29 30 28
49 49 49 48 48 48 48 47 46 47 49 48 45 45 44 48 51 49 42 32 34 34 36 36 29 26 26 22 23 24 26 26 25 28 31 30 24 33 33 34 33 30 31 28 28 22 20
48 49 49 48 48 48 47 47 46 47 49 48 44 39 41 48 51 44 35 32 34 37 37 34 36 35 25 25 25 24 24 24 25 25 28 29 27 26 32 30 27 30 28 28 27 26 21
47 48 48 48 48 48 48 46 46 47 48 46 42 33 41 47 38 39 35 34 36 34 38 37 38 38 35 29 28 26 23 25 26 29 26 32 31 29 27 31 30 30 30 30 30 24 27
46 47 47 49 48 48 48 46 45 46 48 44 38 38 45 43 31 33 35 34 34 35 36 36 35 37 38 35 26 29 28 31 32 30 32 34 28 24 22 26 32 30 30 30 30 30 26
46 46 47 48 49 48 48 46 45 45 48 44 39 32 40 41 35 32 33 32 34 35 36 37 36 36 37 34 35 29 29 34 34 31 39 35 31 27 21 23 27 31 31 30 31 30 28
46 46 46 47 48 49 48 47 45 45 47 44 38 34 35 32 32 33 32 32 30 33 35 38 36 35 35 32 34 30 35 37 37 40 36 35 28 29 25 23 26 27 29 30 28 30 29
46 45 46 46 46 48 48 46 45 45 47 41 35 35 36 35 33 32 34 32 30 32 34 33 34 36 35 34 34 32 33 35 35 36 35 34 29 31 27 27 26 25 25 29 29 27 27
46 46 45 46 48 48 47 46 45 45 47 40 42 39 34 33 33 30 31 30 32 33 35 35 35 35 34 35 39 38 39 40 39 37 35 33 33 30 26 27 27 28 29 27 27 28 29
45 46 46 46 47 48 46 46 45 44 45 44 40 40 35 30 32 30 29 32 32 34 35 34 37 35 36 39 40 40 39 37 39 38 38 34 32 30 29 27 26 28 29 28 29 28 27
45 46 46 47 48 47 46 45 44 45 45 43 41 41 38 30 33 31 29 32 35 36 35 36 36 38 40 38 33 30 33 35 36 37 36 35 33 29 30 27 26 24 26 28 28 25 28
46 46 45 46 47 46 45 45 44 43 46 44 43 44 41 34 34 34 30 30 33 34 36 37 41 42 40 38 32 27 29 33 32 33 35 33 34 35 27 26 25 30 28 28 26 24 29
44 43 46 46 46 45 45 44 43 44 47 43 43 45 42 36 40 38 34 32 33 36 35 37 37 39 41 34 33 32 29 35 33 32 33 32 32 30 27 31 29 30 29 30 26 27 32
45 45 46 46 45 45 44 44 44 45 46 43 43 45 43 39 39 43 42 38 36 35 34 37 37 39 38 34 34 33 32 34 34 34 33 32 31 31 29 30 27 33 26 28 34 33 35
46 46 45 45 44 44 44 44 44 44 46 44 42 45 46 41 41 43 43 43 41 37 37 39 36 39 39 37 37 36 35 33 34 29 35 34 34 34 32 34 36 32 35 34 34 35 36

GFSGBSN_sfc_dewp_060.txt.gz
Dewpoint
53 52 52 52 52 53 52 54 52 51 53 54 55 56 56 56 59 59 57 56 56 56 55 54 54 56 48 34 27 36 60 61 47 39 28 23 19 23 21 21 24 23 20 23 26 33 29
51 53 53 52 51 52 51 53 53 52 52 53 54 54 55 56 57 58 57 56 56 55 55 55 54 55 43 29 27 42 45 42 35 33 28 23 26 28 27 26 26 25 24 26 34 34 37
48 50 52 54 53 52 51 52 52 52 52 52 53 54 55 55 55 57 57 57 56 55 55 55 54 49 42 34 32 38 39 37 35 31 26 26 27 29 30 26 29 28 25 25 35 36 37
47 47 48 50 52 53 52 51 51 52 52 52 52 54 54 54 54 54 56 56 55 55 55 55 54 48 36 35 35 36 38 37 36 34 31 29 30 32 31 32 28 24 24 19 33 36 39
49 48 47 49 50 52 53 51 51 50 52 51 51 52 53 53 53 53 55 55 55 55 54 54 50 46 33 41 35 32 32 35 36 35 36 29 32 32 32 27 21 21 17 17 29 36 35
49 49 49 49 49 50 51 53 51 50 50 51 51 51 52 53 53 53 54 55 55 53 52 51 48 43 36 26 29 37 36 31 33 36 34 33 32 30 28 24 15 15 18 18 17 29 34
50 51 50 50 49 49 50 51 52 51 50 50 51 50 51 52 53 53 54 52 46 44 48 37 36 34 28 32 39 36 38 33 29 33 30 35 28 26 23 25 29 24 21 19 20 25 31
49 49 50 51 50 49 47 48 50 52 50 50 50 50 50 52 52 54 53 48 45 45 39 40 40 38 38 37 35 36 36 29 30 29 31 32 28 26 28 29 29 27 20 19 24 25 27
48 48 49 50 50 50 49 48 48 51 51 50 50 50 50 51 52 54 51 49 47 46 40 37 39 36 33 37 32 30 34 27 27 28 29 27 26 30 30 28 28 27 24 23 21 25 25
49 48 49 49 50 50 50 49 48 50 52 50 50 50 49 50 48 49 49 50 49 50 36 28 35 36 35 33 32 30 34 26 27 27 27 27 27 28 28 27 26 24 24 24 24 22 18
49 49 49 49 49 49 49 48 48 49 50 51 50 50 49 50 50 47 48 52 52 50 12 23 35 38 36 27 27 28 31 28 24 26 28 25 28 28 26 25 27 23 28 27 27 24 25
49 49 49 49 49 49 48 48 48 48 48 50 50 50 50 47 47 49 50 52 50 36 17 20 37 37 35 32 28 29 29 29 24 27 28 24 30 29 26 28 28 29 29 29 30 27 23
49 49 49 49 49 49 49 48 48 47 48 49 50 50 49 43 43 49 53 49 37 25 21 18 34 36 31 27 27 26 26 27 23 25 25 25 25 28 31 28 31 30 27 25 26 25 22
49 49 49 49 49 49 49 48 48 47 47 48 49 48 49 46 44 52 50 44 27 13 21 28 30 32 29 23 24 25 26 23 23 22 20 21 21 25 30 28 26 28 26 25 18 20 20
50 49 49 49 49 49 49 49 48 48 47 48 49 49 47 48 46 52 47 34 19 21 24 23 27 31 27 22 22 25 25 22 23 24 21 21 19 27 30 30 28 30 27 28 27 32 29
49 50 49 49 49 49 48 49 48 48 47 48 46 46 44 48 49 47 41 29 24 26 28 34 22 29 29 22 22 23 24 24 24 25 24 26 21 28 32 33 33 31 29 27 28 21 18
49 50 49 49 49 49 48 48 48 48 47 48 45 40 41 47 49 41 33 29 28 30 34 33 30 31 25 24 21 23 24 23 25 27 25 25 25 31 33 30 25 29 28 28 27 26 23
47 47 48 49 49 49 49 48 48 48 47 47 41 34 47 46 36 37 33 31 31 28 36 35 36 36 34 26 22 19 22 22 25 26 26 28 26 25 24 30 31 28 27 29 26 23 28
47 47 47 49 48 49 49 48 48 47 47 46 38 39 47 43 29 31 33 32 29 30 30 34 34 35 38 35 25 24 23 26 28 27 27 29 26 23 23 27 31 27 28 27 28 29 25
45 46 47 47 48 47 47 49 48 48 47 46 39 33 39 41 33 30 30 29 29 30 31 34 34 35 34 32 34 28 27 31 32 29 39 34 26 24 22 19 20 25 25 26 27 28 23
45 45 45 46 47 47 48 49 49 48 47 45 39 36 37 31 32 29 30 28 28 28 32 36 34 34 32 30 33 32 30 35 31 37 32 32 25 25 21 19 18 19 18 21 22 23 22
47 46 45 46 46 46 47 48 48 47 47 42 37 32 37 31 33 31 30 29 26 26 29 31 32 33 34 33 33 32 31 34 32 36 32 33 26 27 25 22 22 20 20 19 22 21 26
46 46 46 46 46 46 47 48 48 47 46 40 42 35 33 30 31 30 30 29 27 29 32 30 34 34 35 33 35 36 35 35 34 35 35 33 30 30 24 26 26 29 27 22 23 28 28
46 46 46 46 46 46 47 46 47 47 46 44 42 36 35 27 31 27 27 27 27 28 30 33 33 34 34 36 35 36 36 34 35 37 39 36 32 33 28 32 30 24 29 26 26 25 26
45 45 46 46 46 46 46 46 47 46 46 43 41 41 32 35 28 29 27 27 28 30 31 32 37 36 39 35 32 26 31 32 34 35 38 38 35 34 36 28 24 25 26 28 28 25 27
47 45 45 45 46 46 45 46 47 46 46 45 43 46 40 34 29 27 31 27 28 31 34 33 37 42 41 39 34 22 18 21 30 35 36 36 37 36 32 30 32 26 26 30 30 28 26
46 46 45 45 46 45 46 46 46 46 46 45 45 47 43 33 31 32 33 31 30 33 35 36 39 39 39 38 38 33 26 27 28 33 36 35 35 36 33 34 30 29 28 29 27 30 30
45 45 45 46 45 45 46 46 45 45 46 45 45 47 45 36 36 39 36 34 32 36 36 37 38 38 40 37 35 34 38 31 31 30 34 33 35 36 35 37 33 31 28 28 32 36 34
45 45 45 46 46 46 45 45 45 45 45 45 42 46 47 41 42 44 44 43 35 35 36 40 33 35 37 36 38 36 41 40 31 30 36 35 35 36 33 33 37 34 32 33 36 34 36

GFSGBSN_sfc_dewp_063.txt.gz
Dewpoint
50 51 52 53 53 52 51 52 53 52 52 52 53 53 52 54 55 57 58 58 57 57 57 56 55 56 48 35 31 41 59 59 40 37 33 25 19 18 19 18 18 18 16 16 18 21 27
48 50 50 52 51 53 51 52 52 52 52 51 52 53 54 54 54 55 56 57 57 57 56 56 56 55 43 34 27 33 38 48 37 36 30 23 17 19 25 21 21 21 21 18 20 25 27
48 49 49 50 51 51 52 52 52 52 51 52 51 52 53 54 54 54 54 55 57 57 56 56 55 49 44 38 32 31 36 36 35 33 26 22 25 26 26 25 24 23 20 20 20 25 24
50 50 49 49 49 50 51 53 53 51 51 51 52 51 52 53 53 53 54 54 56 57 56 55 55 48 42 36 33 30 32 35 35 31 29 26 28 31 29 26 25 20 20 18 24 24 27
51 51 50 50 49 49 50 51 53 53 51 51 51 51 50 51 53 53 53 54 55 57 54 54 51 47 37 41 33 31 29 29 35 33 32 29 31 30 28 24 20 19 14 21 28 25 27
48 50 51 51 50 50 50 50 50 52 52 50 51 51 50 51 52 52 53 53 53 53 52 50 47 42 40 27 28 27 28 28 34 34 33 33 30 28 26 22 16 15 12 17 14 27 24
47 48 49 50 51 50 50 50 49 50 52 52 50 50 50 50 52 53 51 49 47 49 48 36 32 28 27 28 32 31 26 30 32 33 29 31 26 24 24 24 21 22 17 14 19 22 24
49 49 49 49 49 50 50 50 49 49 50 52 51 50 50 50 51 52 52 44 39 46 35 37 38 34 35 33 33 30 28 28 29 28 28 29 27 24 24 23 25 23 20 16 19 21 23
49 49 50 49 49 50 50 51 50 49 49 50 52 50 50 50 50 48 48 45 45 47 39 31 30 32 29 29 31 29 29 27 26 25 26 26 24 24 25 23 24 24 22 24 22 28 22
50 49 50 50 50 50 50 50 50 49 49 50 51 50 50 50 45 40 44 47 48 50 33 17 32 32 29 26 28 28 28 26 25 24 25 25 24 25 24 24 24 23 22 21 21 20 18
50 50 50 50 50 49 49 49 49 50 49 49 51 51 50 49 44 44 44 46 50 50 10 17 29 34 31 28 17 22 27 24 23 23 25 24 22 25 25 25 24 23 27 24 23 24 25
50 50 50 50 50 49 49 49 49 49 49 49 50 50 50 48 45 45 50 50 51 33 13 17 32 31 33 30 23 20 23 27 22 22 24 23 23 24 24 23 25 25 26 25 25 24 25
50 50 50 50 50 49 49 49 49 49 49 48 50 50 49 44 43 44 50 51 31 19 11 11 28 33 30 28 26 23 22 26 21 20 23 22 24 24 26 25 27 26 25 23 26 28 24
49 50 50 50 50 50 49 49 49 49 49 48 48 49 49 44 45 50 52 44 22 12 12 23 26 33 29 25 26 24 25 23 24 17 21 19 21 23 26 25 25 27 25 26 25 25 28
49 49 50 50 50 50 49 49 49 49 48 48 48 45 47 48 48 48 43 33 23 15 7 10 24 29 30 25 22 23 24 20 21 20 21 20 18 21 23 24 25 27 26 28 27 26 26
49 49 50 50 49 49 49 49 49 49 48 48 46 41 44 48 49 47 37 33 21 13 7 15 16 24 26 23 22 22 21 20 21 20 22 22 21 20 23 26 26 30 28 26 25 23 22
49 49 49 49 49 49 49 49 49 49 48 48 44 39 41 48 50 42 32 31 30 15 16 18 22 14 24 26 21 23 21 20 21 20 22 22 23 24 29 27 22 26 28 27 29 30 25
48 49 49 49 49 49 49 49 49 49 48 47 43 34 42 48 36 37 32 31 32 24 20 26 34 21 27 28 24 23 22 22 21 22 23 24 26 26 25 22 23 25 26 26 26 23 25
47 47 47 47 48 48 49 49 49 49 49 45 39 39 47 46 31 32 28 30 31 28 20 26 30 33 33 32 26 26 25 28 25 25 26 26 25 23 21 26 26 25 26 27 28 26 26
46 46 46 46 47 47 48 49 49 49 49 46 39 32 40 43 34 31 26 25 26 30 26 25 27 33 36 35 33 28 26 28 32 27 37 34 25 24 22 21 23 23 22 23 26 30 25
44 44 45 46 46 47 47 48 49 49 48 45 39 35 38 33 35 31 28 25 23 23 27 25 27 28 34 31 30 31 28 31 32 35 32 30 25 24 21 19 18 18 20 21 21 23 24
45 45 45 45 46 46 47 48 49 49 48 43 36 32 36 33 36 32 29 24 23 21 24 28 27 27 30 32 31 32 30 30 28 30 31 30 27 26 23 21 18 18 17 16 15 17 17
45 45 45 45 45 46 46 47 47 49 47 41 42 34 36 33 34 31 30 25 21 24 25 24 25 28 30 35 36 36 36 34 35 34 30 31 32 28 26 22 22 26 21 18 18 19 20
46 46 46 46 46 46 46 46 46 48 47 44 42 34 38 30 32 30 28 25 23 23 24 25 27 30 32 37 35 34 34 33 33 31 36 31 30 32 32 34 29 24 23 22 22 21 20
45 46 46 46 47 47 46 46 46 46 47 45 40 38 37 36 28 26 27 26 24 25 25 26 31 30 37 35 32 27 32 32 31 31 33 38 34 34 34 30 25 21 25 25 23 21 21
46 46 46 46 45 46 45 46 46 47 47 45 43 42 40 36 29 26 27 27 26 26 28 28 34 40 37 35 32 23 22 23 26 29 30 33 39 38 34 29 28 27 25 26 25 28 25
46 46 45 45 46 45 46 45 46 46 46 46 43 48 42 34 30 32 30 28 28 28 29 30 38 41 40 38 37 28 22 13 21 31 36 36 39 38 34 32 28 25 25 26 29 30 26
47 47 45 45 46 46 46 46 46 47 46 45 43 46 44 36 33 35 36 31 28 29 33 33 37 38 40 37 34 30 35 24 22 24 34 35 35 38 36 36 33 32 29 29 34 34 32
46 45 45 45 45 46 46 45 46 46 46 46 45 48 46 43 41 40 42 37 39 29 32 35 37 34 34 32 36 34 40 41 28 31 31 35 34 35 34 33 36 35 34 35 33 35 35

GFSGBSN_sfc_dewp_066.txt.gz
Dewpoint
49 49 50 50 51 52 53 53 53 52 53 52 51 52 52 52 52 55 55 55 57 58 58 58 57 57 52 40 35 42 59 57 40 33 31 30 24 20 16 16 17 16 15 13 15 14 16
49 49 49 49 49 49 50 52 54 52 52 52 52 51 52 52 52 54 54 54 55 57 58 57 57 57 50 39 35 30 35 44 35 32 31 30 23 18 16 18 21 19 19 18 17 16 18
50 51 51 51 50 49 49 51 53 53 52 51 51 51 51 52 53 53 54 54 54 55 57 57 57 53 48 40 37 33 33 32 37 34 30 27 24 18 25 23 23 21 19 18 17 18 19
50 51 51 51 50 50 50 50 51 52 53 52 51 50 51 50 51 52 53 53 53 54 56 57 56 51 44 36 35 34 34 31 31 34 32 28 23 25 27 27 25 20 21 16 17 20 24
50 50 50 51 51 51 50 50 50 51 52 53 52 51 50 50 50 51 52 52 53 54 56 56 52 49 38 39 36 34 30 28 29 34 31 28 27 26 27 25 23 19 14 14 16 24 25
48 49 50 50 50 51 51 51 50 50 51 52 52 51 50 50 50 50 52 52 50 53 53 51 49 42 39 28 27 30 29 28 26 33 30 29 27 25 25 23 20 19 17 18 15 24 25
46 47 49 49 50 50 50 52 51 50 50 51 52 52 51 50 50 50 48 44 43 49 49 42 36 34 23 30 26 26 27 27 26 32 29 28 24 23 24 26 25 21 18 18 21 23 24
49 49 48 48 49 50 48 49 50 50 50 50 51 52 52 51 50 50 47 42 32 43 38 41 43 40 36 32 31 28 28 24 27 28 28 26 26 24 24 23 22 22 20 18 19 23 21
50 50 50 50 49 50 49 50 49 50 50 50 50 51 52 51 50 47 43 41 40 44 38 29 27 23 29 31 29 28 27 22 24 26 26 27 26 26 23 23 21 21 18 22 25 22 21
50 50 50 50 50 51 50 50 50 50 50 50 50 51 51 50 44 42 39 40 41 48 34 13 17 25 22 26 23 28 28 22 23 24 24 25 25 24 23 23 22 21 20 23 20 21 17
49 50 50 50 50 50 50 50 50 50 50 50 50 51 51 50 42 42 42 46 46 49 14 6 13 30 28 25 18 23 28 26 21 23 23 23 23 23 24 21 23 23 27 27 23 20 23
49 50 50 50 50 50 50 50 50 50 50 50 50 51 51 48 46 43 45 47 50 34 10 11 29 29 27 24 21 17 26 29 24 23 23 22 23 22 22 23 24 24 24 25 25 23 23
50 50 50 50 50 50 50 50 50 50 50 50 49 50 49 45 43 44 49 48 34 19 5 3 24 28 26 26 23 20 22 27 22 20 23 21 21 21 22 22 24 23 24 24 26 26 25
49 49 49 49 50 50 50 50 50 50 50 49 49 49 47 44 45 47 50 40 25 15 13 16 12 26 26 27 27 25 21 20 24 19 20 20 20 21 23 24 22 25 24 26 25 30 31
49 49 49 49 50 50 50 50 50 50 49 49 49 48 45 44 47 51 42 32 26 19 12 13 19 24 28 26 24 26 24 21 21 22 21 21 19 20 23 24 23 26 27 26 34 35 34
49 49 49 49 49 49 49 50 50 50 49 49 46 45 43 46 50 47 37 30 25 25 19 14 11 22 25 25 24 23 23 24 21 22 25 22 24 21 22 23 23 23 27 26 29 29 23
48 48 49 48 49 49 49 50 50 50 49 49 45 39 41 46 50 42 32 30 29 24 22 17 14 13 12 21 23 21 22 23 26 25 25 24 26 24 23 21 21 22 26 31 26 26 29
47 47 47 48 48 49 49 49 49 50 49 48 43 35 42 46 37 37 31 32 30 20 25 25 24 16 17 20 24 22 21 24 23 26 24 26 28 27 22 22 24 22 25 30 30 27 31
47 47 48 48 48 48 49 49 49 50 49 46 38 39 44 44 32 32 33 28 30 25 23 24 24 21 28 29 23 28 25 30 34 27 28 28 25 24 25 25 25 20 23 25 28 29 28
48 48 48 47 47 48 49 49 49 50 50 46 39 32 40 42 36 32 30 27 27 28 24 25 24 25 28 30 30 30 27 30 39 33 37 36 27 25 26 27 25 22 21 27 28 32 30
46 46 46 46 47 47 47 48 49 50 49 46 39 35 38 32 34 34 30 25 25 23 24 27 27 25 28 26 28 28 30 28 33 37 36 35 28 27 22 22 22 22 21 19 18 25 28
45 45 45 45 45 45 46 47 48 49 49 44 33 32 35 29 35 32 32 28 23 21 22 23 26 27 32 30 28 23 26 30 32 31 32 34 29 29 27 23 21 21 20 20 19 19 20
45 45 45 45 45 45 45 45 46 47 49 42 41 37 35 32 34 33 32 31 25 25 23 21 23 28 31 34 42 38 38 36 36 36 33 33 32 29 27 24 22 24 24 19 19 21 20
46 46 46 46 46 45 45 45 46 46 48 44 43 36 36 30 35 31 30 29 26 25 25 21 23 30 32 36 43 41 35 34 34 35 36 37 33 31 32 33 24 25 24 21 23 21 19
46 46 47 46 46 46 45 45 46 46 47 45 44 39 37 35 30 31 29 30 28 28 26 25 25 25 43 43 39 32 32 32 32 31 33 35 39 34 31 29 26 23 24 25 24 23 23
46 46 46 46 46 46 45 45 46 46 46 46 44 41 40 37 31 28 30 29 29 29 27 28 26 39 42 39 37 29 28 27 25 31 33 32 40 38 37 28 27 31 27 28 28 26 26
45 45 45 46 46 45 45 45 45 46 46 44 45 46 43 38 36 35 31 31 30 29 28 28 32 38 41 39 36 32 28 25 26 32 34 36 37 34 33 32 32 30 29 30 27 31 34
46 46 46 46 46 45 45 45 45 46 46 44 45 47 46 40 38 38 36 33 30 31 30 32 34 40 39 37 36 32 35 28 23 23 34 34 34 35 35 32 30 34 30 28 34 40 37
46 47 47 46 45 46 46 45 45 46 46 45 43 47 50 44 41 43 45 43 36 31 33 34 34 39 34 34 35 35 41 41 28 23 29 34 35 35 34 35 40 39 38 40 41 43 42

GFSGBSN_sfc_dewp_072.txt.gz
Dewpoint
51 50 50 50 50 50 48 49 51 52 53 52 53 52 51 51 50 50 51 52 53 52 52 53 55 56 54 48 46 42 59 57 47 34 26 24 29 30 26 22 21 18 18 20 19 19 16
50 51 51 51 51 51 49 50 51 51 52 52 52 52 51 49 48 48 48 51 52 52 52 52 54 57 50 41 37 42 49 48 39 31 30 27 28 30 27 25 21 21 24 25 24 20 20
48 50 51 51 51 51 51 52 51 51 51 52 52 52 51 51 47 47 49 50 51 51 52 51 52 53 47 42 42 42 41 37 42 34 31 32 32 31 29 26 26 27 25 25 23 22 21
48 48 49 50 50 51 51 51 52 52 51 51 52 52 52 51 51 48 49 49 50 51 51 52 52 51 44 45 45 45 45 44 41 37 37 34 34 31 28 27 25 25 26 21 21 22 21
48 48 48 49 50 50 50 51 51 52 52 51 51 51 52 52 51 51 49 49 49 50 51 52 50 49 42 48 45 45 44 37 36 37 35 36 35 31 28 24 23 26 21 22 23 24 22
47 47 48 49 49 50 50 50 50 51 51 52 52 51 52 52 52 51 50 50 48 49 48 46 49 45 43 32 37 35 39 37 34 33 32 33 29 26 26 24 20 23 23 24 22 22 21
46 46 46 46 48 48 49 50 50 50 50 51 51 52 51 52 52 51 48 42 37 43 46 44 43 41 34 36 38 34 35 35 33 30 27 32 27 25 24 25 24 25 24 23 23 23 26
46 45 45 46 47 48 49 50 51 51 51 50 50 51 51 51 51 51 46 40 39 39 34 36 41 44 44 43 40 40 33 28 29 26 31 30 27 28 27 28 26 25 24 24 24 25 24
46 46 46 46 47 48 48 49 50 50 51 51 51 51 51 50 50 47 44 41 41 41 37 35 38 41 42 43 42 39 34 29 26 26 28 28 29 28 27 25 24 24 24 24 22 24 26
46 47 47 46 47 48 49 49 50 50 50 51 51 51 51 49 44 44 42 43 44 44 32 27 33 31 34 37 35 34 29 28 26 24 25 28 30 29 27 25 25 23 25 24 23 26 22
46 46 48 48 49 49 49 50 50 51 51 50 50 51 51 48 42 42 43 44 44 44 -2 10 23 33 33 29 27 34 32 31 26 23 24 26 29 29 28 26 27 26 28 27 27 26 24
46 47 48 48 48 49 49 50 50 50 51 51 51 51 50 49 45 43 45 45 48 32 16 19 22 26 28 27 23 26 32 31 29 24 23 23 26 28 27 27 27 28 27 29 28 26 23
46 46 47 48 48 49 49 50 50 51 51 51 51 51 50 47 40 43 46 45 32 24 15 10 24 30 24 23 21 24 24 25 24 21 21 20 21 25 25 24 27 26 24 23 23 24 23
46 46 47 48 48 48 49 50 50 50 50 51 50 50 49 48 45 43 46 39 26 22 21 19 20 19 27 24 21 23 23 19 23 25 21 19 20 21 25 23 23 25 25 26 20 23 25
46 46 47 47 48 49 49 50 50 50 50 51 50 49 48 47 45 45 40 27 24 22 25 23 19 15 18 27 25 24 24 22 21 24 22 20 20 24 22 24 24 25 25 29 33 35 30
46 46 47 47 48 48 49 49 49 50 50 50 48 46 44 45 45 43 35 28 26 25 23 25 23 21 17 26 26 25 25 25 24 25 28 26 22 22 23 27 25 26 30 31 34 27 26
46 46 47 47 48 48 49 49 49 49 50 50 46 40 44 45 46 38 28 28 29 28 29 25 22 23 22 23 24 25 28 28 24 27 28 27 26 25 27 24 24 26 26 31 34 34 28
45 46 47 47 47 48 48 49 49 49 50 49 44 34 44 44 35 34 28 30 32 28 30 29 29 26 25 24 25 27 26 27 30 25 26 28 28 25 23 28 28 26 25 28 30 32 34
46 46 47 47 47 48 48 48 49 49 50 47 40 38 44 41 30 30 29 27 30 29 27 28 27 27 24 24 25 29 27 36 33 30 26 28 28 24 22 24 26 25 25 26 34 34 31
46 46 47 47 48 48 48 48 48 49 49 47 36 31 38 40 34 30 30 28 27 29 28 29 29 29 26 24 25 29 30 37 41 35 40 32 31 22 19 24 29 27 25 24 29 30 30
46 46 47 47 48 48 48 48 48 48 49 47 35 33 35 32 33 31 30 28 27 28 30 31 28 30 29 26 26 30 39 39 40 38 38 32 28 28 27 29 29 28 27 27 24 28 27
45 45 45 45 46 46 47 47 48 48 48 44 31 34 36 33 34 32 31 29 26 27 27 28 28 29 29 26 25 26 37 39 39 39 35 34 28 31 30 30 29 28 29 29 28 24 29
45 45 44 45 45 45 45 46 46 47 48 43 42 40 35 33 34 33 29 29 28 29 28 28 28 27 26 27 30 40 41 42 42 40 37 32 32 30 26 29 29 29 31 32 31 30 26
44 45 45 45 45 45 45 45 46 47 48 45 42 41 36 32 31 32 30 29 29 30 28 30 29 28 29 40 40 42 41 41 41 40 40 36 32 31 27 28 27 31 33 34 33 30 28
45 45 45 46 46 46 45 45 45 46 47 45 42 41 38 32 31 31 32 30 29 30 32 29 30 30 28 34 34 31 33 34 35 37 38 39 35 29 27 27 30 30 29 30 29 26 28
46 46 46 46 46 46 46 45 45 46 46 46 42 44 42 35 32 29 31 31 30 29 29 30 32 34 32 35 33 29 27 31 29 33 37 39 39 30 28 26 23 29 30 31 31 27 30
46 46 46 46 46 45 46 46 45 45 46 45 42 44 40 35 35 31 31 30 31 31 29 29 29 31 33 29 27 26 27 33 28 28 31 30 31 28 28 27 30 33 32 33 26 28 32
46 46 46 46 46 45 46 45 45 45 46 45 43 44 40 35 38 33 35 32 31 31 29 30 30 32 33 26 26 28 25 29 30 31 32 30 30 29 29 26 25 36 34 30 34 35 35
46 46 45 46 46 45 46 46 45 46 46 45 41 44 44 40 40 42 38 37 33 32 33 33 30 32 34 31 33 31 26 26 28 25 34 29 31 30 30 30 36 42 42 42 42 39 38

GFSGBSN_sfc_dewp_075.txt.gz
Dewpoint
49 50 51 51 51 51 51 50 51 51 52 52 52 52 51 52 50 50 50 50 51 51 51 51 51 53 53 46 45 44 58 56 45 33 26 25 28 29 26 25 23 20 19 19 19 21 24
49 49 49 49 49 49 49 51 52 51 51 52 52 52 53 52 52 49 49 50 51 51 51 50 51 52 49 39 36 41 41 49 39 31 28 24 24 29 29 27 22 22 20 24 26 25 24
48 48 49 50 50 49 49 51 51 52 52 52 52 52 53 52 52 51 51 50 50 50 51 50 50 49 44 39 40 42 43 39 38 36 30 31 28 30 31 29 30 25 24 24 24 23 22
48 48 48 50 50 50 51 51 51 50 51 52 52 51 51 52 52 52 51 51 51 50 50 50 50 48 41 44 45 44 44 45 44 42 37 36 34 31 30 30 26 23 25 21 22 22 24
47 48 47 49 50 50 50 50 50 49 50 51 52 52 51 51 52 52 51 50 50 51 50 50 48 46 40 46 44 46 44 39 37 39 38 36 35 33 33 25 22 25 16 21 21 24 24
47 47 47 47 49 49 49 50 50 51 51 51 51 52 52 51 51 51 51 50 49 49 48 46 48 42 39 31 35 39 44 40 33 33 33 32 32 29 27 24 21 19 22 24 22 23 24
46 47 46 46 46 46 47 48 50 51 51 51 51 51 52 52 51 51 49 42 33 39 40 39 40 39 36 38 41 37 37 36 33 31 28 31 28 26 27 27 25 24 24 23 23 24 25
46 47 47 45 45 46 46 47 49 51 51 51 51 51 51 52 50 50 46 40 38 39 35 37 36 36 41 43 40 37 38 32 31 28 28 29 27 28 27 27 26 25 24 23 24 25 25
46 46 45 44 45 45 46 47 49 50 50 51 51 51 51 51 50 46 44 40 42 41 38 36 34 30 28 37 38 38 38 30 28 27 28 25 28 30 28 26 25 25 24 23 23 24 25
45 46 45 45 44 45 46 48 49 50 50 51 51 51 50 50 42 43 42 44 43 44 28 19 32 31 33 36 35 35 35 30 28 25 27 26 27 28 28 26 25 22 24 25 25 24 21
44 42 45 44 44 47 48 49 48 49 50 51 50 50 50 48 39 42 43 42 41 41 -3 8 25 32 35 28 27 34 34 30 27 26 25 25 27 25 26 27 26 24 27 27 26 25 24
45 44 43 44 46 47 48 48 49 49 50 51 50 50 50 49 44 42 45 43 47 29 6 11 21 31 32 33 27 31 32 30 28 25 24 24 28 29 27 27 28 29 28 28 29 26 22
45 45 44 45 46 46 48 48 49 49 50 50 50 50 49 47 40 43 43 43 31 24 21 12 22 23 26 28 28 23 30 26 25 21 23 22 22 24 28 28 29 28 24 22 21 23 22
43 45 45 45 46 46 47 48 48 49 49 50 49 49 49 47 43 43 42 35 24 21 19 21 21 19 18 24 22 22 25 24 24 24 22 21 20 21 24 25 23 26 26 25 20 21 22
44 44 45 45 46 46 47 48 48 49 49 49 49 49 48 48 45 45 37 27 21 24 24 25 25 21 16 26 27 24 22 22 20 25 21 22 21 22 22 24 24 24 25 26 30 33 29
43 44 45 45 45 46 46 47 48 49 49 49 47 46 45 47 47 44 33 23 25 27 28 24 23 25 20 23 26 27 27 25 23 20 28 27 21 22 24 23 24 25 30 28 31 26 25
44 44 45 45 46 46 46 47 48 49 49 49 46 40 46 48 47 38 26 25 27 27 28 28 24 23 24 24 27 29 27 27 27 26 22 25 26 24 24 23 23 26 27 32 32 30 24
44 44 45 45 46 46 47 47 48 49 49 48 44 35 46 46 34 34 29 25 30 29 30 28 29 28 26 26 26 30 29 29 28 37 27 26 28 24 24 27 28 25 26 33 28 30 31
44 45 45 46 46 46 47 47 48 48 49 46 39 37 46 42 30 30 31 30 26 28 27 28 29 30 27 24 24 28 30 36 35 38 29 30 28 23 23 24 27 26 26 26 33 35 31
45 45 45 46 46 46 47 47 47 48 49 47 34 31 38 40 37 30 30 30 26 28 29 31 29 29 30 26 27 26 29 35 42 39 43 40 29 24 21 23 26 26 29 28 29 29 30
45 46 46 46 46 47 47 47 48 48 48 46 35 32 35 30 33 31 30 28 28 26 27 27 26 28 27 26 26 26 27 33 34 40 40 35 27 28 25 24 30 29 28 29 26 26 25
46 47 46 46 47 47 47 48 48 48 48 43 31 34 37 33 35 33 32 30 28 27 26 26 28 29 28 26 27 24 29 32 36 40 40 38 29 31 26 27 27 27 29 30 29 29 28
45 45 45 45 45 46 46 46 46 47 48 42 41 40 37 34 35 32 29 29 30 30 29 27 29 29 28 28 30 31 32 38 41 39 39 38 33 30 27 30 31 28 30 28 30 32 31
44 45 45 45 45 45 45 45 45 46 47 45 43 40 36 31 33 32 30 30 29 29 28 30 28 27 28 31 35 31 29 33 40 40 41 38 36 30 28 30 25 30 33 31 31 32 33
45 45 45 45 45 45 45 45 45 45 46 44 45 41 37 32 34 33 32 30 29 29 30 28 30 31 31 31 28 27 28 32 35 37 37 40 38 33 29 27 28 30 32 32 33 31 33
45 45 46 46 45 45 45 45 45 45 46 44 44 45 41 34 33 32 32 31 29 28 28 31 34 34 32 30 29 24 23 28 29 31 36 39 39 35 32 26 21 28 30 32 34 30 34
45 46 46 46 46 46 46 45 46 46 46 44 43 45 40 35 36 33 33 32 31 29 29 30 31 31 33 29 27 26 25 32 28 26 30 31 31 31 32 31 30 32 34 35 31 30 35
46 46 46 46 46 46 46 46 46 46 45 44 42 45 39 35 36 37 35 33 32 31 28 30 31 31 32 27 28 26 23 28 25 29 30 29 30 26 30 28 27 36 37 31 35 37 38
46 46 46 46 46 46 46 46 46 46 46 45 40 44 44 39 39 43 38 35 32 32 30 32 30 32 33 29 30 28 25 24 27 24 31 28 31 29 31 30 35 40 39 42 42 39 39

GFSGBSN_sfc_dewp_078.txt.gz
Dewpoint
49 49 49 49 50 50 50 51 52 52 51 51 51 50 50 50 50 52 52 51 51 51 51 50 50 51 51 42 38 43 54 56 44 33 27 25 27 27 26 25 22 20 20 20 20 20 23
48 48 49 49 49 49 49 49 49 51 52 52 52 52 51 50 49 50 52 51 51 51 51 50 49 51 48 36 31 40 42 45 39 31 27 24 24 28 28 26 24 24 20 22 25 25 25
48 48 48 49 49 49 49 50 49 50 51 52 52 52 52 51 50 50 51 51 51 51 51 50 49 47 45 33 36 38 42 40 37 36 30 27 27 30 30 28 29 26 24 23 23 22 23
47 47 48 50 50 50 50 50 49 48 50 51 50 52 52 52 51 51 51 51 50 51 50 50 49 46 39 43 44 44 44 43 42 38 35 36 35 31 29 30 27 24 24 19 19 22 23
48 48 48 47 49 49 49 50 50 49 49 51 51 51 52 52 52 51 51 51 50 51 51 51 47 45 38 44 42 43 43 41 41 41 38 35 34 32 32 27 24 24 19 18 18 23 24
49 46 47 48 48 48 48 49 49 50 51 51 51 52 51 52 52 51 51 49 49 48 47 46 47 38 33 22 34 39 45 42 34 37 35 34 34 31 29 25 22 21 21 24 21 21 24
48 47 46 47 47 47 47 46 48 49 50 51 52 52 51 51 51 51 48 42 34 33 38 38 38 35 33 41 42 39 39 38 35 32 29 31 28 27 27 29 24 22 22 23 23 24 23
48 47 46 45 45 46 46 45 47 48 50 51 51 51 51 51 51 51 45 40 37 37 35 38 37 36 38 40 35 34 38 33 31 27 29 29 27 28 29 29 27 24 23 22 23 23 23
46 46 46 46 45 45 45 44 47 49 50 50 51 51 51 50 50 45 43 40 43 42 37 35 36 34 31 33 30 27 34 32 30 28 28 24 27 29 28 27 26 26 24 24 22 24 25
46 46 45 45 44 44 44 44 46 49 49 50 51 51 51 50 42 42 40 44 42 42 30 22 30 32 30 30 30 31 31 27 29 27 28 27 25 27 27 26 25 23 26 25 24 24 21
45 45 45 44 44 45 45 45 46 47 48 50 50 51 50 49 38 40 42 43 42 41 -3 10 26 32 34 21 24 33 34 30 16 26 26 25 26 25 27 27 27 25 26 25 25 24 24
45 45 44 44 44 44 45 45 46 47 49 49 50 50 50 48 44 41 44 43 46 27 2 8 25 32 33 32 30 33 32 31 28 26 26 25 27 27 25 27 27 30 27 27 28 26 23
45 44 44 44 44 44 43 44 47 47 48 49 50 50 48 48 40 44 43 44 31 22 19 13 21 23 21 29 30 26 30 26 23 22 22 23 23 24 29 25 29 27 25 23 22 24 23
43 44 44 43 43 44 44 45 46 47 48 49 49 49 49 47 43 43 41 35 24 22 22 21 23 24 18 24 25 25 27 25 25 24 15 15 17 22 24 28 27 27 26 24 20 21 22
42 42 43 43 43 44 45 45 46 47 47 48 49 47 47 48 43 44 36 25 20 24 24 23 23 21 17 25 27 27 24 25 24 24 20 21 19 23 23 25 25 25 26 27 28 31 27
42 43 42 43 44 45 45 45 46 46 47 48 45 45 44 48 47 44 34 20 23 27 28 25 21 25 22 22 25 28 27 27 24 24 27 26 21 23 24 24 24 25 29 27 29 26 24
42 42 43 44 44 45 45 45 46 47 47 48 44 39 45 48 47 38 28 24 22 22 26 27 26 25 25 24 25 29 27 28 28 32 32 25 26 24 24 23 21 25 23 29 30 28 22
43 44 44 44 45 45 45 45 46 46 47 47 42 33 46 47 36 34 30 28 27 27 30 27 29 28 27 27 25 28 30 30 34 36 34 28 25 23 23 26 26 23 25 28 26 27 29
44 44 44 44 45 45 45 45 46 46 47 44 38 38 47 43 30 30 31 29 28 27 27 29 29 29 29 25 22 27 29 34 39 37 37 38 30 20 21 22 26 25 26 29 33 33 29
44 44 44 45 45 45 46 46 46 46 47 45 34 31 38 41 37 33 29 28 30 28 25 30 29 29 29 28 27 26 26 28 34 35 44 41 37 26 19 20 23 25 25 26 29 27 28
45 45 44 45 45 46 46 46 46 47 47 45 35 31 35 30 33 32 30 28 28 26 26 27 27 29 28 26 27 25 25 25 32 38 41 40 33 30 28 24 22 27 27 28 26 27 25
45 45 45 45 46 47 47 47 47 47 47 42 31 33 37 32 33 34 32 29 28 27 26 25 25 26 27 27 25 22 26 28 29 38 39 40 34 32 27 27 25 24 26 28 28 29 29
45 45 45 45 45 45 45 46 47 47 47 41 40 39 37 33 32 33 31 29 30 29 30 27 27 26 28 28 29 29 28 28 29 29 35 38 34 32 25 28 28 27 27 26 28 30 30
45 45 45 45 45 45 45 45 45 47 47 43 41 40 36 31 31 32 30 31 31 29 29 29 28 28 29 32 33 32 32 31 31 29 29 35 34 33 27 29 22 28 31 29 29 28 30
45 45 45 45 45 45 45 45 45 45 45 45 44 40 36 31 34 31 31 31 31 32 30 29 30 29 30 31 29 27 26 30 31 33 34 37 36 32 30 29 28 27 32 33 32 30 33
44 44 45 44 45 45 45 45 45 45 45 43 42 44 40 34 33 33 33 34 32 30 30 31 31 34 33 31 30 25 22 24 27 32 35 33 37 34 31 28 25 28 30 34 34 29 34
45 45 45 45 45 45 45 45 45 45 45 43 42 42 40 35 36 36 35 34 32 30 28 30 31 33 33 31 28 27 24 28 24 27 31 34 33 33 31 29 31 34 34 36 28 30 37
46 46 46 45 46 46 45 45 45 45 45 44 42 43 39 35 38 38 36 34 32 30 28 31 32 31 32 29 29 28 23 26 25 26 30 30 29 29 32 30 27 36 37 34 36 38 39
46 46 46 46 46 46 46 46 46 46 46 45 40 44 43 40 39 43 42 39 33 32 30 32 31 31 31 29 29 27 24 23 26 22 28 25 31 28 30 30 35 38 39 42 42 41 39

GFSGBSN_sfc_dewp_081.txt.gz
Dewpoint
49 48 48 49 49 49 49 49 50 51 51 52 52 51 50 51 50 50 51 51 51 50 50 50 50 51 49 35 25 40 52 56 50 40 29 27 29 30 29 27 23 24 23 22 22 21 20
48 48 48 49 48 47 47 49 49 51 51 51 52 52 51 51 51 51 51 51 51 50 49 49 50 50 47 27 21 40 40 40 38 32 29 26 26 27 27 27 24 26 22 21 24 25 25
46 48 48 49 50 48 47 49 49 49 50 50 51 51 52 50 51 51 51 52 51 51 49 49 49 46 43 32 32 35 39 37 37 36 29 27 25 29 29 28 28 27 25 25 24 23 22
48 48 47 49 49 49 49 49 48 49 49 49 50 51 51 52 52 52 52 52 51 51 50 49 49 46 36 40 43 42 42 40 39 36 33 33 36 29 28 29 27 25 24 22 20 22 23
49 49 48 47 49 49 49 49 48 48 48 49 51 52 52 52 52 51 51 51 51 50 50 50 46 43 33 41 41 40 40 36 42 40 35 34 34 33 31 25 24 25 16 20 18 21 22
47 47 48 48 47 47 48 48 48 49 49 50 51 51 52 52 51 51 51 49 48 47 48 47 44 37 33 18 35 38 44 43 35 38 35 33 34 32 31 26 19 21 21 22 20 20 24
45 46 47 47 46 46 47 47 47 48 48 49 51 51 52 51 51 51 48 42 37 34 38 35 34 34 33 39 40 40 43 39 34 33 28 34 29 29 29 29 24 24 22 19 21 24 23
45 45 46 47 46 45 46 45 47 47 48 49 50 51 51 51 51 51 45 38 39 40 35 37 36 36 37 38 32 32 36 34 33 27 30 30 29 30 29 30 28 24 22 21 23 24 24
45 44 46 46 44 44 45 44 45 46 47 49 50 51 51 51 50 45 42 38 42 41 38 34 37 35 33 32 30 28 31 34 30 28 28 25 28 30 28 28 28 28 27 25 23 24 24
45 46 45 45 44 45 45 43 44 44 47 48 49 50 50 50 45 42 40 43 43 43 30 24 29 32 30 31 28 29 25 26 31 27 28 26 25 27 28 25 27 24 27 27 26 24 18
44 46 46 46 45 44 45 45 44 44 45 47 49 50 50 49 40 40 42 44 44 42 1 12 29 31 30 25 23 32 30 27 15 27 29 26 27 24 25 26 28 24 27 27 26 24 23
44 43 44 45 45 45 45 44 44 44 45 46 48 49 49 48 45 43 43 44 46 29 3 10 29 32 27 28 27 33 32 31 27 20 23 24 27 27 22 26 28 29 26 26 27 25 21
43 43 43 44 44 45 45 44 44 44 45 46 48 49 48 48 42 45 45 43 29 20 19 17 20 24 23 26 29 28 29 26 24 18 18 20 21 25 27 25 29 27 26 22 24 24 18
43 44 44 44 44 44 43 43 44 45 46 47 48 48 47 48 44 44 43 33 23 20 23 23 23 24 17 22 26 28 28 25 25 24 15 16 14 23 27 25 25 27 26 21 14 20 19
39 41 43 42 42 43 43 43 44 45 46 46 47 45 46 47 46 45 38 25 19 22 24 24 22 20 20 24 27 28 26 25 25 24 17 17 14 20 24 28 26 28 25 26 26 32 28
41 41 42 43 44 43 42 44 43 44 46 46 44 43 41 48 48 43 34 24 23 26 27 27 18 24 22 23 26 28 27 28 27 32 28 26 21 24 23 24 25 27 29 25 26 19 19
41 41 41 42 43 43 43 43 44 44 45 46 43 38 43 49 47 39 28 26 23 22 22 27 26 24 25 25 25 28 27 28 33 34 33 27 25 26 26 23 21 22 25 29 27 27 20
40 41 42 42 43 43 44 44 45 44 45 45 40 32 45 48 35 34 31 28 29 26 27 23 28 27 26 26 24 24 27 27 36 36 35 37 31 22 21 26 24 24 23 25 27 27 29
42 43 43 43 44 44 44 45 45 45 46 43 36 36 45 44 29 29 35 33 27 25 26 28 26 28 28 24 19 24 28 32 36 33 32 33 34 24 20 20 21 23 26 24 25 30 27
43 43 43 44 44 44 45 45 45 45 46 43 36 30 37 40 38 31 29 32 31 29 26 29 29 29 28 27 27 25 26 27 31 26 42 37 34 33 25 25 27 23 25 27 27 27 25
43 44 44 45 45 45 45 46 46 46 47 43 36 31 34 30 32 34 32 29 28 27 28 27 25 29 27 25 26 25 25 25 26 31 40 36 25 29 33 32 33 31 23 23 27 28 26
44 45 45 45 45 45 45 45 46 46 46 42 32 33 36 32 33 34 31 29 27 29 27 26 25 26 26 27 27 23 24 25 25 29 27 34 32 34 32 32 32 30 27 23 26 26 27
44 45 45 45 44 44 45 46 47 46 46 40 40 40 37 33 34 33 32 29 29 29 30 27 27 26 29 30 31 30 30 29 28 28 28 29 34 34 27 32 33 28 27 25 24 27 28
45 45 45 45 44 44 44 44 44 45 46 43 41 40 36 31 32 32 32 31 29 29 30 30 29 30 32 33 32 32 32 31 31 30 30 29 32 34 29 33 26 28 31 29 27 27 31
45 44 44 44 45 45 44 45 44 44 45 44 43 39 35 30 33 31 32 32 32 34 32 32 31 33 36 35 31 27 27 28 29 30 31 32 29 32 29 30 31 31 34 33 30 28 31
44 45 45 45 45 44 45 45 45 45 44 42 43 44 40 33 31 32 32 32 31 32 34 34 35 38 35 35 32 25 21 24 24 28 30 30 30 34 33 27 23 31 34 35 34 30 35
44 45 45 45 45 44 45 45 45 45 45 42 41 42 38 34 35 35 33 34 34 33 32 33 34 36 36 33 28 24 23 25 20 26 30 31 33 30 30 29 31 34 35 38 29 31 37
45 45 45 46 46 45 45 45 45 45 45 43 40 43 38 34 36 38 37 36 34 32 31 33 34 35 34 31 29 30 28 26 23 24 30 31 31 31 31 29 26 37 38 34 38 41 41
45 45 46 46 46 46 46 45 46 45 45 44 40 43 43 38 38 43 42 41 35 34 33 34 33 32 34 31 32 31 29 29 26 21 27 24 32 31 33 32 37 39 40 42 43 43 42

GFSGBSN_sfc_dewp_084.txt.gz
Dewpoint
49 47 48 48 48 48 47 48 50 51 50 51 50 49 49 49 49 51 52 52 51 50 50 50 49 51 45 29 11 30 54 54 49 41 31 30 29 24 21 19 18 22 16 18 19 20 21
48 48 49 48 48 48 46 47 49 50 50 49 49 50 50 50 50 49 51 51 51 51 51 50 49 50 40 26 10 31 37 40 35 39 37 30 29 29 25 23 23 21 22 20 21 21 22
49 47 49 49 49 48 48 48 49 49 50 50 50 51 51 50 50 50 51 51 51 52 51 51 49 44 39 27 22 32 34 34 38 32 29 31 30 26 26 25 26 25 22 21 22 22 22
47 50 49 50 50 49 49 49 48 48 48 48 49 51 52 52 52 52 52 51 51 51 51 50 49 43 35 29 33 32 27 27 26 29 29 32 31 29 27 27 26 23 24 21 20 18 18
46 48 48 49 50 48 49 49 49 46 47 48 49 51 51 52 52 52 52 51 51 50 50 49 45 42 25 36 32 30 27 22 30 29 24 22 31 26 24 24 20 20 18 20 20 20 17
48 47 45 47 49 48 48 48 49 48 47 48 49 50 51 52 52 52 51 50 47 47 46 43 41 38 31 10 29 37 40 40 37 37 26 21 29 25 26 20 14 17 19 21 20 18 19
44 45 45 46 46 48 45 44 48 48 48 48 47 50 51 51 51 51 47 38 32 34 38 32 27 27 22 32 34 32 41 41 35 32 17 22 24 21 20 24 22 20 21 20 19 20 21
44 46 46 44 45 47 45 44 47 47 46 45 47 49 50 51 51 51 46 34 37 40 35 35 33 30 29 31 29 25 38 33 33 25 21 22 22 20 21 24 27 25 22 20 19 19 23
45 44 43 43 44 46 44 43 46 46 45 46 47 48 49 51 51 47 41 36 42 42 36 31 33 32 32 31 26 24 32 33 28 26 25 23 19 21 24 27 26 25 23 22 19 20 22
43 43 46 45 46 46 45 44 44 44 45 46 47 48 49 50 46 42 39 40 42 44 31 19 28 30 32 29 26 24 21 28 29 24 24 26 25 23 23 25 23 22 21 22 22 21 17
43 43 43 43 45 46 45 45 43 43 44 45 47 47 49 48 45 38 40 43 44 44 9 11 26 30 29 25 20 31 26 17 18 27 28 24 26 24 25 24 24 22 22 19 22 23 23
42 41 41 42 44 45 45 45 45 44 43 44 45 46 48 45 45 44 44 45 43 30 8 8 27 28 25 25 23 32 29 24 19 11 12 23 26 26 25 22 24 26 26 26 26 24 22
42 42 44 43 43 44 44 44 44 44 44 44 46 46 46 47 41 45 48 43 29 18 13 12 22 23 19 25 28 29 28 27 22 15 11 4 15 20 25 21 23 26 23 21 23 23 20
40 40 40 42 45 45 44 44 44 44 45 45 46 47 45 45 47 46 46 34 24 14 18 19 20 19 15 22 26 26 28 25 26 22 13 7 2 8 13 18 17 24 24 22 17 19 20
40 39 40 40 42 44 43 43 43 44 45 45 46 41 44 44 47 49 39 29 13 17 20 22 18 15 17 22 25 27 24 23 27 24 18 13 10 13 15 15 13 21 23 24 24 23 26
39 39 41 41 43 43 43 44 43 42 43 45 41 41 40 44 49 45 35 27 20 25 26 24 16 20 16 19 17 22 26 29 28 31 34 22 18 16 17 22 19 17 20 23 24 19 18
38 40 41 42 42 42 42 43 41 41 43 44 42 36 38 44 48 39 30 30 25 22 24 25 22 20 22 21 21 19 21 28 29 30 33 30 24 22 25 21 19 21 23 24 23 22 19
41 42 40 40 40 41 41 41 42 43 45 44 40 32 39 48 34 34 32 28 32 23 24 23 26 26 23 23 20 19 18 25 30 30 29 35 33 23 20 23 24 22 22 24 23 18 24
40 40 40 41 42 43 44 43 43 44 44 43 36 35 42 44 30 29 33 35 28 24 25 23 22 24 24 23 19 22 22 28 29 27 28 29 34 26 21 22 21 21 22 23 24 25 25
42 42 42 43 43 44 44 45 45 45 45 45 36 31 36 40 37 32 26 29 34 31 24 25 26 26 26 25 26 22 23 23 30 26 38 32 25 29 27 29 31 29 28 24 24 26 24
43 43 44 44 44 44 44 45 45 45 45 44 36 32 30 31 32 33 32 28 28 30 26 26 25 26 25 24 25 25 26 26 26 30 31 31 24 21 22 24 25 26 28 28 25 23 25
44 44 44 44 45 45 45 45 46 45 46 41 33 34 34 27 27 30 33 28 27 23 28 26 25 24 26 26 25 24 26 27 25 27 29 29 31 30 29 27 26 27 27 28 27 26 22
44 44 45 45 44 44 45 46 46 46 46 40 40 40 38 31 31 32 31 31 29 29 28 26 26 26 26 26 29 32 32 31 30 28 29 29 30 30 24 26 28 26 29 30 26 26 25
45 44 45 45 45 44 45 44 44 46 46 43 41 40 35 29 29 27 27 30 27 26 27 28 28 28 31 36 36 34 32 30 30 30 30 28 28 31 26 30 24 27 36 36 30 26 25
44 45 44 44 45 44 44 45 45 45 44 44 43 40 36 32 30 29 29 32 30 33 33 32 30 30 38 37 33 27 28 28 27 28 29 30 28 29 26 26 27 31 32 37 35 28 26
44 44 45 45 45 45 45 45 45 45 44 43 44 44 41 34 31 28 30 29 29 30 35 34 35 39 39 36 34 25 20 20 20 24 27 26 30 28 27 26 21 27 31 38 35 33 35
44 44 44 44 45 45 45 45 45 45 45 43 40 44 40 36 31 29 29 30 33 33 32 35 38 37 39 34 30 25 22 21 19 22 28 28 28 27 26 28 26 32 35 37 35 37 41
44 44 45 45 45 45 45 45 45 45 45 44 41 44 38 36 35 34 32 31 32 35 32 37 36 36 34 33 30 27 26 22 20 20 32 30 27 28 27 29 25 34 32 33 40 43 41
45 45 45 45 45 45 46 46 45 45 45 44 40 44 43 38 38 41 41 39 34 34 35 38 31 35 34 31 31 29 30 32 24 22 21 21 35 34 31 27 32 33 36 39 39 40 40

GFSGBSN_sfc_dewp_087.txt.gz
Dewpoint
48 50 49 49 48 48 48 46 49 50 50 50 50 49 48 49 49 50 51 52 50 50 50 50 51 50 44 30 24 26 49 54 45 42 33 29 28 26 25 20 20 20 18 17 14 17 16
50 49 48 48 49 47 47 48 48 49 49 50 50 50 50 50 50 50 51 52 52 51 50 50 51 50 37 29 15 12 23 26 26 37 33 29 28 27 24 22 21 21 17 18 19 18 20
47 49 50 51 50 48 47 48 48 49 49 49 50 50 50 50 51 52 52 52 52 52 51 50 50 45 35 27 18 19 28 22 27 25 29 34 31 28 28 27 24 22 21 22 21 21 20
49 48 47 50 51 51 50 48 47 47 47 47 47 49 51 51 52 52 52 52 52 52 51 50 50 44 32 25 23 24 25 20 25 30 29 30 32 31 30 27 26 24 24 22 22 22 21
48 49 48 48 49 50 50 50 48 47 47 47 47 48 50 51 52 52 52 52 52 52 50 50 46 41 26 34 25 23 22 18 15 18 21 16 21 28 28 26 24 25 21 22 20 21 20
45 46 46 48 47 48 49 48 49 48 47 47 47 48 50 51 51 51 51 51 48 48 47 43 38 37 33 12 19 30 38 19 17 24 20 17 10 16 16 17 18 20 20 18 19 21 21
45 45 44 45 46 46 46 48 47 48 46 46 46 47 48 51 51 51 48 40 33 38 39 32 29 30 20 21 25 19 38 39 38 35 20 16 4 13 16 17 16 19 18 17 20 21 21
44 45 47 45 45 45 45 47 47 48 45 46 46 47 48 49 50 51 47 37 35 38 34 31 29 27 26 24 22 22 27 32 33 28 25 14 11 14 19 18 18 21 19 20 20 21 21
46 47 44 44 45 44 44 46 47 46 45 45 45 46 48 49 50 46 41 36 38 41 33 25 26 27 27 27 24 21 21 31 28 26 20 21 18 17 18 19 23 20 22 23 21 21 20
43 44 42 42 45 46 46 46 46 45 46 45 45 45 48 49 45 39 38 38 41 44 27 13 23 26 29 27 25 24 18 25 25 21 19 20 19 21 20 19 21 22 23 22 20 20 18
42 42 42 42 44 44 45 45 45 45 44 44 45 45 47 47 43 39 40 42 43 43 3 14 19 29 29 24 21 25 28 18 20 21 22 19 21 21 22 21 19 23 23 22 22 19 20
42 41 42 41 43 44 44 46 46 44 45 44 44 44 46 41 43 40 41 44 43 29 6 7 22 25 26 26 21 30 27 20 15 14 21 23 23 23 20 23 25 26 23 23 23 21 21
41 43 42 42 43 44 44 45 45 44 44 43 44 44 43 40 39 47 48 45 27 15 8 4 20 24 19 23 26 27 25 21 17 12 16 16 14 21 24 23 26 24 23 21 23 23 22
42 41 40 40 40 41 45 45 45 45 44 43 45 46 42 38 41 46 47 37 23 9 11 17 17 19 15 18 25 27 27 23 25 18 15 7 5 2 17 20 20 23 23 22 19 21 22
39 41 41 40 40 40 42 45 44 45 44 43 44 38 37 41 44 48 40 29 19 16 12 17 16 16 13 19 24 25 26 22 23 23 19 13 10 8 2 9 15 18 22 23 21 23 25
41 41 39 41 40 41 43 43 43 44 43 42 37 35 34 41 46 45 35 28 20 19 24 21 18 18 14 17 20 21 24 27 27 31 30 23 20 15 11 14 10 11 7 16 19 19 19
38 39 39 40 41 42 43 43 43 43 41 41 38 34 34 41 48 39 30 30 23 25 23 23 20 18 17 18 18 15 16 28 28 28 33 29 25 20 19 17 16 14 13 17 20 21 17
39 39 40 41 43 42 42 42 42 42 43 40 38 32 34 46 36 36 30 29 33 28 22 20 24 24 22 19 19 18 17 21 27 27 27 33 33 24 19 19 19 18 19 18 19 19 19
41 41 42 41 41 42 43 43 43 43 43 37 34 32 37 45 30 29 26 29 33 28 25 22 19 20 20 20 18 20 21 25 27 23 27 26 30 25 21 20 21 21 22 21 22 23 22
40 41 41 41 41 42 43 44 44 43 43 43 37 33 31 40 35 32 26 23 25 32 32 22 23 21 21 22 23 24 21 23 27 25 34 30 22 22 22 27 27 23 20 22 23 24 22
43 43 43 43 44 43 44 44 44 45 44 45 37 33 27 31 31 28 27 27 26 23 31 27 27 26 22 21 22 24 26 25 26 32 28 26 22 20 18 17 18 23 23 23 23 24 23
44 44 44 44 45 44 44 45 45 45 45 41 33 32 28 24 24 28 27 25 22 29 32 28 27 24 23 22 22 26 31 30 29 28 28 31 27 26 23 21 21 19 21 21 21 23 23
44 44 45 45 44 44 44 45 46 46 44 39 40 36 36 29 27 26 25 26 23 26 26 26 25 24 23 26 27 30 30 31 30 30 29 30 29 28 24 19 25 25 21 21 25 29 27
44 45 45 45 45 45 45 45 45 46 46 42 40 39 34 29 28 27 23 22 25 24 25 28 26 26 28 34 33 32 31 30 31 30 29 30 28 29 26 24 19 18 31 32 33 34 35
45 45 44 45 45 45 45 45 45 45 46 43 43 40 36 32 25 23 27 25 24 28 29 31 27 31 38 36 32 27 27 27 28 28 28 29 28 31 26 23 20 18 24 27 29 30 37
44 44 45 45 45 45 45 45 45 45 44 45 43 44 41 34 29 24 23 24 28 29 30 29 34 41 38 37 35 25 23 22 21 22 26 26 29 29 26 20 20 30 30 36 36 33 41
44 44 44 45 44 44 44 45 45 45 45 43 42 44 41 37 31 29 27 29 32 31 30 35 39 38 38 36 31 27 25 20 20 21 28 27 29 27 26 23 25 32 33 37 31 36 40
46 44 44 44 44 44 44 45 45 45 44 45 41 44 40 37 33 34 30 29 30 33 34 39 37 37 35 33 30 27 27 23 20 20 30 28 28 29 27 22 23 32 33 35 39 43 42
46 46 45 45 45 45 45 45 45 45 45 45 41 43 43 38 37 40 37 38 34 30 36 39 31 36 34 34 31 30 29 31 23 22 26 29 30 31 24 25 38 34 39 38 39 39 39

GFSGBSN_sfc_dewp_090.txt.gz
Dewpoint
50 49 49 48 49 49 48 48 50 50 50 50 49 48 48 48 49 50 52 52 52 51 51 51 50 50 44 29 28 24 57 56 42 39 34 32 28 28 26 26 26 22 20 20 20 19 17
49 48 50 51 49 48 48 47 48 49 50 50 50 50 49 48 49 50 52 52 53 52 51 51 51 50 40 27 21 17 13 18 23 32 35 31 26 26 26 24 25 24 21 19 20 19 18
49 50 50 50 50 50 49 49 48 47 48 48 49 50 49 48 49 50 51 52 52 52 52 51 51 45 37 29 19 21 23 23 19 22 24 30 29 28 29 27 27 25 24 22 21 19 20
47 48 49 50 50 49 50 50 48 47 48 48 48 49 49 50 51 52 52 51 51 52 52 51 50 44 34 29 25 22 20 20 21 20 28 25 29 31 30 29 27 24 24 21 21 21 23
47 47 47 48 49 49 49 50 49 48 48 47 47 48 49 50 50 51 51 51 51 51 51 52 46 41 29 34 27 25 24 18 19 18 23 26 25 29 29 27 26 25 22 23 22 23 23
46 47 45 46 47 47 48 49 50 49 48 47 46 47 48 49 50 51 50 50 48 49 47 43 40 37 36 25 13 20 29 31 20 16 14 17 15 14 16 21 21 21 21 22 22 23 21
45 44 45 46 47 46 47 47 48 49 48 47 46 46 47 49 50 50 47 41 32 36 42 35 32 31 26 21 23 20 21 33 17 14 13 13 11 7 9 16 18 20 19 20 21 23 20
44 44 45 45 47 46 45 45 47 48 47 46 46 45 46 48 49 50 45 41 34 36 32 32 30 30 29 25 21 21 20 32 32 29 29 20 11 9 4 11 16 16 17 18 22 24 20
43 45 46 47 45 44 45 46 47 47 47 46 45 45 45 47 48 44 40 39 34 39 33 26 25 24 22 23 20 19 19 17 24 26 25 24 20 12 10 4 10 19 21 20 24 26 23
46 44 43 44 45 43 45 46 46 47 46 46 46 45 45 47 43 41 39 39 39 43 30 14 22 22 23 25 24 24 22 18 18 23 24 24 20 16 17 16 11 16 21 24 26 27 26
43 43 43 43 43 43 44 44 45 45 45 45 46 44 45 44 40 39 40 42 40 44 13 17 20 26 26 22 21 21 22 18 16 23 22 21 18 16 17 16 19 18 23 25 30 29 25
43 43 43 43 43 43 45 44 45 45 45 44 44 44 44 38 39 38 38 42 44 30 10 2 21 21 23 24 20 28 28 26 17 14 16 19 20 20 17 20 20 23 22 25 27 27 25
43 43 43 43 43 43 42 44 45 45 45 44 44 43 42 36 36 46 50 44 30 18 2 -1 13 18 21 21 21 18 26 22 13 11 12 12 16 19 23 22 23 22 23 21 23 25 25
43 41 43 42 41 41 41 41 44 45 44 44 45 45 41 36 37 42 46 37 25 16 13 7 13 18 19 14 22 21 23 18 18 14 9 11 10 15 20 21 20 21 25 21 18 26 30
40 40 41 42 43 42 41 41 43 45 45 43 43 38 37 39 42 43 40 27 19 18 17 14 13 12 15 12 18 23 24 22 20 20 18 16 12 10 8 13 20 21 22 23 23 25 26
41 41 41 40 41 40 41 42 42 41 43 42 35 36 36 41 46 44 34 26 21 19 23 27 20 14 11 11 17 20 21 21 29 27 29 23 21 19 9 5 11 17 23 22 23 19 15
40 39 39 39 40 41 43 43 43 43 43 41 34 34 33 40 47 39 28 25 23 21 26 29 20 27 25 27 17 18 26 35 27 27 29 31 25 21 17 9 9 8 9 14 13 15 16
39 40 40 41 41 41 41 43 43 43 43 39 33 32 35 43 35 35 30 24 27 21 25 31 30 25 30 25 22 17 15 26 27 27 25 32 31 27 19 18 16 15 13 12 16 16 22
40 41 41 42 42 42 42 42 43 43 43 37 32 28 38 44 29 26 24 22 22 22 25 26 29 18 22 19 18 17 20 27 27 24 26 26 25 24 20 19 20 20 19 17 18 20 20
41 41 41 41 41 41 41 42 43 43 43 41 37 31 29 40 33 29 25 21 20 21 27 31 29 26 18 15 18 19 20 23 28 26 33 29 23 21 20 26 27 26 26 18 20 22 21
42 42 43 42 42 42 42 42 43 44 44 43 37 32 28 30 30 26 25 23 26 22 20 27 33 30 22 16 15 17 19 22 28 34 30 26 21 21 17 15 15 15 16 23 23 21 21
43 44 45 44 44 44 43 44 44 44 44 40 33 31 27 25 30 27 24 22 19 20 27 28 25 27 23 26 22 20 27 29 29 29 27 29 29 25 22 20 19 17 16 16 20 20 19
44 44 44 45 44 45 44 45 45 45 43 39 36 31 32 27 25 24 27 25 19 20 21 28 33 27 25 25 25 30 32 34 34 29 29 29 29 28 23 22 20 22 22 17 15 19 20
44 44 45 45 45 45 45 45 45 46 44 42 39 32 32 27 27 25 22 20 21 22 23 24 35 34 32 32 33 30 29 28 28 28 29 29 27 29 27 26 18 19 18 28 24 27 29
45 45 45 45 45 45 46 45 45 45 46 42 42 38 34 29 25 24 26 28 25 24 24 24 26 35 38 33 29 25 26 26 26 28 28 29 27 30 25 23 21 20 19 24 27 27 38
45 45 45 45 45 45 45 45 45 45 44 44 41 42 39 33 28 23 23 23 27 29 28 27 39 41 39 36 31 23 21 22 21 23 27 27 28 29 27 21 18 27 37 35 32 29 39
45 46 46 45 44 45 45 45 45 45 45 43 43 43 39 34 34 29 29 28 27 28 30 30 38 38 38 33 29 24 23 22 23 23 26 27 30 28 28 24 23 28 38 41 30 33 40
45 46 46 46 45 44 45 45 45 45 45 45 42 43 39 34 36 32 31 32 32 35 33 36 37 36 35 32 28 26 27 30 21 19 32 28 28 29 28 23 22 38 34 36 38 39 39
46 46 46 47 46 45 44 45 45 45 45 45 40 43 44 37 37 40 40 38 36 36 38 39 35 36 34 31 29 30 30 34 24 21 27 29 29 30 27 26 39 41 39 36 36 36 36

GFSGBSN_sfc_dewp_093.txt.gz
Dewpoint
50 50 50 50 50 50 49 49 50 51 50 50 50 49 48 48 48 49 51 52 52 52 52 52 52 51 47 33 31 37 57 57 51 48 38 35 27 25 24 28 28 26 25 24 22 21 20
48 49 50 50 50 49 50 50 51 50 50 51 50 50 49 47 47 48 50 51 52 52 51 51 51 51 42 29 25 22 30 35 38 34 34 34 32 30 27 27 26 27 27 26 23 22 21
48 48 48 49 50 50 49 51 51 50 50 50 50 50 50 47 47 48 49 51 51 51 50 50 51 48 40 31 25 26 26 25 23 22 20 26 34 30 29 28 27 27 26 25 26 25 22
48 48 48 48 49 50 50 50 50 50 50 50 50 50 49 49 49 50 50 51 51 51 50 50 51 46 37 33 32 29 27 25 23 21 20 24 28 30 32 31 30 28 27 24 25 24 23
47 46 47 47 48 49 49 49 50 49 49 50 49 49 49 49 50 50 50 51 50 50 50 51 48 44 36 39 34 32 30 26 23 21 22 17 27 27 30 29 28 28 25 25 24 25 24
47 47 46 45 47 48 48 49 49 49 50 50 49 48 48 49 49 50 50 49 48 48 47 45 43 40 40 30 25 23 25 26 21 19 21 18 18 18 23 25 24 24 23 23 23 24 24
45 46 45 45 45 46 47 47 48 48 49 49 47 47 48 48 48 49 48 42 35 38 41 39 37 34 30 32 29 23 23 23 28 21 15 16 13 12 14 18 21 21 21 21 21 19 20
46 46 45 44 46 47 47 47 47 48 48 47 48 48 47 47 48 48 44 39 39 37 34 34 33 33 36 36 32 30 26 24 34 16 14 14 11 11 12 12 12 14 16 16 16 19 19
44 45 46 46 46 46 47 45 46 46 47 47 47 47 46 47 48 44 39 38 40 40 35 29 29 28 30 29 29 27 21 20 22 30 26 20 23 17 13 10 6 4 10 17 19 23 26
43 44 45 44 44 43 43 43 45 45 46 47 46 46 46 47 42 39 41 41 42 42 30 24 23 22 23 23 24 22 21 19 19 15 25 27 27 25 19 10 10 5 6 10 17 27 26
42 43 43 43 43 43 44 43 45 44 45 47 46 46 46 44 39 35 37 38 41 41 14 16 20 25 21 22 23 23 25 21 18 17 23 22 24 23 22 18 18 15 15 14 28 28 29
41 43 43 43 43 43 43 44 44 44 45 46 46 45 45 40 40 37 37 43 42 28 16 13 23 22 23 25 23 25 26 25 22 18 16 18 19 19 19 21 21 24 24 27 29 30 28
41 41 43 42 42 42 42 42 44 43 44 45 46 45 43 38 34 39 44 42 28 23 16 6 18 21 23 24 23 24 27 25 18 14 15 14 13 14 19 19 24 24 22 22 24 24 23
40 41 41 43 43 43 42 42 43 43 44 45 45 45 43 39 39 37 43 36 23 19 17 21 24 21 19 20 22 21 25 22 23 16 12 12 12 12 14 16 21 23 22 25 20 25 30
39 40 41 42 42 42 41 41 42 43 44 44 44 40 40 39 40 40 37 26 23 19 18 19 24 21 16 19 18 22 19 23 19 17 16 19 16 23 11 12 22 23 21 24 25 25 28
40 40 40 40 40 40 41 41 42 42 41 43 38 37 34 37 41 39 33 26 23 22 21 25 23 25 24 27 26 17 24 28 26 33 27 26 23 26 21 15 20 19 24 23 25 19 16
39 39 40 40 40 40 40 41 43 42 44 43 37 32 33 38 44 35 26 24 21 23 23 22 27 31 30 30 31 26 23 34 37 32 35 35 32 26 25 13 9 14 18 23 19 24 20
38 39 40 41 41 41 41 41 41 42 43 40 35 27 35 40 31 31 26 25 27 22 23 26 32 30 34 31 28 31 33 35 37 31 27 29 32 28 26 27 28 14 11 12 14 14 18
39 40 41 41 41 42 43 43 41 41 42 38 33 29 34 42 22 26 28 26 25 24 22 22 29 32 30 29 26 30 30 32 32 30 26 25 26 25 22 25 31 29 18 15 17 17 15
40 41 41 41 41 41 41 41 42 43 41 41 34 23 28 37 36 32 27 27 24 23 21 21 26 28 29 26 25 24 25 31 32 28 35 30 25 23 21 23 26 22 21 21 28 24 18
41 42 42 42 43 43 43 42 43 43 43 39 32 28 30 25 28 30 28 27 25 24 26 24 28 26 27 28 26 19 22 30 30 35 33 29 23 25 22 21 19 19 17 17 15 30 29
42 43 44 44 44 44 44 43 44 44 43 38 31 30 29 26 27 33 31 25 23 22 27 25 25 25 29 27 28 26 28 31 32 31 31 34 30 30 27 25 24 21 21 19 17 17 19
42 44 44 44 44 44 45 45 45 44 43 37 36 34 32 27 27 27 28 30 25 24 23 24 28 29 29 33 34 35 33 33 34 33 30 31 31 28 26 26 26 23 23 20 20 19 19
43 44 44 44 44 44 45 45 45 45 44 40 38 34 31 23 24 22 22 24 24 24 25 26 32 32 33 39 38 33 31 31 34 33 30 30 30 29 27 26 18 24 23 23 30 36 38
43 44 44 44 45 45 46 45 46 45 45 41 41 37 32 25 23 23 25 26 30 32 28 28 32 37 40 38 32 25 25 27 28 28 27 30 29 26 25 24 25 23 34 36 36 36 39
44 44 45 45 45 45 45 46 46 46 46 43 41 41 37 31 25 25 25 25 28 29 29 30 39 40 40 35 28 22 21 26 23 23 27 28 31 28 26 23 18 31 36 39 37 33 39
44 45 45 46 46 46 45 45 46 46 45 43 41 42 38 32 31 28 26 26 30 30 29 31 35 36 38 33 25 24 23 22 24 28 26 27 28 25 25 26 26 37 38 40 33 33 38
45 45 45 46 46 46 46 45 45 45 45 42 40 42 38 33 33 35 34 32 32 33 31 34 34 35 34 27 26 24 23 27 29 29 28 27 29 26 26 26 21 39 37 36 37 38 37
45 45 45 46 46 46 46 45 45 45 45 43 40 42 42 37 36 39 38 39 39 39 38 37 36 35 34 29 29 29 26 28 32 24 34 28 30 27 28 28 39 40 38 37 37 35 35

GFSGBSN_sfc_dewp_096.txt.gz
Dewpoint
48 49 49 50 51 51 50 50 51 51 51 51 51 50 48 47 47 47 49 50 50 50 50 50 50 51 47 35 29 31 58 58 54 50 40 34 28 22 20 23 26 28 28 28 27 25 23
48 48 48 49 49 49 50 50 51 52 51 51 51 51 50 48 48 47 49 50 50 50 50 50 50 50 43 31 24 25 25 24 42 42 38 37 31 27 27 27 26 28 28 27 27 27 25
47 48 48 48 49 48 48 50 50 51 51 51 51 51 51 49 47 48 48 49 49 50 49 50 49 48 40 34 26 28 29 26 25 24 21 26 33 34 32 29 29 27 25 26 27 26 25
47 46 47 47 47 49 49 49 49 49 50 51 51 50 50 50 49 49 49 49 49 49 49 49 49 48 38 37 36 34 31 28 27 25 22 21 22 27 30 31 30 28 29 26 26 26 25
46 47 47 47 47 48 48 49 49 48 48 50 50 50 50 49 50 49 49 49 49 49 48 48 46 44 36 41 38 36 33 28 25 24 24 20 24 26 29 28 27 28 24 26 26 26 25
46 46 46 46 45 45 46 47 48 49 49 49 48 49 49 49 49 49 49 49 46 47 46 46 45 41 38 32 32 29 31 30 27 24 20 21 17 19 24 27 21 24 25 26 24 24 25
45 45 46 46 46 46 46 47 47 48 47 47 47 48 48 48 48 48 47 40 39 36 41 40 39 36 32 33 36 29 29 27 26 19 14 18 13 13 18 25 26 26 24 23 22 22 20
44 44 44 45 45 46 46 46 46 47 47 47 47 47 47 46 47 47 44 38 39 38 34 34 34 37 38 38 35 35 32 24 31 21 18 16 12 13 16 17 16 16 16 18 19 19 17
42 43 43 44 45 44 45 44 44 43 45 46 47 46 46 47 47 43 39 36 38 39 32 31 30 30 31 32 31 28 29 21 21 26 16 14 16 14 13 12 11 10 10 11 12 15 22
41 41 42 43 44 44 44 44 44 44 44 45 46 46 46 47 36 38 34 35 37 41 25 20 26 26 28 29 27 25 24 20 20 18 29 27 23 14 18 11 11 9 10 8 6 9 11
42 40 41 43 43 43 44 44 43 43 43 45 46 46 46 43 37 36 34 36 41 38 -2 12 22 26 26 23 24 23 23 21 16 18 17 20 27 28 26 26 16 12 14 12 8 23 28
41 40 41 42 43 43 43 43 42 43 43 44 45 45 44 40 38 39 38 40 40 23 7 16 25 23 22 22 25 26 23 23 21 20 19 18 19 18 20 21 21 23 21 24 28 28 25
39 40 41 41 42 43 43 43 43 42 43 44 45 44 42 40 34 38 41 39 25 20 20 19 21 23 24 24 23 24 26 22 17 17 17 17 17 17 16 16 19 22 20 19 21 23 22
39 40 40 41 41 42 42 42 42 42 42 44 44 44 42 40 39 38 41 33 21 20 20 23 24 24 23 24 25 24 27 23 25 16 13 14 13 13 16 15 17 21 22 22 17 21 22
39 40 40 40 41 41 40 41 42 42 42 44 43 39 39 39 40 40 36 26 23 22 20 22 22 24 25 26 30 24 23 24 24 23 17 16 13 16 13 14 17 19 21 25 23 26 23
39 41 40 40 40 41 40 40 42 43 42 42 40 36 36 37 39 39 33 24 25 24 23 23 20 29 26 29 27 30 23 27 24 23 21 26 22 26 25 14 18 22 24 22 23 19 18
41 40 39 39 40 41 42 41 41 43 42 43 39 30 33 36 42 35 23 23 22 22 22 26 28 26 24 28 29 30 31 33 37 34 30 33 31 26 28 16 13 18 17 25 25 26 20
38 39 39 40 41 41 42 42 42 41 41 40 34 21 32 39 29 32 22 27 28 24 25 24 30 28 29 35 31 29 30 34 38 38 31 31 33 28 26 30 31 25 19 24 25 22 25
40 40 40 41 41 42 42 42 41 41 42 40 32 29 34 41 25 25 28 28 26 24 24 24 26 29 32 32 30 31 34 34 36 37 33 29 27 25 23 30 33 32 30 24 28 20 16
39 41 42 42 42 42 42 42 41 42 40 40 34 24 27 34 36 31 26 24 24 28 25 24 22 24 26 28 30 28 31 32 33 35 39 31 25 22 21 22 27 28 31 23 26 28 25
40 41 42 42 42 43 43 43 42 42 42 41 32 23 28 28 27 31 29 31 26 24 27 29 25 24 23 25 26 27 32 34 36 37 34 31 22 27 27 25 23 21 25 23 21 24 26
40 42 43 43 44 44 45 44 44 44 43 38 28 24 28 27 27 28 28 28 24 24 25 29 26 27 26 26 27 27 32 30 30 33 31 33 28 29 27 26 25 24 24 23 22 20 20
40 42 43 44 44 45 44 45 45 45 42 37 36 34 31 27 27 25 27 27 28 29 30 29 27 26 29 29 35 35 37 34 33 32 29 29 30 27 25 28 26 23 25 23 22 37 34
41 42 43 44 44 44 45 45 46 45 43 38 36 32 28 23 24 22 20 21 22 23 28 31 31 31 32 38 37 35 35 35 34 33 33 28 28 28 26 24 16 24 31 36 37 37 38
41 42 43 44 44 45 45 45 46 46 45 40 38 35 31 23 22 22 23 24 25 29 29 29 30 35 38 37 31 27 26 27 28 30 31 30 29 26 23 22 24 26 34 36 34 35 39
41 42 43 44 45 45 45 45 46 46 46 43 40 39 35 29 24 23 24 27 26 26 28 30 37 40 39 32 30 24 21 25 26 27 28 30 30 26 26 22 19 33 36 37 37 34 36
41 42 43 44 46 46 46 46 46 46 46 44 41 40 37 31 29 29 26 26 28 29 29 31 31 34 37 30 27 24 22 24 21 27 27 28 28 26 25 24 26 37 39 39 26 32 37
41 42 44 45 46 46 46 47 46 46 45 44 41 41 37 33 31 33 30 30 31 31 29 32 31 33 34 30 27 24 22 25 27 30 32 28 27 26 27 24 21 38 37 32 36 39 37
42 43 44 45 45 46 46 46 46 46 45 43 39 41 42 37 36 38 37 37 37 37 35 37 35 34 34 29 28 28 24 28 30 26 36 29 30 28 28 27 39 39 36 37 36 34 35

GFSGBSN_sfc_dewp_099.txt.gz
Dewpoint
47 48 48 48 49 49 49 49 50 52 52 52 51 50 49 49 48 49 50 50 49 48 47 48 49 50 47 36 26 30 54 51 53 45 35 33 26 21 18 19 23 30 30 30 30 29 27
47 47 49 49 48 49 49 48 48 51 51 51 51 51 51 49 49 49 49 50 50 50 48 48 49 49 43 35 24 25 29 25 35 47 42 35 30 25 23 21 23 27 27 27 28 29 28
47 48 47 47 47 47 47 47 47 48 50 51 51 51 51 49 48 48 49 50 49 49 48 48 49 47 41 36 33 35 34 27 24 38 36 29 36 35 32 29 30 27 26 26 26 27 26
46 46 46 47 48 47 47 46 47 47 48 50 50 50 50 50 49 49 49 49 49 49 47 47 48 46 37 40 39 37 35 31 29 28 25 23 22 21 28 31 29 27 29 26 27 27 27
45 46 46 46 47 47 47 47 47 47 48 48 49 49 49 50 49 49 49 49 48 48 47 46 43 44 36 42 37 39 35 27 27 27 23 20 21 21 28 27 25 27 23 25 26 28 26
44 45 45 45 45 46 46 46 47 48 47 47 47 48 49 49 49 48 48 48 45 46 45 44 43 39 39 30 34 34 35 30 26 24 22 18 17 18 24 24 20 22 25 26 25 25 25
42 43 42 42 43 44 45 45 45 46 46 45 46 46 48 48 48 48 46 41 37 35 43 39 37 36 34 34 38 33 33 29 27 18 14 18 14 13 18 25 23 25 25 25 23 24 21
40 41 41 43 43 43 45 45 45 46 45 44 44 45 47 46 47 47 43 37 33 36 35 37 36 37 39 38 34 32 34 27 26 20 17 16 13 14 19 22 21 20 20 20 20 22 20
41 41 41 41 43 43 43 44 44 44 44 45 45 45 46 46 46 42 37 34 37 37 36 33 33 32 31 33 34 31 31 24 22 28 19 19 17 16 15 15 14 13 14 13 15 14 14
39 41 40 40 42 43 43 44 44 44 44 44 44 44 45 45 41 36 32 36 36 40 29 24 27 27 29 30 28 27 26 22 19 18 21 24 18 15 14 11 12 9 12 10 10 9 6
39 40 40 40 42 43 43 43 43 43 44 43 43 43 45 45 37 36 34 37 38 38 4 9 24 27 29 27 22 24 25 23 16 19 22 24 26 23 15 16 13 13 17 14 13 9 11
38 39 40 41 42 42 43 43 44 44 43 43 44 44 44 43 37 39 39 40 41 24 11 17 25 24 24 24 23 23 22 22 20 17 18 19 20 18 25 24 26 24 19 20 20 17 20
38 37 40 40 41 42 42 42 43 43 43 42 43 44 42 41 33 37 41 41 26 18 17 21 22 24 25 24 23 24 22 21 18 14 15 13 13 17 18 16 19 20 19 20 21 24 19
37 39 40 40 41 41 41 41 42 42 42 43 43 45 41 40 39 38 40 31 17 18 20 22 21 25 27 29 27 25 26 21 23 16 14 14 12 15 17 15 15 18 20 20 15 18 17
38 38 40 42 40 40 41 41 41 42 42 43 43 38 37 38 40 39 36 20 23 24 21 22 24 27 27 27 28 30 25 25 23 19 15 15 14 16 14 15 15 17 20 21 20 24 23
41 41 41 40 39 40 41 42 42 41 42 41 37 36 34 37 40 37 30 25 25 22 22 25 25 27 23 24 28 27 30 35 33 34 26 20 19 24 25 15 16 16 20 20 23 18 17
38 39 39 40 40 41 42 42 43 42 43 42 35 30 33 37 39 30 17 22 23 23 24 25 24 25 25 29 32 28 32 34 34 35 37 27 27 22 27 18 13 18 20 23 22 24 18
38 40 41 41 40 41 42 42 42 42 42 39 33 21 31 39 26 27 17 26 27 25 25 24 29 28 31 30 28 29 33 36 34 37 34 32 32 23 20 33 34 19 21 25 22 20 24
41 40 39 40 42 42 42 42 42 41 41 39 32 29 34 38 26 22 28 28 27 25 25 25 25 29 32 30 24 31 31 32 34 32 35 34 30 24 23 30 30 32 31 25 28 23 21
40 39 40 42 43 43 43 43 43 42 42 40 32 24 26 32 34 30 27 25 23 27 28 26 25 24 24 28 29 28 31 34 35 35 37 38 32 28 21 22 27 26 29 30 26 26 24
39 39 40 41 42 43 44 43 43 43 42 39 33 22 26 24 29 30 30 27 24 23 26 30 27 24 23 23 26 27 31 35 34 35 37 37 29 31 29 26 24 24 24 28 22 24 23
38 39 40 42 43 44 45 45 44 44 42 36 25 23 27 26 26 27 25 25 24 28 26 24 27 28 29 29 26 25 29 33 31 33 35 36 31 30 27 26 25 24 24 23 24 23 24
37 38 40 42 43 44 45 45 45 45 42 36 35 31 29 25 25 24 26 25 26 25 26 30 30 30 29 28 30 31 33 34 34 33 31 30 30 26 23 27 24 22 25 24 35 36 36
38 38 40 42 43 44 44 45 45 45 43 35 37 30 26 22 24 23 22 23 23 23 24 27 29 31 31 38 36 36 36 36 36 34 34 28 28 27 24 24 13 26 37 34 36 36 37
37 38 40 42 43 44 45 45 45 45 46 40 37 33 28 20 22 22 24 24 25 26 27 28 29 33 39 38 32 27 25 26 28 31 32 33 29 25 20 22 21 31 33 34 35 35 36
36 38 41 41 43 44 45 45 45 45 45 42 39 38 33 27 23 24 22 24 25 25 26 29 33 39 39 33 27 24 20 24 24 26 30 31 29 25 24 21 15 30 36 38 38 33 36
37 38 40 41 43 44 45 45 46 46 45 44 41 39 36 30 29 28 24 25 28 27 27 29 33 33 37 30 25 24 23 24 21 24 28 27 27 24 24 21 24 34 38 39 27 29 37
36 38 40 41 43 44 45 46 46 47 46 43 41 40 37 33 30 32 29 27 30 30 25 27 27 29 31 28 27 25 24 24 26 29 31 28 27 25 26 22 20 37 36 28 34 38 36
36 38 40 42 43 44 45 45 46 47 46 44 39 42 41 36 36 38 36 36 34 34 33 33 32 33 35 31 29 28 26 25 28 24 35 30 32 27 27 27 37 36 35 36 36 34 35

GFSGBSN_sfc_dewp_102.txt.gz
Dewpoint
46 46 47 48 47 47 47 48 48 48 48 49 50 49 50 49 49 49 50 50 49 48 48 48 48 48 46 38 32 26 44 37 51 45 34 29 23 20 17 16 19 29 31 30 30 28 27
46 48 48 48 47 47 46 46 46 46 48 49 50 50 50 49 48 49 50 50 50 49 47 47 47 47 43 34 31 25 33 30 30 45 40 32 26 24 22 19 21 23 23 23 28 29 29
45 45 46 46 47 48 47 46 46 46 47 47 49 50 50 49 48 48 48 49 49 49 47 46 47 44 38 35 34 31 32 33 25 30 40 38 33 33 27 26 27 26 22 25 27 28 27
45 45 45 45 46 46 47 47 47 47 47 48 48 48 50 49 49 49 49 49 49 48 47 46 46 44 35 37 39 38 38 36 32 29 26 27 27 30 27 26 27 28 27 25 27 27 27
43 44 44 44 44 45 46 46 46 47 47 47 47 47 48 49 48 48 49 48 48 48 47 46 42 42 33 41 38 39 39 32 27 28 27 23 22 20 27 20 23 25 22 25 26 27 26
41 43 42 41 42 43 44 45 45 46 46 46 45 45 47 48 48 48 48 48 45 44 44 43 40 34 35 22 35 35 38 33 27 26 24 21 18 18 24 24 18 21 25 27 24 25 26
41 40 40 40 41 42 42 43 44 44 45 45 46 46 45 47 48 48 45 38 31 36 40 37 36 35 31 37 37 35 33 31 28 21 16 19 15 13 19 25 24 23 23 24 24 25 23
40 41 41 41 41 41 41 42 44 44 44 44 44 45 45 45 46 46 41 35 32 36 32 36 36 36 38 38 37 34 34 29 26 19 16 16 15 14 16 23 24 23 23 23 22 22 23
39 40 39 39 39 41 42 43 43 43 44 44 44 44 44 44 45 40 37 36 36 38 35 33 36 34 34 35 34 30 32 27 25 22 18 17 18 17 16 19 20 19 20 17 19 14 11
37 37 40 38 41 42 42 43 43 43 43 43 44 44 45 45 40 39 37 36 41 43 27 26 29 31 31 31 30 31 29 24 21 25 26 21 22 16 14 14 16 15 15 15 13 8 4
38 38 37 39 41 41 42 42 43 43 44 43 44 43 45 43 40 37 36 38 44 42 13 12 26 29 30 24 24 26 26 23 19 19 22 24 26 21 18 13 14 12 15 13 12 10 8
37 37 37 40 40 41 41 42 43 43 43 43 43 43 44 42 40 40 39 39 41 27 10 21 25 25 26 27 24 21 23 22 19 16 18 19 20 23 23 20 15 19 18 18 19 15 15
37 37 38 40 40 40 41 41 42 42 42 43 42 43 42 43 35 39 39 38 25 16 17 21 21 23 25 27 23 24 20 20 15 10 11 12 10 18 19 16 20 18 19 18 20 21 16
37 37 37 39 41 40 40 41 41 41 41 43 43 44 42 39 40 38 38 31 17 21 19 21 23 29 26 28 29 29 22 20 21 16 15 13 10 12 16 16 15 18 18 19 15 17 17
39 41 40 40 40 39 40 41 42 43 42 43 42 37 36 37 39 38 32 21 22 27 21 21 25 24 24 25 28 29 29 34 33 33 18 15 13 16 16 16 15 18 18 20 18 21 21
39 38 39 39 39 39 41 42 42 42 42 43 37 35 33 37 39 35 22 21 24 29 23 24 22 25 23 27 27 28 32 33 33 35 36 21 15 21 26 15 16 15 20 19 23 18 15
38 37 38 40 40 40 40 41 42 42 41 42 34 28 31 38 38 28 10 21 23 22 24 23 23 24 26 25 28 29 33 34 33 33 36 32 25 21 20 19 15 17 17 21 21 22 16
37 37 41 39 40 41 41 42 42 42 41 38 32 21 29 40 28 27 17 23 25 24 25 25 28 28 29 29 27 28 28 30 34 33 34 34 31 25 20 26 33 20 22 20 19 19 24
38 37 40 39 41 41 42 42 43 42 41 39 30 28 33 36 18 24 22 28 27 25 26 25 25 27 30 29 22 28 31 34 35 35 33 34 30 25 23 27 28 29 30 27 27 24 21
39 37 39 39 41 41 42 43 43 42 42 37 30 22 24 31 33 29 27 25 25 28 28 27 25 25 23 26 28 25 29 34 36 36 39 36 31 27 23 25 26 26 28 30 26 23 21
38 37 39 39 40 42 43 44 44 43 42 36 33 23 25 20 29 28 29 27 25 25 25 28 25 28 28 25 24 27 31 31 34 36 37 36 28 30 31 33 30 27 28 27 25 23 22
37 36 38 39 40 42 43 44 44 44 43 35 29 23 26 27 26 26 25 25 26 24 27 27 26 27 29 27 27 27 27 30 32 36 34 36 30 32 28 30 27 25 29 29 28 28 27
37 35 37 38 40 42 43 44 45 44 42 36 33 31 29 23 24 22 23 25 26 25 25 29 26 27 27 30 31 30 30 31 33 32 32 32 30 27 22 28 25 22 23 27 34 36 35
35 37 37 38 39 42 43 44 45 44 43 37 35 31 28 20 24 23 22 24 23 23 24 25 28 28 30 37 36 34 35 34 34 34 34 31 28 27 25 24 13 30 36 35 35 36 37
36 38 37 38 40 42 43 44 44 45 45 39 38 33 30 18 23 22 23 23 25 25 25 26 27 30 38 37 32 28 26 27 29 33 33 34 28 25 23 22 21 31 34 35 34 35 37
36 38 36 37 40 41 43 44 44 45 45 43 39 39 35 26 23 24 22 23 23 25 26 27 32 35 36 33 29 24 21 23 23 27 31 32 30 26 25 21 15 26 37 38 38 31 37
36 38 36 37 40 41 42 43 45 45 45 43 41 39 37 30 29 28 25 25 27 27 27 28 31 30 35 28 27 24 23 24 20 23 26 28 28 25 24 23 24 32 37 38 25 26 36
37 38 36 37 39 41 42 43 45 45 46 45 41 39 37 33 30 31 29 27 28 30 25 27 25 31 31 28 27 27 24 24 27 29 25 27 25 25 25 23 19 35 36 28 32 36 36
36 38 35 37 39 41 41 43 44 45 46 45 39 41 41 36 35 38 36 35 33 31 30 32 29 33 31 32 32 31 27 26 26 22 33 29 32 29 27 25 34 34 34 35 35 33 33

GFSGBSN_sfc_dewp_105.txt.gz
Dewpoint
46 47 47 47 47 47 46 46 46 46 46 47 47 48 49 49 49 48 50 50 49 49 48 47 47 47 42 38 34 30 45 39 48 49 36 29 29 28 24 23 28 32 30 30 30 29 29
46 45 45 46 47 48 47 47 46 46 47 47 47 48 48 48 48 48 48 50 50 49 48 47 46 46 41 31 33 32 32 31 25 42 35 31 27 26 23 20 18 19 23 23 26 29 30
44 44 46 45 46 46 46 46 46 47 47 47 47 48 48 48 47 47 47 49 50 49 48 47 46 42 38 33 35 34 30 29 31 28 37 38 32 26 25 22 24 24 22 22 21 23 25
41 42 44 44 44 44 45 46 46 46 46 46 46 46 47 47 47 48 48 48 49 48 48 47 46 41 33 35 36 36 37 36 37 35 29 25 25 33 31 28 23 27 28 22 25 26 26
40 41 41 41 41 42 43 44 44 45 46 46 46 46 46 47 48 48 49 48 47 48 48 47 43 39 30 38 36 37 37 33 31 32 28 20 26 23 24 22 23 25 21 25 25 27 26
39 40 40 40 40 42 42 42 43 44 44 44 44 44 45 46 47 47 48 46 44 46 43 43 38 34 32 19 33 36 39 37 30 27 22 21 22 23 22 17 11 16 23 24 23 26 27
40 40 40 40 40 41 40 41 42 43 44 44 44 44 44 44 44 46 44 38 30 29 35 35 33 32 32 36 38 36 35 34 30 21 14 21 19 18 19 21 18 22 20 20 25 26 25
38 39 39 39 39 39 42 41 42 43 43 43 44 44 44 44 44 44 41 35 33 39 30 33 33 33 33 34 33 32 34 30 26 20 18 18 21 21 17 23 21 21 20 21 24 24 24
37 38 38 38 39 39 40 41 42 42 43 43 44 44 44 44 44 39 37 35 39 39 32 28 29 33 32 33 30 29 32 28 24 21 19 20 14 18 15 17 20 21 21 21 21 19 14
36 37 37 37 38 40 41 41 42 42 43 43 43 43 44 45 39 39 35 37 40 40 25 19 31 32 33 33 31 30 26 21 25 22 21 18 18 17 17 14 16 14 20 21 20 17 12
35 36 36 36 39 40 41 41 42 42 42 43 43 43 43 44 40 37 37 39 41 38 11 17 27 30 30 26 23 29 30 26 18 24 26 24 26 21 17 14 18 14 19 19 18 14 9
35 36 37 37 40 40 40 41 41 42 42 42 43 43 43 42 40 40 39 39 41 22 12 23 30 26 26 26 24 23 24 22 21 20 19 23 20 24 23 19 17 16 16 17 18 15 15
35 35 36 39 40 41 40 40 41 42 42 42 43 43 42 43 37 40 40 38 20 15 21 21 27 34 30 27 27 23 20 19 13 14 15 12 15 18 19 18 17 21 21 18 20 17 15
36 38 37 38 40 40 39 40 41 42 42 42 43 42 40 39 40 40 38 29 16 26 19 20 26 33 30 29 28 29 18 20 33 24 8 5 2 9 16 19 18 19 21 16 11 17 16
37 39 39 40 39 39 40 41 42 42 42 42 42 38 36 37 39 38 32 19 18 26 25 21 19 25 26 29 29 32 32 32 33 35 18 14 11 12 15 14 18 19 17 22 19 21 19
36 38 37 38 39 39 40 41 42 42 42 42 38 34 32 38 40 35 24 20 23 27 23 21 17 21 23 23 27 32 32 35 34 32 35 25 17 21 21 15 17 19 22 18 21 14 12
36 36 37 40 41 41 40 41 42 42 42 41 33 29 33 40 40 29 19 20 22 22 22 21 21 23 25 24 26 31 29 31 32 33 34 32 25 21 22 19 15 15 14 20 21 21 11
36 37 38 39 39 40 41 42 42 42 41 37 32 23 31 40 28 27 23 22 27 21 25 25 25 26 25 27 25 25 28 30 33 35 33 35 31 24 20 23 31 21 19 17 15 17 21
37 39 36 39 39 41 42 43 43 42 41 37 30 27 33 37 21 24 24 25 28 26 25 27 24 25 25 25 23 27 28 33 36 34 34 33 30 24 23 29 27 28 28 23 25 23 17
37 40 37 39 38 40 41 43 43 43 42 38 29 21 24 34 32 26 25 23 24 28 27 28 27 28 28 23 28 26 27 32 35 35 39 35 30 27 19 24 29 25 26 28 26 22 19
37 39 36 38 38 39 41 43 44 44 43 36 33 25 26 20 28 26 26 26 25 25 27 28 25 24 26 25 24 25 29 28 30 36 37 35 29 29 29 30 31 28 26 26 24 23 21
37 39 36 36 38 39 41 43 44 43 41 35 26 26 27 27 26 25 24 21 25 22 23 26 21 23 26 26 28 27 26 27 28 32 33 36 29 30 28 30 28 23 24 28 28 27 28
38 36 36 35 37 39 41 43 44 44 41 37 33 32 30 24 23 23 23 24 23 24 22 25 25 24 24 27 32 33 33 31 29 29 31 34 31 27 20 27 24 17 23 26 29 35 34
38 36 37 37 37 38 41 43 44 45 42 39 35 33 30 22 22 21 21 22 22 21 21 22 25 26 28 36 37 34 35 33 32 32 32 32 30 28 23 24 14 31 37 33 32 34 36
37 37 36 38 37 38 41 42 44 44 45 40 39 35 30 24 22 22 23 23 24 25 23 23 26 29 36 37 30 28 27 28 29 32 32 33 30 26 22 21 21 28 35 35 34 33 37
37 37 36 38 36 38 41 42 43 44 44 42 39 40 36 28 24 23 22 23 22 24 26 27 32 36 38 33 30 24 19 23 22 28 32 34 33 27 25 18 16 28 37 37 38 29 36
37 36 37 37 36 37 40 42 43 44 44 43 40 40 37 31 29 28 25 24 26 27 26 28 30 31 34 30 27 25 23 24 19 22 27 27 30 27 23 20 21 33 35 38 27 29 38
36 36 37 37 36 36 39 41 42 43 45 44 41 40 37 33 31 31 29 27 27 30 26 28 28 32 31 28 27 28 26 25 26 29 28 27 26 25 25 21 16 34 35 30 35 36 35
36 36 37 37 36 36 39 41 41 43 44 45 40 41 42 36 35 37 36 34 32 31 30 30 30 32 32 28 30 32 28 29 27 21 32 28 32 30 27 28 34 35 34 33 35 33 32

GFSGBSN_sfc_dewp_108.txt.gz
Dewpoint
47 48 48 48 48 48 47 46 46 47 47 47 48 48 48 48 48 48 48 50 48 48 48 48 48 47 41 32 28 15 47 39 25 35 28 24 22 22 20 18 22 25 26 24 26 24 23
46 45 46 46 46 46 46 46 46 47 47 47 48 47 47 47 47 47 47 48 49 48 48 48 48 47 38 31 28 26 27 26 22 37 23 25 22 22 20 18 19 22 23 24 25 26 25
44 44 45 44 44 45 46 46 46 46 46 46 46 46 46 46 46 46 46 47 48 48 48 48 48 42 35 32 31 27 28 24 25 28 30 27 25 25 23 21 21 20 19 19 20 21 21
41 42 44 42 42 43 43 44 44 45 45 45 46 46 46 46 46 47 47 47 47 47 47 47 47 42 34 33 31 30 29 28 27 26 26 30 29 30 26 25 23 20 20 17 19 20 21
41 41 41 40 41 42 42 42 42 44 44 44 44 44 45 46 46 47 48 47 47 46 46 48 42 40 28 34 31 30 28 24 22 25 25 20 22 26 27 24 20 21 17 19 21 24 23
42 41 40 40 40 40 40 40 42 43 44 44 44 44 44 45 46 46 47 47 45 44 40 40 40 38 35 24 28 34 36 31 30 27 24 20 16 15 22 18 15 16 19 21 22 23 25
41 40 40 39 39 40 40 41 40 42 42 43 44 44 44 44 44 46 42 32 28 27 32 27 21 32 30 28 30 30 35 36 33 25 8 12 11 12 12 19 18 16 14 13 14 21 23
40 39 39 38 37 39 39 40 40 40 42 44 44 44 44 44 44 44 39 31 34 36 32 27 26 27 26 24 22 26 32 32 29 21 8 10 12 10 12 14 19 19 20 15 12 22 24
39 38 38 38 37 38 39 39 40 42 42 43 43 44 44 44 44 40 35 33 36 38 29 22 21 25 24 26 22 23 27 31 25 18 12 12 7 10 13 15 17 21 21 19 12 14 19
38 37 36 35 37 38 40 40 41 42 42 42 43 43 43 44 40 38 33 36 38 40 26 13 27 31 33 28 27 25 24 28 26 20 14 12 15 12 16 16 17 15 16 14 17 23 12
38 36 36 35 40 39 40 40 41 41 42 42 42 43 43 44 40 35 34 39 40 39 9 20 32 39 37 29 23 21 23 22 21 22 22 18 14 18 17 15 15 14 13 15 17 16 13
36 36 35 36 39 39 39 40 40 41 42 42 42 43 43 40 40 37 39 40 39 28 12 21 25 31 36 29 25 26 25 23 18 19 22 19 25 17 15 19 17 18 17 16 15 13 9
37 35 35 37 38 40 40 39 40 42 42 42 43 44 41 39 35 40 41 36 27 15 19 18 18 31 33 31 24 22 23 19 10 13 15 15 20 22 26 21 22 15 17 18 18 16 11
37 37 38 37 39 38 38 40 41 42 43 42 43 42 39 37 39 41 38 33 16 21 18 18 18 26 31 33 31 20 16 19 24 15 5 11 12 17 21 22 19 17 18 12 11 14 13
35 38 39 38 37 38 39 40 41 42 43 42 43 39 38 40 42 40 30 24 17 22 15 15 15 20 26 26 33 31 31 30 30 32 15 9 6 12 14 18 18 19 19 18 19 19 18
36 39 37 36 38 39 39 40 41 42 42 43 36 35 35 43 44 35 29 16 17 20 18 15 15 20 25 24 29 33 31 34 33 33 34 24 14 10 12 12 13 15 17 18 18 9 6
35 37 36 38 40 39 39 41 42 42 42 41 35 26 34 41 42 29 24 13 15 18 23 21 20 20 21 19 23 31 31 34 35 33 34 32 23 22 20 16 11 12 17 18 16 15 7
36 37 37 39 38 38 40 42 43 43 42 38 34 30 35 41 32 34 24 22 26 22 24 25 25 21 22 24 22 22 24 30 33 37 36 34 32 21 19 28 19 10 11 16 15 13 16
36 37 38 36 38 39 40 42 42 43 41 37 31 26 35 40 28 22 23 23 25 24 23 26 25 26 26 24 22 23 24 30 31 34 37 35 30 18 19 26 27 24 22 16 19 21 18
39 37 39 38 38 38 40 42 43 43 42 38 35 31 26 34 31 25 22 22 23 26 26 25 26 24 25 23 23 23 25 27 29 35 39 37 30 27 19 22 25 25 25 24 23 20 17
39 37 39 38 37 37 39 42 44 43 43 36 36 30 26 28 27 22 23 22 22 22 23 25 23 21 22 22 23 22 25 26 27 36 37 36 28 29 26 27 28 26 24 23 21 22 21
39 37 40 37 36 37 39 42 43 44 42 35 34 33 27 23 23 24 21 19 19 22 19 20 24 23 22 24 26 25 25 26 26 30 31 37 29 29 25 25 27 25 23 23 22 23 23
39 38 38 36 35 37 39 41 43 44 41 36 33 32 29 24 21 21 20 19 20 21 19 21 22 22 23 24 28 29 31 31 30 30 30 33 31 26 20 23 23 21 22 22 24 28 29
38 38 37 37 35 37 39 41 43 44 41 39 35 32 31 26 21 20 19 18 18 19 21 22 23 24 24 29 33 33 32 32 31 31 30 32 29 27 22 21 17 29 33 30 25 30 31
38 37 38 37 37 37 38 40 43 43 44 42 40 35 32 28 23 22 23 23 22 22 22 23 24 27 33 35 31 24 24 27 26 30 29 30 29 26 23 19 17 20 36 32 29 33 37
38 37 37 37 37 38 38 40 42 43 44 43 40 41 38 31 24 24 22 23 23 23 25 25 29 32 35 33 31 22 19 22 20 26 32 30 31 28 23 17 12 33 37 36 37 31 37
39 37 37 37 37 38 37 39 42 43 43 44 41 41 37 33 28 29 25 24 25 26 25 26 28 28 35 28 27 24 22 23 19 21 26 28 32 28 23 20 18 31 34 38 30 32 37
39 38 37 37 37 38 37 38 41 42 42 44 42 41 39 35 30 31 29 28 27 29 26 28 28 33 32 29 27 26 27 25 25 25 30 25 26 26 25 21 17 34 34 33 36 36 35
40 39 36 36 38 38 36 37 40 42 42 44 41 42 42 36 37 38 37 35 33 31 30 30 29 30 31 30 30 28 29 31 27 23 32 29 31 30 31 31 35 34 33 34 35 34 33

GFSGBSN_sfc_dewp_111.txt.gz
Dewpoint
47 48 48 48 48 47 47 45 46 46 47 47 47 47 47 47 47 47 47 47 47 47 47 48 48 48 43 30 25 21 50 43 24 23 27 28 24 25 21 22 23 24 25 26 26 24 24
47 46 47 46 46 45 45 45 45 46 46 46 46 46 46 47 47 47 47 48 48 47 47 48 48 48 39 29 24 24 21 19 20 14 9 18 20 22 21 23 23 24 25 24 25 26 25
46 46 46 45 45 44 44 44 44 44 45 45 45 46 46 46 46 46 46 46 48 47 46 46 46 42 35 30 26 25 23 21 19 18 19 23 15 20 22 21 22 20 19 20 22 23 25
45 45 45 44 43 43 42 43 43 44 44 44 45 45 45 46 46 46 46 47 48 47 46 47 47 40 32 30 30 28 26 24 21 19 19 22 23 22 23 24 21 19 20 18 19 20 21
43 44 43 42 41 41 40 41 42 43 44 44 44 44 45 45 46 47 47 47 47 47 47 46 41 37 30 34 26 28 28 24 19 19 20 18 21 27 23 22 21 22 18 19 19 19 19
43 43 42 41 41 40 40 40 41 42 42 43 44 44 45 45 46 46 47 47 44 45 39 29 33 33 27 22 21 24 29 31 25 20 20 20 15 14 15 17 17 20 20 19 19 19 19
43 42 42 41 40 40 40 39 40 40 41 44 44 44 44 44 45 46 44 31 24 23 28 23 19 20 20 21 23 21 19 28 33 19 15 18 8 8 10 17 19 20 20 19 20 20 24
42 42 41 39 38 38 38 38 39 41 42 43 43 44 44 44 44 45 42 29 30 34 33 28 24 21 28 35 31 24 23 24 33 26 19 13 7 7 10 11 17 20 20 22 21 20 20
42 41 40 39 38 39 39 39 40 41 42 42 43 43 44 44 44 43 35 31 32 36 29 22 24 27 31 35 33 24 22 22 29 29 20 11 6 5 9 10 11 17 19 21 17 18 20
40 39 38 38 37 38 39 40 40 41 41 42 42 43 44 45 41 34 31 33 35 38 28 17 22 29 31 33 35 26 20 23 29 34 20 9 4 4 7 8 11 13 18 19 19 20 20
40 39 37 37 40 40 39 39 40 40 41 42 42 42 44 43 38 31 32 36 37 38 12 16 18 26 26 31 31 19 21 24 24 31 27 13 9 9 10 9 14 14 20 22 21 19 18
39 38 37 37 40 39 39 38 39 41 42 42 42 43 44 39 40 35 37 39 39 30 12 13 15 18 25 34 32 26 19 21 24 25 31 15 14 15 13 11 15 18 17 17 17 17 14
38 37 38 40 39 39 38 38 39 41 42 43 42 44 42 37 34 39 41 35 31 19 15 11 12 20 25 29 35 22 16 15 17 16 25 23 27 14 16 18 19 19 21 18 17 16 15
39 38 38 37 39 38 38 39 40 42 43 43 43 44 41 35 39 42 36 33 21 17 15 13 12 18 28 30 28 32 18 8 12 8 10 11 16 22 23 16 18 19 18 23 17 17 14
38 40 42 41 39 37 38 39 41 42 43 43 43 39 37 41 42 39 30 26 16 19 14 14 12 15 19 17 29 34 28 31 25 22 21 11 11 15 22 19 18 18 14 17 19 22 22
37 40 39 38 38 39 38 39 41 42 42 42 35 32 33 41 44 37 31 18 10 12 17 17 12 15 18 16 23 31 32 33 34 34 33 25 12 10 12 19 17 17 16 16 17 11 10
38 40 37 38 40 40 39 40 42 43 43 42 37 28 35 39 42 31 31 16 16 17 19 20 18 20 16 17 20 31 31 33 33 35 35 31 26 12 11 11 10 11 15 16 13 12 9
38 39 38 38 39 38 39 41 43 43 43 41 34 33 35 39 33 35 25 20 25 20 20 22 25 21 22 22 18 23 25 26 31 38 34 35 33 19 17 16 13 6 13 15 12 11 12
38 38 39 38 39 38 40 41 42 43 42 35 27 25 35 39 31 22 20 19 22 22 22 22 23 21 21 23 22 19 23 27 27 35 36 36 29 27 28 23 15 9 9 15 18 17 17
38 38 40 37 40 38 39 40 43 44 43 38 35 35 27 29 27 25 21 20 20 23 23 22 22 20 20 21 22 22 21 22 28 32 37 38 32 30 27 30 23 22 14 10 15 17 14
39 39 39 39 39 38 38 40 43 44 44 38 36 32 24 31 27 22 22 20 18 20 20 21 21 22 20 19 20 19 20 21 23 34 32 34 29 27 27 27 26 27 26 20 17 19 19
39 39 39 40 39 37 37 40 43 44 43 37 33 34 26 24 20 21 21 17 17 21 19 18 20 21 22 20 21 21 22 23 24 27 30 31 30 27 22 20 22 21 19 19 17 15 16
40 39 39 40 37 36 37 40 42 44 43 33 33 32 29 24 21 21 20 17 18 20 19 19 20 22 23 22 25 26 27 28 28 27 29 30 30 27 19 19 19 19 20 19 18 19 21
39 40 40 38 37 36 38 39 42 44 43 37 34 32 30 27 20 20 19 20 18 18 19 20 22 22 23 28 30 29 28 27 28 28 29 30 29 26 24 20 17 24 28 24 20 29 31
41 40 39 39 37 37 38 38 41 43 44 41 39 33 31 29 22 20 21 21 22 23 22 22 23 26 30 30 29 24 24 26 24 25 26 28 31 27 23 20 19 19 35 37 33 35 37
42 39 38 38 38 38 38 39 40 42 44 43 42 42 40 32 27 23 22 23 22 22 24 26 27 31 32 30 30 23 18 19 21 26 27 26 29 27 26 18 17 32 31 35 36 34 38
42 40 38 38 38 38 38 38 40 42 42 45 42 42 39 35 28 28 25 25 25 25 24 28 28 28 32 29 27 24 21 20 19 24 28 29 30 28 24 21 25 30 32 35 31 31 37
42 41 40 39 38 39 38 38 39 41 42 44 43 42 40 36 31 32 31 29 27 28 29 31 28 33 31 28 27 26 26 25 23 24 26 26 26 29 27 24 22 33 33 32 35 37 35
41 40 40 40 39 39 38 37 38 40 41 43 41 43 44 37 37 40 38 36 34 31 32 30 30 29 29 31 31 27 28 31 26 24 29 28 30 29 33 31 34 34 34 33 34 33 32

GFSGBSN_sfc_dewp_114.txt.gz
Dewpoint
50 49 49 48 47 47 47 45 46 46 46 46 46 46 46 47 47 47 47 47 47 47 47 47 47 47 42 29 24 22 51 47 30 21 19 25 27 24 21 19 20 21 23 25 26 25 25
49 49 49 48 48 47 46 45 45 45 45 45 45 46 46 45 46 46 46 46 46 46 46 47 47 46 37 28 23 21 20 19 17 15 13 11 12 20 23 23 22 21 21 23 24 25 26
49 48 48 47 46 46 46 45 44 44 44 44 44 44 45 45 46 46 46 46 47 46 46 47 47 41 34 28 27 27 26 24 22 20 15 15 10 11 18 21 23 23 22 24 23 24 25
48 48 46 46 45 44 43 44 43 43 43 44 44 44 45 46 46 46 46 47 47 46 47 48 47 40 32 31 30 25 26 26 25 23 22 17 18 12 18 17 20 19 21 20 22 21 23
47 46 46 44 44 43 42 41 41 42 42 43 44 44 45 46 46 47 47 47 48 47 47 48 40 39 31 35 20 15 15 20 26 26 23 18 17 21 21 14 16 21 18 20 20 21 20
46 46 45 43 43 42 41 41 41 41 41 43 44 44 45 45 46 47 47 47 46 47 42 33 29 28 24 18 21 26 23 22 20 21 29 25 17 14 17 17 15 18 19 19 19 20 21
46 46 44 43 42 42 41 40 39 39 40 43 44 44 44 44 44 46 44 33 26 28 29 23 20 20 20 22 30 27 29 28 25 19 16 31 17 12 12 21 21 19 18 19 21 21 22
46 44 43 42 41 41 41 39 39 40 42 43 43 43 44 44 44 45 43 29 29 32 31 29 27 25 24 26 25 26 30 29 26 19 16 32 27 13 13 11 15 16 16 18 21 22 26
45 44 42 41 40 40 39 39 40 40 41 42 42 43 43 45 45 43 35 31 30 34 31 26 21 22 26 25 22 25 28 28 23 20 20 30 26 13 12 6 8 12 14 19 19 26 31
44 43 41 40 40 41 40 40 40 40 41 42 43 43 44 45 42 35 31 31 34 37 30 16 15 18 19 20 24 27 28 21 25 24 30 33 33 14 11 7 3 10 12 16 19 24 28
43 41 40 39 39 40 40 39 39 40 41 43 42 43 44 44 40 33 32 35 37 38 14 14 12 13 14 22 25 28 32 24 24 30 30 32 32 17 9 5 3 8 13 16 19 22 26
42 41 39 39 42 40 39 39 39 40 42 43 43 43 44 39 41 39 36 39 38 32 14 9 12 10 15 23 26 31 32 32 20 28 31 32 30 27 10 4 3 10 16 20 21 22 20
41 40 39 39 41 41 40 38 39 41 43 43 43 43 42 37 35 38 41 37 31 20 11 8 9 12 15 20 23 26 27 21 11 18 24 21 26 27 20 10 8 16 18 18 20 19 19
40 39 39 40 40 39 39 39 40 41 43 43 44 44 43 35 38 41 39 33 22 16 10 8 9 11 16 19 21 27 30 18 9 13 16 10 26 29 25 15 10 18 18 20 13 16 16
40 39 39 39 40 39 38 39 40 42 43 43 44 40 41 42 42 41 34 26 12 12 8 11 12 11 13 14 30 32 34 30 30 32 28 26 19 29 27 18 18 18 19 23 21 26 24
40 40 43 42 39 39 38 39 40 42 43 43 37 34 33 37 41 41 33 20 8 8 14 16 11 17 15 16 19 34 30 33 29 32 34 31 29 26 28 20 18 19 22 21 21 17 18
39 40 40 39 39 41 40 40 41 43 43 44 39 31 37 37 42 37 31 17 17 16 17 16 16 17 19 17 20 27 27 28 28 32 34 32 30 26 19 28 22 21 17 19 19 18 13
39 40 39 39 41 39 39 40 43 43 44 42 37 33 35 37 36 34 26 18 24 17 18 18 20 18 18 20 25 17 20 21 24 35 31 33 33 27 18 11 12 15 16 18 19 16 15
39 40 39 39 40 39 40 41 42 44 44 38 30 25 35 39 32 21 19 17 18 17 19 19 19 19 20 18 20 27 20 21 24 29 32 33 32 27 25 24 11 8 7 11 18 19 18
40 39 39 40 40 39 40 40 42 44 44 39 36 36 28 28 25 23 20 18 17 21 18 18 19 25 20 18 18 28 21 20 25 28 38 36 31 31 28 32 32 21 5 5 11 18 16
40 38 40 40 39 39 38 39 42 44 44 39 38 34 25 31 27 21 20 19 16 16 18 18 19 21 18 19 20 19 19 20 22 31 29 31 29 30 27 25 32 35 31 21 8 15 16
40 41 41 40 40 38 37 38 41 44 44 38 33 36 27 23 20 20 20 16 15 16 18 17 18 19 20 19 21 20 21 22 22 23 24 29 29 29 23 17 25 30 32 31 31 28 25
40 41 41 41 40 38 36 38 41 43 44 35 34 31 28 27 23 21 21 15 14 16 17 17 18 19 20 21 25 26 26 26 26 26 24 28 30 27 19 19 17 16 19 19 17 18 21
41 41 40 41 39 37 37 38 40 43 44 40 35 32 29 28 22 19 19 19 19 19 20 19 21 21 23 27 28 28 27 25 24 26 24 28 27 26 25 24 14 30 33 34 29 34 34
42 41 40 40 39 38 37 38 39 43 44 41 45 34 31 30 21 19 21 19 22 23 24 23 23 25 29 28 27 24 25 23 24 21 24 27 28 27 24 22 19 30 31 33 34 36 37
43 41 41 41 40 39 39 38 39 42 42 44 42 43 37 32 27 25 22 22 24 25 24 26 31 30 30 28 29 21 20 21 19 28 31 27 29 26 25 20 18 29 30 32 34 31 34
43 42 41 40 40 39 40 38 39 41 42 44 43 43 39 35 28 28 27 29 26 26 24 26 30 29 31 30 26 23 22 23 21 25 27 27 28 26 24 21 29 32 32 32 28 30 37
43 42 41 40 40 39 39 38 39 40 41 43 44 44 40 36 32 32 32 30 30 30 31 31 28 32 30 28 26 26 25 25 24 24 27 27 27 26 28 23 24 34 31 31 35 37 38
42 42 41 41 41 40 40 38 39 39 41 41 41 44 45 37 36 39 38 37 36 34 32 31 29 28 27 31 31 28 26 29 26 25 34 28 29 28 32 29 34 34 35 36 35 32 31

GFSGBSN_sfc_dewp_117.txt.gz
Dewpoint
54 52 51 50 49 47 47 47 46 46 46 46 46 46 47 47 46 46 46 47 47 47 47 46 47 47 42 33 30 26 51 45 39 30 25 20 16 21 29 25 21 15 19 21 23 26 26
53 51 50 49 49 48 49 47 46 46 45 45 46 46 46 46 46 46 46 46 46 46 46 46 46 46 39 27 25 28 29 26 24 23 22 20 15 13 9 12 22 22 20 20 21 22 24
52 50 49 50 49 48 47 46 46 45 44 44 45 45 46 46 46 46 46 45 46 46 46 46 47 43 35 29 29 29 29 26 26 26 24 24 23 18 13 10 15 22 21 22 23 20 22
52 51 50 48 47 47 46 45 44 44 43 44 45 45 45 46 46 46 46 47 47 47 47 48 47 40 34 33 32 32 22 18 18 25 25 25 24 21 20 15 9 5 14 17 20 23 22
51 49 49 47 46 45 45 44 43 43 43 43 44 45 45 46 46 47 47 47 47 47 49 48 44 40 35 37 28 19 26 26 26 24 22 19 28 24 19 16 16 6 10 13 18 21 22
50 49 48 47 46 44 43 43 42 42 42 43 44 44 44 45 46 47 47 47 47 48 44 41 35 31 28 20 21 23 27 27 27 29 25 20 25 27 24 15 13 8 10 12 18 19 21
50 49 48 47 45 44 43 42 41 40 41 43 43 44 44 44 45 47 45 39 29 32 29 26 23 24 22 21 25 24 26 26 31 29 26 24 15 20 23 19 14 13 15 12 17 20 20
47 48 47 46 45 44 43 42 40 41 42 42 43 43 43 44 45 47 44 29 30 31 30 30 29 28 27 26 23 24 24 26 26 23 26 26 20 17 19 28 22 13 11 16 18 20 23
46 47 46 45 44 43 42 41 40 41 42 42 42 43 43 44 46 45 37 30 34 35 31 28 26 23 24 23 22 22 27 26 21 25 26 24 26 20 19 25 27 12 10 12 17 28 31
46 47 45 44 43 42 42 41 40 40 41 42 43 43 44 46 43 38 32 34 38 37 25 24 21 20 17 19 24 25 32 22 26 23 23 27 26 27 23 22 26 10 10 10 13 16 28
46 44 44 43 42 43 41 41 40 40 41 43 43 43 44 44 40 37 35 37 37 37 13 14 14 15 11 22 20 25 29 25 20 24 30 25 29 33 32 28 24 12 13 9 12 22 30
45 44 43 42 42 41 40 40 39 39 41 43 43 43 44 42 41 40 40 40 39 29 15 10 10 10 15 22 20 23 30 32 30 24 26 29 30 32 32 30 22 13 12 13 26 30 27
44 43 41 40 43 41 40 40 39 40 42 43 44 44 42 39 36 40 41 38 27 21 11 6 8 15 16 19 22 24 28 29 25 22 20 17 21 26 32 29 27 11 8 22 24 25 20
42 42 40 40 42 41 39 39 39 40 42 43 44 45 42 39 40 40 39 33 22 13 7 11 14 16 19 20 23 27 31 27 28 29 30 22 25 29 30 31 20 13 24 23 19 18 17
42 41 40 40 41 41 38 40 39 41 42 44 44 40 40 42 41 42 36 21 15 10 10 13 15 18 17 18 22 29 31 29 26 28 30 27 24 30 31 33 30 20 20 25 26 26 24
42 40 40 40 40 40 38 38 40 41 42 44 39 39 38 40 39 40 31 24 15 13 15 16 14 19 17 17 22 22 28 30 26 28 33 31 26 29 34 36 24 19 21 24 30 23 23
41 41 43 42 40 40 40 39 41 42 43 44 39 36 38 37 41 37 22 23 18 15 17 17 17 19 19 18 20 26 24 25 22 30 31 32 31 27 30 29 24 23 20 26 30 24 20
40 41 41 40 39 41 41 40 42 43 44 43 38 32 37 38 31 33 26 21 25 17 21 21 22 20 23 23 21 24 26 25 24 29 30 33 32 28 23 28 25 28 27 23 22 22 21
41 42 40 40 41 40 40 40 42 44 44 39 36 33 38 38 27 26 25 20 20 19 18 21 20 24 27 22 21 23 27 28 25 26 31 33 30 25 25 25 30 28 24 21 23 26 18
41 41 40 40 41 39 40 40 41 44 45 40 36 28 32 34 30 22 22 23 20 23 20 18 21 29 23 20 21 24 24 24 26 24 36 36 32 30 23 27 33 30 30 28 20 20 19
41 40 40 41 40 40 40 39 41 44 44 39 35 31 26 26 27 20 21 22 20 18 20 20 21 20 19 20 20 24 23 24 25 29 28 29 28 30 29 29 34 34 31 30 26 25 20
41 40 42 42 40 40 38 38 41 44 44 38 26 31 31 28 23 21 24 20 19 16 19 18 20 20 20 19 22 23 24 24 24 26 27 29 28 30 27 26 27 28 31 29 29 29 29
41 41 42 41 41 39 37 37 40 43 43 38 35 35 30 29 24 23 24 21 20 24 23 20 20 20 22 25 26 26 26 27 26 26 26 28 28 27 24 26 26 30 34 34 33 37 33
42 41 41 41 40 39 37 37 40 43 43 42 39 34 29 25 26 23 21 22 22 23 22 24 25 24 27 29 28 29 28 28 28 28 29 29 27 27 26 26 20 31 31 34 34 34 36
43 42 41 40 41 39 38 39 40 42 44 42 42 38 32 26 28 23 25 25 24 28 27 26 31 32 31 28 28 24 25 25 26 32 33 31 28 26 23 23 28 27 30 31 33 32 35
43 43 41 42 42 41 40 40 40 42 43 42 41 41 37 28 28 28 26 31 28 26 27 30 32 33 32 29 25 21 22 26 25 27 29 31 32 27 24 21 21 28 31 33 33 26 36
43 42 42 42 42 41 41 40 40 41 43 42 40 40 37 31 31 32 30 31 31 29 26 30 30 31 32 26 24 23 22 25 24 24 25 27 27 25 25 23 28 31 33 33 24 28 35
43 42 42 42 42 41 41 40 40 41 42 42 40 42 37 34 33 35 36 34 33 31 28 30 28 28 27 24 27 24 24 25 26 33 31 27 23 20 25 22 20 35 31 28 33 37 36
43 42 42 42 42 41 41 41 40 41 41 41 39 44 43 36 34 38 37 37 37 35 34 32 29 28 28 26 27 27 24 27 26 27 32 28 29 28 27 26 33 34 34 36 36 32 30

GFSGBSN_sfc_dewp_120.txt.gz
Dewpoint
57 57 55 53 51 50 50 48 47 47 47 46 46 46 47 46 46 46 47 47 47 47 47 47 47 47 43 33 25 29 48 41 27 26 23 22 21 19 14 27 21 23 18 14 15 20 23
56 55 54 53 51 49 49 49 47 47 47 45 45 45 46 46 46 47 47 47 47 46 46 46 46 46 41 21 24 26 29 29 26 25 25 24 22 22 20 15 11 15 15 20 21 17 18
56 55 54 53 52 50 50 49 47 47 46 44 45 45 45 46 46 47 47 46 47 46 46 47 47 43 38 25 28 29 31 30 27 25 25 26 25 23 22 20 20 16 12 9 14 21 22
56 54 53 52 52 51 50 48 47 46 45 44 44 45 45 46 46 47 46 47 47 47 47 48 47 41 32 34 34 33 32 25 24 21 25 23 24 20 22 22 19 17 16 11 8 15 21
55 54 53 52 51 50 49 47 46 45 45 43 43 44 45 46 46 47 47 48 48 48 48 48 43 39 34 39 37 33 28 26 27 29 28 27 24 22 27 23 19 16 12 11 10 12 18
54 53 52 51 49 48 47 46 45 44 43 42 43 44 45 45 46 47 48 48 47 48 46 44 36 33 32 24 23 23 24 25 26 27 31 27 20 19 21 21 16 11 11 11 9 7 15
54 53 51 50 48 47 46 45 44 43 42 41 43 43 44 44 45 47 46 38 28 24 29 21 27 27 25 23 25 25 26 26 28 29 26 28 22 20 19 19 21 20 18 14 13 14 14
53 51 50 48 48 46 45 45 43 42 41 43 43 42 43 43 45 46 44 30 29 30 29 32 31 30 29 28 25 25 26 27 27 24 24 26 25 25 25 22 17 16 20 23 18 14 13
52 50 48 48 47 45 45 45 43 42 43 42 42 42 43 44 45 43 37 34 35 34 30 28 29 26 25 27 24 22 30 29 22 22 25 26 25 23 25 24 21 19 16 18 22 14 13
50 49 48 48 46 45 44 43 42 42 42 41 43 42 43 45 43 39 33 36 36 36 25 26 25 25 20 18 24 20 30 29 25 23 24 26 24 21 21 22 25 25 19 20 22 14 13
49 49 48 47 46 45 43 43 42 42 41 42 42 43 43 43 40 37 36 38 38 36 12 20 15 14 13 21 20 23 26 25 24 25 26 23 27 30 29 29 32 29 26 20 23 13 13
47 48 47 46 45 44 43 42 41 41 41 42 43 43 44 42 41 39 40 40 37 25 12 12 12 14 18 20 19 23 30 32 28 25 25 24 25 27 26 28 29 32 25 24 18 18 13
47 46 46 45 44 42 41 41 40 41 41 42 43 44 43 40 36 39 40 38 26 16 11 8 10 19 18 20 22 26 30 27 26 26 24 28 25 31 32 31 31 30 23 17 15 16 21
46 45 43 43 44 42 41 41 40 41 41 42 44 45 41 39 39 40 38 31 19 12 10 13 16 19 20 20 21 27 29 28 24 27 27 26 21 26 28 34 32 29 21 14 14 18 20
45 44 42 42 43 41 40 41 41 41 42 43 44 40 38 41 41 41 33 23 15 10 13 15 17 19 18 19 20 26 28 29 27 27 27 27 24 27 26 30 34 21 16 16 23 28 21
44 42 41 42 43 41 40 40 40 41 42 44 38 39 39 42 41 39 29 25 15 15 17 18 16 20 17 19 19 18 25 26 27 26 32 29 26 29 31 35 32 28 23 23 27 21 18
42 40 41 42 42 40 40 40 41 41 42 43 39 35 37 38 41 35 23 25 19 16 18 18 18 18 19 22 21 22 25 25 23 25 30 32 31 26 30 34 30 29 25 30 30 29 24
42 42 43 43 41 41 41 41 43 43 44 42 37 31 37 39 30 29 25 25 25 18 22 22 22 22 25 25 21 23 23 27 26 25 26 32 35 28 24 28 32 30 31 30 25 28 29
42 42 41 41 41 42 41 42 43 44 44 39 35 32 38 38 25 26 30 23 23 21 19 21 21 27 27 23 20 23 25 28 27 25 25 30 30 25 21 25 29 31 31 31 33 31 26
41 43 41 41 41 40 41 41 43 44 44 39 35 27 32 34 32 22 21 23 21 24 22 21 22 26 21 20 23 21 25 27 28 26 35 32 30 30 24 26 30 29 30 31 31 27 24
42 42 41 41 41 41 41 40 42 44 44 39 32 29 29 23 24 19 21 22 21 21 20 20 21 21 20 18 20 23 24 24 24 29 29 29 26 28 28 29 34 34 33 31 30 31 23
41 42 43 42 41 40 40 39 42 44 43 38 27 30 29 28 21 19 24 20 19 17 19 17 20 21 20 19 22 23 23 23 24 26 26 29 25 28 26 27 33 32 32 32 32 33 35
42 41 41 42 41 40 38 39 41 43 43 36 35 34 29 27 25 23 23 20 22 25 25 23 21 20 21 23 26 25 25 26 26 25 25 27 27 26 24 26 30 25 30 31 31 32 36
42 41 41 42 41 39 38 39 41 43 43 40 38 34 27 23 25 25 24 23 23 27 25 25 29 27 27 30 30 29 29 28 29 29 28 27 27 27 25 25 21 32 31 35 32 32 33
43 42 41 42 41 39 39 40 41 43 44 41 40 36 31 24 29 27 27 29 28 28 27 30 30 30 32 30 27 24 24 27 29 32 31 31 28 24 23 23 31 27 28 31 31 30 35
44 43 43 43 43 42 41 41 42 42 43 41 39 39 35 26 28 30 29 30 26 26 26 29 32 33 32 29 24 21 21 24 24 26 30 31 32 26 25 21 19 26 29 32 33 25 35
43 43 43 43 43 42 41 41 42 43 44 41 38 39 34 25 31 31 29 29 30 29 27 29 30 29 30 24 24 22 22 26 23 25 27 27 27 23 24 23 26 30 31 32 21 27 35
43 43 43 43 43 42 41 41 41 43 44 41 39 40 34 29 32 35 37 32 33 30 26 29 25 27 26 23 25 23 23 25 25 31 29 27 24 24 23 20 17 32 29 26 32 32 33
43 43 43 43 42 42 41 41 41 42 42 40 38 42 40 33 30 36 36 35 36 35 32 31 28 27 29 24 24 26 24 25 25 21 33 27 30 25 26 25 32 32 33 34 36 33 31

GFSGBSN_sfc_dewp_123.txt.gz
Dewpoint
58 57 56 56 56 55 53 51 48 48 48 48 47 46 46 46 46 46 47 47 47 47 46 46 47 48 43 24 14 27 44 40 27 26 24 23 20 20 17 17 18 15 19 23 21 19 15
57 57 56 56 55 54 52 51 49 48 48 47 47 46 45 46 46 46 46 47 47 46 46 46 47 46 39 6 19 26 31 30 28 24 22 24 23 23 21 20 17 18 18 16 15 14 11
58 57 56 55 54 53 53 51 50 49 48 47 46 45 45 45 46 46 46 46 46 46 46 47 47 44 39 19 28 33 32 30 30 26 21 26 25 22 22 20 21 20 17 16 14 12 12
58 57 57 54 54 53 51 51 50 48 48 46 45 45 45 45 46 46 46 46 47 47 47 48 48 42 32 32 35 39 34 32 27 24 23 25 25 23 20 22 22 19 18 11 7 10 11
58 57 56 54 53 52 51 51 50 48 47 46 45 44 45 45 45 46 46 47 48 48 48 48 42 38 25 37 33 33 36 28 25 26 28 27 28 23 22 21 19 20 14 11 10 10 10
58 57 56 54 53 53 52 50 49 47 46 45 44 44 44 45 45 46 48 48 47 48 47 46 39 32 28 20 25 23 25 24 24 26 28 30 24 20 21 18 11 7 11 10 11 11 12
57 56 55 54 53 51 50 49 47 46 45 44 44 44 43 44 44 46 46 34 23 22 31 21 24 27 24 25 26 24 26 26 27 29 27 26 23 20 21 19 18 17 16 16 18 19 19
57 55 55 54 52 51 49 48 46 45 43 43 44 43 43 43 44 46 44 30 28 28 23 31 31 30 29 28 25 24 26 27 28 25 25 23 23 22 24 24 23 21 19 18 18 17 19
55 54 54 53 51 49 47 48 46 44 43 44 43 42 43 43 45 41 35 34 34 34 27 25 30 29 27 28 24 21 28 28 27 25 23 21 21 25 23 22 23 23 23 21 21 22 18
54 53 52 51 48 47 48 48 45 44 43 43 42 42 42 44 41 39 34 36 36 35 26 26 27 26 22 24 21 21 30 27 25 23 24 25 25 23 22 21 21 21 23 25 31 27 19
53 51 50 49 48 47 48 47 45 44 43 42 43 42 43 43 37 35 36 38 38 35 8 23 18 16 19 20 19 20 28 27 25 25 26 25 26 28 28 27 25 27 29 32 27 21 18
51 50 49 48 48 48 47 46 45 43 42 43 42 42 43 42 40 39 40 40 37 27 12 13 13 14 19 19 21 22 28 32 27 27 26 26 27 25 25 25 28 32 30 29 25 23 18
50 49 49 48 47 46 46 45 44 42 42 42 43 43 42 40 36 39 40 37 26 17 11 9 10 19 20 19 21 25 29 28 24 24 22 26 28 27 27 31 32 31 25 18 16 17 15
48 47 47 47 46 45 44 42 41 42 42 43 43 44 41 40 39 40 37 30 19 16 10 14 16 19 19 19 19 24 26 25 25 26 26 25 21 28 30 31 29 31 23 18 10 17 18
46 46 46 46 45 43 42 42 42 42 43 43 43 40 37 39 39 40 33 24 18 12 13 15 17 18 18 18 19 23 25 27 26 25 25 25 24 25 27 29 33 28 28 24 19 27 24
45 45 45 45 44 44 43 42 42 43 43 43 37 39 38 41 42 38 29 21 15 16 16 17 16 19 18 18 20 15 23 25 23 24 28 30 25 27 29 35 34 33 29 23 26 21 19
44 43 43 44 43 41 42 41 42 42 43 44 38 34 37 40 41 33 25 24 18 16 18 18 18 17 19 21 22 19 23 25 25 23 24 29 30 25 29 33 31 32 32 32 31 30 25
41 42 44 43 42 40 41 41 43 43 44 42 37 29 37 40 32 31 28 28 25 18 21 22 21 22 24 24 20 20 23 26 28 26 23 26 30 26 24 30 32 32 33 33 28 26 30
42 42 42 42 41 41 41 43 43 44 44 39 34 32 37 37 28 29 30 23 22 20 19 20 20 27 24 20 18 22 24 27 28 26 24 27 26 22 19 24 27 30 31 33 35 34 29
43 44 42 41 42 43 42 43 44 44 44 38 33 27 32 34 32 23 21 22 21 24 21 21 23 21 19 18 21 19 20 27 27 27 31 30 28 23 17 24 31 30 31 32 33 29 27
43 42 43 42 42 41 41 42 43 44 44 37 32 29 30 27 26 22 21 21 20 21 19 20 22 19 18 16 18 20 25 24 25 27 28 28 25 27 26 27 32 33 33 33 30 32 30
43 41 43 43 41 40 41 41 43 44 43 37 31 31 29 27 22 19 23 19 18 16 18 18 19 21 19 18 19 18 23 23 23 26 25 27 24 27 25 28 31 25 28 29 28 31 35
43 42 42 42 41 41 39 40 42 44 42 35 35 34 29 27 23 22 23 21 21 21 24 21 22 21 21 22 23 26 26 26 25 24 24 26 27 26 22 25 33 24 28 30 30 31 33
43 42 41 41 41 40 39 41 42 44 43 39 38 33 28 25 24 24 26 23 26 28 23 29 28 26 27 31 31 30 29 28 28 28 28 26 27 27 25 26 18 30 33 34 31 31 32
43 42 41 41 41 39 39 41 43 44 44 40 39 35 30 25 27 27 29 28 27 27 26 29 29 29 32 30 27 23 24 25 27 30 30 28 28 25 22 24 28 25 27 29 30 29 32
43 43 42 43 42 41 40 41 43 43 44 40 38 38 33 28 28 30 29 29 26 26 26 27 32 32 30 28 23 22 21 24 24 26 28 31 30 27 25 21 17 26 28 30 33 24 33
43 43 43 43 43 41 40 41 42 44 43 40 39 38 33 28 30 31 28 27 30 28 26 28 30 28 28 23 23 22 22 25 23 23 25 26 25 23 23 24 25 29 29 31 22 24 33
43 43 43 44 43 41 40 41 43 44 44 40 39 39 33 28 29 34 36 32 31 29 25 27 23 25 26 22 24 22 22 24 25 29 27 25 23 22 22 19 15 30 28 25 31 33 32
43 43 43 43 43 42 41 41 42 43 42 40 38 41 39 32 29 36 36 35 34 33 31 30 27 27 29 22 22 25 23 24 24 20 30 21 30 25 27 25 30 32 32 34 34 32 32

GFSGBSN_sfc_dewp_126.txt.gz
Dewpoint
59 58 58 58 57 56 56 55 53 51 49 48 48 48 46 46 44 45 46 46 47 47 46 46 48 48 39 7 6 23 43 38 27 24 22 23 21 21 17 19 18 16 17 18 17 16 14
59 58 58 57 57 57 56 55 53 51 49 49 48 47 46 45 45 45 46 46 46 46 46 47 48 47 35 5 18 27 32 30 28 24 22 23 22 23 22 21 19 19 19 19 18 17 16
59 58 57 57 57 56 56 54 53 51 49 48 48 47 46 45 45 45 46 46 46 46 47 47 48 44 35 13 27 33 35 30 30 27 23 26 24 23 22 19 21 21 19 16 12 13 11
59 58 57 57 56 56 55 54 52 50 49 48 47 46 46 45 45 45 45 46 47 48 48 47 48 41 25 31 35 39 35 30 29 27 24 26 25 25 21 22 22 20 19 15 8 8 8
58 59 58 57 56 55 54 54 52 51 49 48 47 46 45 45 44 45 45 46 48 49 48 48 41 37 18 34 28 30 34 26 24 26 28 27 27 24 22 20 17 19 10 12 10 10 9
56 59 58 57 56 55 54 53 52 51 50 48 46 45 45 44 44 45 47 47 48 48 46 45 40 28 24 19 25 24 26 27 24 26 28 28 24 21 21 18 10 8 11 12 11 12 14
55 56 58 57 56 55 54 53 52 51 49 47 45 45 44 44 44 45 45 28 24 26 38 24 24 24 22 24 26 23 25 26 26 27 25 26 23 21 21 20 18 17 16 16 17 18 18
53 55 57 57 56 55 54 53 51 50 47 46 45 44 43 43 43 45 42 26 22 22 12 28 30 29 30 28 22 22 26 26 27 24 26 22 23 23 22 22 21 20 19 19 20 21 21
55 54 57 57 55 54 53 52 50 48 46 44 44 43 42 43 44 39 34 32 33 32 19 24 30 28 27 27 23 21 27 27 27 25 23 22 22 24 23 23 23 23 22 20 20 21 23
55 54 56 56 54 53 52 51 48 46 45 46 45 43 42 43 41 37 33 36 35 34 24 25 27 24 27 27 20 21 28 28 25 23 24 24 25 23 22 21 21 20 22 22 22 25 24
54 56 55 54 53 52 50 48 46 46 46 45 43 43 43 43 37 33 35 38 37 35 -2 24 23 19 20 19 19 19 27 28 26 25 26 23 26 27 26 25 24 23 26 28 28 29 25
55 55 53 52 51 50 49 48 46 46 46 44 44 44 44 43 39 39 39 39 36 22 5 13 13 17 20 20 21 22 29 31 30 27 27 26 27 26 26 26 26 26 30 30 29 25 18
55 53 52 50 49 49 49 48 47 45 43 44 43 44 42 40 36 39 39 36 22 10 12 8 11 20 20 19 21 25 28 24 23 22 19 24 27 28 26 28 30 30 24 17 14 15 12
53 51 50 49 49 49 48 46 45 44 43 43 44 44 41 39 39 40 37 30 15 17 10 14 16 19 19 20 20 22 25 21 25 25 24 21 16 25 31 29 25 28 30 19 10 12 14
47 49 49 49 48 47 46 44 43 43 43 44 44 41 37 35 39 39 32 22 18 12 13 16 17 17 17 18 21 22 24 24 25 24 19 24 20 21 23 26 29 31 28 26 22 22 21
46 45 45 46 45 45 44 43 43 44 44 44 39 37 37 41 41 37 28 19 15 17 16 17 14 19 17 17 20 16 22 25 23 23 25 23 21 24 28 35 34 33 32 25 23 17 20
44 44 44 44 44 43 43 43 43 43 44 43 38 34 38 41 40 32 23 24 16 16 18 18 17 17 18 21 21 19 22 24 25 23 25 24 27 22 26 32 30 31 31 32 34 29 24
44 46 45 44 44 43 43 43 43 43 44 40 37 32 38 40 30 30 26 25 24 18 22 21 20 22 23 23 19 19 23 23 27 26 22 24 27 23 20 25 32 33 33 33 28 26 28
43 45 44 42 41 42 42 43 43 44 44 38 33 34 38 37 27 29 30 24 22 19 18 19 21 25 23 19 17 21 22 25 28 25 23 26 25 20 17 21 26 28 29 33 35 34 30
43 43 43 41 41 41 42 43 44 45 44 38 33 27 32 32 33 26 22 21 21 23 20 21 22 20 18 17 19 18 18 25 27 26 29 31 27 20 14 19 31 28 32 35 31 29 29
44 43 43 42 43 42 43 44 44 44 44 36 32 27 28 25 27 23 22 22 20 20 18 21 20 18 16 15 17 19 23 24 25 28 27 27 24 25 26 26 33 29 29 29 29 32 30
43 42 43 43 43 42 42 43 44 44 43 33 31 29 29 26 25 21 23 20 18 16 17 19 18 19 19 17 18 18 21 23 23 25 23 26 24 26 25 30 34 27 27 25 25 29 33
43 42 43 42 41 41 41 42 43 44 41 34 35 33 29 27 22 23 22 20 19 21 22 23 21 21 21 23 23 23 25 26 26 24 25 25 26 26 21 25 32 24 27 30 28 29 31
42 42 42 42 41 40 40 42 43 43 42 38 36 31 29 26 23 23 25 24 23 24 22 29 27 25 27 31 31 30 30 29 29 28 27 26 26 27 24 28 18 29 29 33 31 30 31
43 42 42 42 41 39 41 42 44 44 43 39 38 34 30 27 27 28 28 27 26 27 27 27 28 29 31 30 26 23 24 24 27 30 30 27 27 26 22 23 26 25 26 27 27 28 32
42 42 41 42 41 40 41 42 43 44 43 39 37 37 33 30 27 30 28 26 25 25 24 27 31 32 29 27 23 22 21 23 23 25 28 29 28 28 24 22 16 24 27 30 34 23 31
42 42 43 42 41 40 41 42 44 44 43 40 38 37 33 30 30 31 27 27 29 27 25 28 29 27 28 23 23 22 22 25 23 23 25 24 24 22 21 23 25 27 28 30 22 21 30
43 43 43 43 41 41 41 42 44 44 43 40 39 39 32 29 29 33 35 32 31 28 23 26 23 24 25 21 23 22 22 25 24 28 28 23 23 20 21 18 13 29 26 24 30 33 31
43 43 43 43 42 41 41 42 44 43 42 41 37 40 38 32 30 36 36 35 33 31 30 30 25 27 29 22 21 25 24 23 24 20 28 20 26 23 26 24 30 30 30 32 33 32 31

GFSGBSN_sfc_dewp_129.txt.gz
Dewpoint
60 60 59 59 58 57 57 56 55 54 53 51 49 48 48 47 46 46 46 46 47 46 46 47 48 49 36 8 9 23 42 38 28 24 24 22 21 20 16 19 19 16 16 18 18 18 17
57 59 59 58 58 58 57 56 55 54 52 51 50 49 48 47 45 46 46 46 46 46 46 48 49 47 28 8 18 28 35 29 27 24 24 24 23 22 20 20 18 19 18 17 17 17 15
55 57 59 58 58 58 57 56 55 54 52 51 49 49 48 46 46 46 46 46 46 46 47 48 48 42 28 14 26 34 37 29 29 26 23 25 24 25 23 21 21 20 17 16 13 12 11
53 54 56 58 57 57 56 56 55 54 52 51 49 48 47 46 45 45 46 46 47 48 48 47 48 40 21 29 33 36 35 28 27 27 24 25 26 25 24 23 21 18 17 9 7 10 9
53 54 55 56 57 57 56 56 55 54 52 51 49 48 47 46 45 45 45 46 49 49 49 48 40 36 18 34 26 28 34 25 24 25 27 26 27 25 23 21 17 17 5 11 11 12 11
53 53 54 55 57 57 56 56 55 53 52 51 49 48 47 46 45 45 47 47 49 47 46 44 39 24 23 19 25 24 25 27 24 26 28 27 25 23 22 19 4 7 10 11 12 12 14
51 53 54 54 55 58 57 56 55 53 52 51 49 47 46 45 44 44 43 42 26 30 41 22 25 23 21 24 26 22 24 25 27 27 24 27 23 19 19 21 19 18 17 15 15 17 19
51 52 53 54 54 56 57 56 54 52 52 50 49 46 46 45 44 44 41 26 22 25 19 27 28 27 28 28 19 20 26 25 26 24 26 24 22 23 24 23 21 20 19 18 19 21 23
50 52 53 53 54 55 57 56 53 52 51 50 48 46 45 44 44 43 35 32 34 31 18 23 28 25 25 26 20 18 26 28 26 26 25 23 23 24 23 22 22 21 21 21 21 23 26
50 50 52 54 54 54 56 55 53 52 51 49 48 46 45 44 41 37 34 36 36 37 25 22 25 24 27 26 19 21 27 28 26 24 24 26 25 23 21 21 21 22 22 22 22 26 23
48 50 52 55 54 53 55 53 52 50 49 48 46 44 44 44 38 34 36 37 40 36 -1 23 23 24 25 18 18 19 28 28 26 26 26 24 26 27 28 26 24 24 25 25 25 26 27
48 53 55 55 54 54 53 52 50 48 47 46 45 44 44 42 39 39 39 39 38 27 -0 14 13 17 19 20 20 23 28 29 29 27 27 26 27 26 26 26 27 26 27 29 28 28 19
49 55 55 54 54 53 51 50 48 47 47 45 44 44 43 41 39 41 42 38 26 10 12 6 14 19 19 19 20 25 25 23 20 16 16 21 23 28 27 27 29 30 28 20 15 16 10
46 55 54 54 52 51 49 48 48 47 46 45 45 45 43 40 41 41 39 33 14 16 11 12 18 19 19 19 21 21 25 21 24 24 21 15 7 24 29 29 25 26 30 22 17 13 16
46 46 53 51 50 49 48 48 47 46 45 46 44 41 38 39 42 41 34 25 14 14 12 16 18 16 17 19 24 21 25 22 24 23 15 17 15 23 20 29 30 34 30 30 27 23 21
46 45 44 48 49 48 47 46 46 46 45 43 38 37 35 40 42 38 32 22 14 16 17 17 14 17 16 17 19 23 21 25 23 23 23 20 19 19 25 32 34 32 34 28 28 20 17
45 46 45 44 44 45 45 45 45 43 44 43 41 36 40 41 41 33 28 22 16 17 19 18 17 18 19 20 21 21 22 24 25 23 24 22 23 20 25 28 23 29 26 29 30 29 24
42 42 43 43 44 43 43 43 43 43 43 43 39 32 39 42 34 32 28 24 23 18 22 21 23 23 22 21 19 18 21 23 26 25 20 24 25 21 18 23 28 26 27 30 27 25 28
44 44 44 43 43 43 44 44 43 42 44 39 36 35 39 39 29 29 29 25 21 19 19 19 25 23 23 20 17 20 22 25 27 24 23 26 26 21 12 24 25 27 27 32 34 34 29
44 43 43 43 43 43 43 43 44 45 44 38 35 30 33 34 33 30 28 23 22 23 21 23 21 21 19 16 19 18 17 23 27 25 28 31 27 24 19 22 30 27 25 29 28 29 29
44 43 41 42 42 42 43 43 43 44 44 36 33 29 30 29 30 25 25 23 21 18 20 21 19 18 17 15 16 17 22 23 25 28 28 26 23 25 25 25 31 31 27 28 26 29 24
43 42 42 43 41 43 44 44 44 44 43 34 33 31 30 28 29 24 25 21 19 16 19 18 20 20 19 17 16 18 20 23 22 24 24 27 24 25 23 28 32 28 28 25 27 27 30
43 43 44 43 42 42 43 43 44 44 40 35 35 33 30 26 23 23 23 21 20 24 28 23 22 22 20 21 24 24 25 27 26 24 25 25 26 25 20 25 32 24 27 29 28 28 28
43 43 43 42 41 41 42 43 44 44 41 38 37 32 29 25 23 24 23 22 22 22 26 28 27 26 28 31 31 31 30 29 29 29 28 26 26 27 22 26 19 29 28 33 30 30 31
43 43 42 41 41 40 41 43 44 44 43 39 39 33 30 28 27 27 27 28 28 29 28 28 28 30 32 30 26 23 25 26 28 29 29 28 28 26 23 22 28 27 26 26 26 26 29
43 43 42 42 40 41 41 43 44 43 42 39 38 38 35 30 28 29 27 27 25 25 25 28 31 32 31 28 27 21 19 22 23 25 30 28 28 27 23 20 17 25 25 28 33 23 30
42 43 43 41 41 41 41 43 45 43 42 40 38 37 35 32 31 31 28 28 29 26 25 28 29 27 30 28 25 23 21 24 21 22 24 24 24 21 20 21 24 26 27 29 24 24 30
43 42 43 42 41 41 42 44 44 43 43 40 39 39 35 32 30 35 35 32 30 28 26 28 27 28 28 25 23 25 24 25 25 28 25 22 20 20 20 19 16 27 25 22 28 32 30
42 42 43 42 42 41 43 44 43 43 43 40 37 39 39 34 32 36 36 35 34 31 32 30 26 28 30 27 27 26 26 27 24 23 28 25 26 22 23 24 30 30 29 30 30 28 28